[[{"header":{"parameterUnit":"m.s-1","parameterCategory":1,"la1":30.6,"la2":28.766,"lo1":-90.7593,"lo2":-88.6598,"dx":0.0162,"dy":0.0183,"nx":116,"ny":114,"refTime":"2022-11-22T18:00:00:Z","depth":0,"parameterNumber":2,"parameterNumberName":"U-component_of_WINDS"},"data":[0.0,0.0,0.0,0.0,0.0,0.0,0.0,0.0,0.0,0.0,0.0,0.0,0.0,0.0,0.0,0.0,0.0,0.0,0.0,0.0,0.0,0.0,0.0,0.0,0.0,0.0,0.0,0.0,0.0,0.0,0.0,0.0,0.0,0.0,0.0,0.0,0.0,0.0,0.0,0.0,0.0,0.0,0.0,0.0,0.0,0.0,0.0,0.0,0.0,0.0,0.0,0.0,0.0,0.0,0.0,0.0,0.0,0.0,0.0,0.0,0.0,0.0,0.0,0.0,0.0,0.0,0.0,0.0,0.0,0.0,0.0,0.0,0.0,0.0,0.0,0.0,0.0,0.0,0.0,0.0,0.0,0.0,0.0,0.0,0.0,0.0,0.0,0.0,0.0,0.0,0.0,0.0,0.0,0.0,0.0,0.0,0.0,0.0,0.0,0.0,0.0,0.0,0.0,0.0,0.0,0.0,0.0,0.0,0.0,0.0,0.0,0.0,0.0,0.0,0.0,0.0,0.0,0.0,0.0,0.0,0.0,0.0,0.0,0.0,0.0,0.0,0.0,0.0,0.0,0.0,0.0,0.0,0.0,0.0,0.0,0.0,0.0,0.0,0.0,0.0,0.0,0.0,0.0,0.0,0.0,0.0,0.0,0.0,0.0,0.0,0.0,0.0,0.0,0.0,0.0,0.0,0.0,0.0,0.0,0.0,0.0,0.0,0.0,0.0,0.0,0.0,0.0,0.0,0.0,0.0,0.0,0.0,0.0,0.0,0.0,0.0,0.0,0.0,0.0,0.0,0.0,0.0,0.0,0.0,0.0,0.0,0.0,0.0,0.0,0.0,0.0,0.0,0.0,0.0,0.0,0.0,0.0,0.0,0.0,0.0,0.0,0.0,0.0,0.0,0.0,0.0,0.0,0.0,0.0,0.0,0.0,0.0,0.0,0.0,0.0,0.0,0.0,0.0,0.0,0.0,0.0,0.0,0.0,0.0,0.0,0.0,0.0,0.0,0.0,0.0,0.0,0.0,0.0,0.0,0.0,0.0,0.0,0.0,0.0,0.0,0.0,0.0,0.0,0.0,0.0,0.0,0.0,0.0,0.0,0.0,0.0,0.0,0.0,0.0,0.0,0.0,0.0,0.0,0.0,0.0,0.0,0.0,0.0,0.0,0.0,0.0,0.0,0.0,0.0,0.0,0.0,0.0,0.0,0.0,0.0,0.0,0.0,0.0,0.0,0.0,0.0,0.0,0.0,0.0,0.0,0.0,0.0,0.0,0.0,0.0,0.0,0.0,0.0,0.0,0.0,0.0,0.0,0.0,0.0,0.0,0.0,0.0,0.0,0.0,0.0,0.0,0.0,0.0,0.0,0.0,0.0,0.0,0.0,0.0,0.0,0.0,0.0,0.0,0.0,0.0,0.0,0.0,0.0,0.0,0.0,0.0,0.0,0.0,0.0,0.0,0.0,0.0,0.0,0.0,0.0,0.0,0.0,0.0,0.0,0.0,0.0,0.0,0.0,0.0,0.0,0.0,0.0,0.0,0.0,0.0,0.0,0.0,0.0,0.0,0.0,0.0,0.0,0.0,0.0,0.0,0.0,0.0,0.0,0.0,0.0,0.0,0.0,0.0,0.0,0.0,0.0,0.0,0.0,0.0,0.0,0.0,0.0,0.0,0.0,0.0,0.0,0.0,0.0,0.0,0.0,0.0,0.0,0.0,0.0,0.0,0.0,0.0,0.0,0.0,0.0,0.0,0.0,0.0,0.0,0.0,0.0,0.0,0.0,0.0,0.0,0.0,0.0,0.0,0.0,0.0,0.0,0.0,0.0,0.0,0.0,0.0,0.0,0.0,0.0,0.0,0.0,0.0,0.0,0.0,0.0,0.0,0.0,0.0,0.0,0.0,0.0,0.0,0.0,0.0,0.0,0.0,0.0,0.0,0.0,0.0,0.0,0.0,0.0,0.0,0.0,0.0,0.0,0.0,0.0,0.0,0.0,0.0,0.0,0.0,0.0,0.0,0.0,0.0,0.0,0.0,0.0,0.0,0.0,0.0,0.0,0.0,0.0,0.0,0.0,0.0,0.0,0.0,0.0,0.0,0.0,0.0,0.0,0.0,0.0,0.0,0.0,0.0,0.0,0.0,0.0,0.0,0.0,0.0,0.0,0.0,0.0,0.0,0.0,0.0,0.0,0.0,0.0,0.0,0.0,0.0,0.0,0.0,0.0,0.0,0.0,0.0,0.0,0.0,0.0,0.0,0.0,0.0,0.0,0.0,0.0,0.0,0.0,0.0,0.0,0.0,0.0,0.0,0.0,0.0,0.0,0.0,0.0,0.0,0.0,0.0,0.0,0.0,0.0,0.0,0.0,0.0,0.0,0.0,0.0,0.0,0.0,0.0,0.0,0.0,0.0,0.0,0.0,0.0,0.0,0.0,0.0,0.0,0.0,0.0,0.0,0.0,0.0,0.0,0.0,0.0,0.0,0.0,0.0,0.0,0.0,0.0,0.0,0.0,0.0,0.0,0.0,0.0,0.0,0.0,0.0,0.0,0.0,0.0,0.0,0.0,0.0,0.0,0.0,0.0,0.0,0.0,0.0,0.0,0.0,0.0,0.0,0.0,0.0,0.0,0.0,0.0,0.0,0.0,0.0,0.0,0.0,0.0,0.0,0.0,0.0,0.0,0.0,0.0,0.0,0.0,0.0,0.0,0.0,0.0,0.0,0.0,0.0,0.0,0.0,0.0,0.0,0.0,0.0,0.0,0.0,0.0,0.0,0.0,0.0,0.0,0.0,0.0,0.0,0.0,0.0,0.0,0.0,0.0,0.0,0.0,0.0,0.0,0.0,0.0,0.0,0.0,0.0,0.0,0.0,0.0,0.0,0.0,0.0,0.0,0.0,0.0,0.0,0.0,0.0,0.0,0.0,0.0,0.0,0.0,0.0,0.0,0.0,0.0,0.0,0.0,0.0,0.0,0.0,0.0,0.0,0.0,0.0,0.0,0.0,0.0,0.0,0.0,0.0,0.0,0.0,0.0,0.0,0.0,0.0,0.0,0.0,0.0,0.0,0.0,0.0,0.0,0.0,0.0,0.0,0.0,0.0,0.0,0.0,0.0,0.0,0.0,0.0,0.0,0.0,0.0,0.0,0.0,0.0,0.0,0.0,0.0,0.0,0.0,0.0,0.0,0.0,0.0,0.0,0.0,0.0,0.0,0.0,0.0,0.0,0.0,0.0,0.0,0.0,0.0,0.0,0.0,0.0,0.0,0.0,0.0,0.0,0.0,0.0,0.0,0.0,0.0,0.0,0.0,0.0,0.0,0.0,0.0,0.0,0.0,0.0,0.0,0.0,0.0,0.0,0.0,0.0,0.0,0.0,0.0,0.0,0.0,0.0,0.0,0.0,0.0,0.0,0.0,0.0,0.0,0.0,0.0,0.0,0.0,0.0,0.0,0.0,0.0,0.0,0.0,0.0,0.0,0.0,0.0,0.0,0.0,0.0,0.0,0.0,0.0,0.0,0.0,0.0,0.0,0.0,0.0,0.0,0.0,0.0,0.0,0.0,0.0,0.0,0.0,0.0,0.0,0.0,0.0,0.0,0.0,0.0,0.0,0.0,0.0,0.0,0.0,0.0,0.0,0.0,0.0,0.0,0.0,0.0,0.0,0.0,0.0,0.0,0.0,0.0,0.0,0.0,0.0,0.0,0.0,0.0,0.0,0.0,0.0,0.0,0.0,0.0,0.0,0.0,0.0,0.0,0.0,0.0,0.0,0.0,0.0,0.0,0.0,0.0,0.0,0.0,0.0,0.0,0.0,0.0,0.0,0.0,0.0,0.0,0.0,0.0,0.0,0.0,0.0,0.0,0.0,0.0,0.0,0.0,0.0,0.0,0.0,0.0,0.0,0.0,0.0,0.0,0.0,0.0,0.0,0.0,0.0,0.0,0.0,0.0,0.0,0.0,0.0,0.0,0.0,0.0,0.0,0.0,0.0,0.0,0.0,0.0,0.0,0.0,0.0,0.0,0.0,0.0,0.0,0.0,0.0,0.0,0.0,0.0,0.0,0.0,0.0,0.0,0.0,0.0,0.0,0.0,0.0,0.0,0.0,0.0,0.0,0.0,0.0,0.0,0.0,0.0,0.0,0.0,0.0,0.0,0.0,0.0,0.0,0.0,0.0,0.0,0.0,0.0,0.0,0.0,0.0,0.0,0.0,0.0,0.0,0.0,0.0,0.0,0.0,0.0,0.0,0.0,0.0,0.0,0.0,0.0,0.0,0.0,0.0,0.0,0.0,0.0,0.0,0.0,0.0,0.0,0.0,0.0,0.0,0.0,0.0,0.0,0.0,0.0,0.0,0.0,0.0,0.0,0.0,0.0,0.0,0.0,0.0,0.0,0.0,0.0,0.0,0.0,0.0,0.0,0.0,0.0,0.0,0.0,0.0,0.0,0.0,0.0,0.0,0.0,0.0,0.0,0.0,0.0,0.0,0.0,0.0,0.0,0.0,0.0,0.0,0.0,0.0,0.0,0.0,0.0,0.0,0.0,0.0,0.0,0.0,0.0,0.0,0.0,0.0,0.0,0.0,0.0,0.0,0.0,0.0,0.0,0.0,0.0,0.0,0.0,0.0,0.0,0.0,0.0,0.0,0.0,0.0,0.0,0.0,0.0,0.0,0.0,0.0,0.0,0.0,0.0,0.0,0.0,0.0,0.0,0.0,0.0,0.0,0.0,0.0,0.0,0.0,0.0,0.0,0.0,0.0,0.0,0.0,0.0,0.0,0.0,0.0,0.0,0.0,0.0,0.0,0.0,0.0,0.0,0.0,0.0,0.0,0.0,0.0,0.0,0.0,0.0,0.0,0.0,0.0,0.0,0.0,0.0,0.0,0.0,0.0,0.0,0.0,0.0,0.0,0.0,0.0,0.0,0.0,0.0,0.0,0.0,0.0,0.0,0.0,0.0,0.0,0.0,0.0,0.0,0.0,0.0,0.0,0.0,0.0,0.0,0.0,0.0,0.0,0.0,0.0,0.0,0.0,0.0,0.0,0.0,0.0,0.0,0.0,0.0,0.0,0.0,0.0,0.0,0.0,0.0,0.0,0.0,0.0,0.0,0.0,0.0,0.0,0.0,0.0,0.0,0.0,0.0,0.0,0.0,0.0,0.0,0.0,0.0,0.0,0.0,0.0,0.0,0.0,0.0,0.0,0.0,0.0,0.0,0.0,0.0,0.0,0.0,0.0,0.0,0.0,0.0,0.0,0.0,0.0,0.0,0.0,0.0,0.0,0.0,0.0,0.0,0.0,0.0,0.0,0.0,0.0,0.0,0.0,0.0,0.0,0.0,0.0,0.0,0.0,0.0,0.0,0.0,0.0,0.0,0.0,0.0,0.0,0.0,0.0,0.0,0.0,0.0,0.0,0.0,0.0,0.0,0.0,0.0,0.0,0.0,0.0,0.0,0.0,0.0,0.0,0.0,0.0,0.0,0.0,0.0,0.0,0.0,0.0,0.0,0.0,0.0,0.0,0.0,0.0,0.0,0.0,0.0,0.0,0.0,0.0,0.0,0.0,0.0,0.0,0.0,0.0,0.0,0.0,0.0,0.0,0.0,0.0,0.0,0.0,0.0,0.0,0.0,0.0,0.0,0.0,0.0,0.0,0.0,0.0,0.0,0.0,0.0,0.0,0.0,0.0,0.0,0.0,0.0,0.0,0.0,0.0,0.0,0.0,0.0,0.0,0.0,0.0,0.0,0.0,0.0,0.0,0.0,0.0,0.0,0.0,0.0,0.0,0.0,0.0,0.0,0.0,0.0,0.0,0.0,0.0,0.0,0.0,0.0,0.0,0.0,0.0,0.0,0.0,0.0,0.0,0.0,0.0,0.0,0.0,0.0,0.0,0.0,0.0,0.0,0.0,0.0,0.0,0.0,0.0,0.0,0.0,0.0,0.0,0.0,0.0,0.0,0.0,0.0,0.0,0.0,0.0,0.0,0.0,0.0,0.0,0.0,0.0,0.0,0.0,0.0,0.0,0.0,0.0,0.0,0.0,0.0,0.0,0.0,0.0,0.0,0.0,0.0,0.0,0.0,0.0,0.0,0.0,0.0,0.0,0.8315,0.0,0.0,0.0,0.0,0.0,0.0,0.0,0.0,0.0,0.0,0.0,0.0,0.0,0.0,0.0,0.0,0.0,0.0,0.0,0.0,0.0,0.0,0.0,0.0,-0.7539,-0.7421,-0.7047,-0.6588,0.0,0.0,0.0,0.0,0.0,0.0,0.0,0.0,0.0,-0.4318,-0.3773,-0.4806,-0.5806,-0.681,-0.6606,-0.5614,-0.399,0.0,0.0,0.0,0.0,0.0,0.0,0.0,0.0,0.0,0.0,0.0,0.0,0.0,0.0,0.0,0.0,0.0,0.0,0.0,0.0,0.0,0.0,0.0,0.0,0.0,0.0,0.0,0.0,0.0,0.0,0.0,0.0,0.0,0.0,0.0,0.0,0.0,0.0,0.0,0.0,0.0,0.0,0.0,0.0,0.0,0.0,0.0,0.0,0.0,0.0,0.0,0.0,0.0,0.0,0.0,0.0,0.0,0.0,0.0,0.0,0.0,0.0,0.0,0.0,0.0,0.0,0.0,0.0,0.0,0.0,0.0,0.9432,0.0,0.0,0.0,0.0,0.0,0.0,0.0,0.0,0.0,0.0,0.0,0.0,0.0,0.0,0.0,0.0,0.0,0.0,0.0,0.0,0.0,-0.747,-0.751,-0.7569,-0.7432,-0.6987,-0.6747,-0.6443,-0.5998,-0.5718,0.0,0.0,0.0,0.0,0.0,0.0,-0.537,-0.4862,-0.6736,-0.8393,-0.9798,-1.0297,-0.8937,-0.6061,-0.5272,0.0,0.0,0.0,0.0,0.0,0.0,0.0,0.0,0.0,0.0,0.0,0.0,0.0,0.0,0.0,0.0,0.0,0.0,0.0,0.0,0.0,0.0,0.0,0.0,0.0,0.0,0.0,0.0,0.0,0.0,0.0,0.0,0.0,0.0,0.0,0.0,0.0,0.0,0.0,0.0,0.0,0.0,0.0,0.0,0.0,0.0,0.0,0.0,0.0,0.0,0.0,0.0,0.0,0.0,0.0,0.0,0.0,0.0,0.0,0.0,0.0,0.0,0.0,1.3955,1.4201,1.4217,1.414,1.453,1.5185,1.4605,1.3014,1.0793,0.0,0.0,0.0,0.0,0.0,0.0,0.0,0.0,0.0,0.0,0.0,0.0,0.0,0.0,0.0,0.0,0.0,0.0,0.0,0.0,-0.7598,-0.7579,-0.7656,-0.7432,-0.679,-0.67,-0.6427,-0.5874,-0.578,0.0,0.0,0.0,0.0,0.0,-0.6079,-0.6428,-0.7099,-0.9463,-1.1019,-1.1844,-1.1874,-1.1692,-1.1165,-0.9687,-0.8126,-0.6556,0.0,0.0,0.0,0.0,0.0,0.0,0.0,0.0,0.0,0.0,0.0,0.0,0.0,0.0,0.0,0.0,0.0,0.0,0.0,0.0,0.0,0.0,0.0,0.0,0.0,0.0,0.0,0.0,0.0,0.0,0.0,0.0,0.0,0.0,0.0,0.0,0.0,0.0,0.0,0.0,0.0,0.7311,0.6156,0.0,0.0,0.0,0.0,0.0,0.0,0.0,0.0,0.0,0.0,0.0,0.0,0.0,1.1545,1.1627,1.1382,1.2083,1.377,1.5328,1.6148,1.6194,1.7772,1.8624,1.8716,1.8621,0.0,1.3235,1.12,0.0,0.0,0.0,0.0,0.0,0.0,0.0,0.0,0.0,0.0,0.0,0.0,0.0,0.0,0.0,0.0,0.0,0.0,0.0,0.0,0.0,-0.8631,-0.9082,-0.9076,-0.9575,-0.9368,-0.811,-0.7873,0.0,0.0,0.0,0.0,0.0,0.0,-0.8841,-1.0732,-1.2357,-1.3669,-1.461,-1.515,-1.5415,-1.5551,-1.4347,-1.204,-0.8994,-0.7954,0.0,0.0,0.0,0.0,0.0,0.0,0.0,0.0,0.0,0.0,0.0,0.0,0.0,0.0,0.0,0.0,0.0,0.0,0.0,0.0,0.0,0.0,0.0,0.0,0.0,0.0,0.0,0.0,0.0,0.0,0.0,0.0,0.0,0.0,0.0,0.0,0.0,0.0,0.0,0.6825,0.6824,0.5709,0.5834,0.5524,0.0,0.0,0.0,0.0,0.0,0.0,0.0,0.0,0.0,1.0286,1.2231,1.3382,1.3559,1.4362,1.5265,1.6472,1.7964,1.8239,1.769,1.8753,1.9517,1.9924,1.9517,1.9145,1.8543,1.5838,1.3884,1.258,0.0,0.0,0.0,0.0,0.0,1.137,0.0,0.0,0.0,0.0,0.0,0.0,0.0,0.0,0.0,0.0,0.0,0.0,-0.881,-1.0099,-1.099,-1.1238,-1.1959,-1.163,-0.9813,-0.9427,-0.856,0.0,0.0,0.0,0.0,0.0,0.0,-1.3831,-1.4828,-1.5842,-1.6956,-1.7217,-1.747,-1.7722,-1.6831,-1.4676,-1.1619,-0.9964,-0.8613,-0.7333,0.0,0.0,0.0,0.0,0.0,0.0,0.0,0.0,0.0,0.0,0.0,0.0,0.0,0.0,0.0,0.0,0.0,0.0,0.0,0.0,0.0,0.0,0.0,0.0,0.0,0.0,0.0,0.0,0.0,0.0,0.0,0.0,0.0,0.0,0.0,0.0,0.0,0.7351,0.7435,0.5904,0.6775,0.6991,0.0,0.0,0.0,0.0,0.0,0.0,0.8639,1.1077,1.2214,1.169,1.3881,1.5191,1.5314,1.6578,1.7499,1.8238,1.9441,1.9441,1.8238,1.9328,1.9867,2.0109,1.9882,2.0931,2.2638,1.9636,1.7531,1.6015,1.5245,1.486,1.477,1.4934,1.4934,1.4934,0.0,0.0,0.0,0.0,0.0,0.0,0.0,0.0,0.0,0.0,0.0,-1.0155,-1.0639,-1.1927,-1.2657,-1.2366,-1.2374,-1.1535,-0.9451,-0.9298,-0.8673,-0.7229,-0.7161,0.0,0.0,0.0,0.0,-1.5401,-1.6452,-1.7335,-1.8046,-1.6723,-1.627,-1.6661,-1.5609,-1.4874,-1.4439,-1.2479,-1.0594,-0.8777,-0.6362,0.0,0.0,0.0,0.0,0.0,0.0,0.0,0.0,0.0,0.0,0.0,0.0,0.0,0.0,0.0,0.0,0.0,0.0,0.0,0.0,0.0,0.0,0.0,0.0,0.0,0.0,0.0,0.0,0.0,0.0,0.0,0.0,0.0,0.0,0.0,0.0,0.0,0.0,0.8077,0.9444,0.0,0.0,0.0,0.0,1.0623,1.1303,1.134,1.0404,1.2721,1.4223,1.4606,1.579,1.6662,1.6864,1.6034,1.6214,1.7538,1.8846,1.8729,1.7346,2.0208,2.0747,1.9524,2.0898,2.2314,2.346,2.069,1.9538,1.9232,1.7395,1.6684,1.6684,1.6684,1.6684,1.6684,0.0,0.0,0.0,-0.8269,-0.805,-0.784,-0.7392,-0.7362,-0.7542,-0.794,-0.9456,-1.0686,-1.1184,-1.3442,-1.4968,-1.5119,-1.59,-1.5663,-1.411,-1.2984,-1.1669,-1.0044,-0.8954,0.0,0.0,0.0,-1.4799,-1.6296,-1.7204,-1.7629,-1.7608,-1.7451,-1.7477,-1.7588,-1.6954,-1.6347,-1.5654,-1.3196,-1.1501,-1.0162,-0.7782,-0.6343,0.0,0.0,0.0,0.0,0.0,0.0,0.0,0.0,0.0,0.0,0.0,0.0,0.0,0.0,0.0,0.0,0.0,0.0,0.0,0.0,0.0,0.0,0.0,0.0,0.0,0.0,0.0,0.0,0.0,0.0,0.0,0.0,0.0,0.0,0.0,0.0,0.0,0.9351,1.1222,0.0,0.9444,1.0508,1.1141,1.0685,1.2527,1.3378,1.2575,1.4733,1.5792,1.5242,1.5626,1.5972,1.6061,1.6639,1.7279,1.8185,2.0629,2.1058,1.9871,2.1976,2.2688,2.2229,2.2704,2.376,2.5086,2.4047,2.2995,2.1841,2.0853,2.055,2.055,2.055,2.055,2.055,0.0,0.0,0.0,-0.8277,-0.8078,-0.7869,-0.747,-0.7583,-0.7992,-0.8809,-1.0488,-1.1995,-1.2969,-1.5365,-1.6951,-1.7129,-1.8148,-1.7863,-1.5685,-1.4636,-1.3077,-1.0778,-1.0091,0.0,0.0,-1.4772,-1.5856,-1.7057,-1.7549,-1.7711,-1.7531,-1.7556,-1.7644,-1.7762,-1.7141,-1.6575,-1.5906,-1.402,-1.2581,-1.1327,-0.912,-0.7499,-0.6309,0.0,0.0,0.0,0.0,0.0,0.0,0.0,0.0,0.0,0.0,0.0,0.0,0.0,0.0,0.0,0.0,0.0,0.0,0.0,0.0,0.0,0.0,0.0,0.0,0.0,0.0,0.0,0.0,0.0,0.0,0.0,0.0,0.0,0.0,0.0,1.2699,1.128,1.3178,1.3804,1.1982,1.2516,1.2829,1.2575,1.433,1.5061,1.4259,1.5583,1.6175,1.5663,1.5663,1.5744,1.5897,1.682,1.752,1.7896,2.0496,2.1038,1.9835,2.197,2.2729,2.2291,2.2867,2.3917,2.5227,2.5227,2.4494,2.3378,2.3572,2.3682,2.3682,2.3682,2.3682,2.3682,0.0,0.0,-0.8987,-0.8578,-0.822,-0.7898,-0.747,-0.7809,-0.8746,-1.0479,-1.2319,-1.4126,-1.5939,-1.7598,-1.8457,-1.8086,-1.8765,-1.7625,-1.391,-1.3958,-1.2681,-0.9345,0.0,0.0,-1.5455,-1.561,-1.6336,-1.7708,-1.7481,-1.7613,-1.804,-1.69,-1.6563,-1.6995,-1.6045,-1.5445,-1.5239,-1.5061,-1.4,-1.2293,-1.0268,-0.8554,-0.7195,0.0,0.0,0.0,0.0,0.0,0.0,0.0,0.0,0.0,0.0,0.0,0.0,0.0,0.0,0.0,0.0,0.0,0.0,0.0,0.0,0.0,0.0,0.0,0.0,0.0,0.0,0.0,0.0,0.0,0.0,0.0,0.0,0.0,1.0133,1.3976,1.6124,1.4153,1.5137,1.5985,1.586,1.5251,1.5359,1.6494,1.6627,1.6137,1.5137,1.5149,1.539,1.6016,1.5922,1.6175,1.683,1.683,1.6843,1.6855,1.8359,1.8233,1.7004,2.0095,2.0812,1.9529,2.1152,2.2617,2.3937,2.3937,2.3937,2.4055,2.5344,2.5827,2.5827,2.5827,2.5943,2.5943,-0.9497,-0.9444,-0.9205,-0.8606,-0.8467,-0.8213,-0.7569,-0.7933,-0.8984,-1.0905,-1.2981,-1.485,-1.6297,-1.7975,-1.9049,-1.9384,-1.9524,-1.8954,-1.7278,-1.6111,-1.431,-1.1582,0.0,0.0,-1.5948,-1.6759,-1.7422,-1.8112,-1.778,-1.7774,-1.8143,-1.7581,-1.7557,-1.7834,-1.7723,-1.7172,-1.6238,-1.6126,-1.4953,-1.3004,-1.2104,-1.057,-0.8854,0.0,0.0,0.0,0.0,0.0,0.0,0.0,0.0,0.0,0.0,0.0,0.0,0.0,0.0,0.0,0.0,0.0,0.0,0.0,0.0,0.0,0.0,0.0,0.0,0.0,0.0,0.0,0.0,0.0,0.0,0.0,1.1359,1.346,1.3192,1.5821,1.7254,1.6097,1.7759,1.8186,1.6117,1.6347,1.6403,1.5881,1.6163,1.6193,1.5692,1.6042,1.6844,1.8184,1.7116,1.7167,1.8735,1.8633,1.8737,1.8946,2.0607,2.1293,2.0998,2.2083,2.2393,2.2062,2.2602,2.2936,2.3305,2.3305,2.3305,2.3505,2.5192,2.4743,2.3181,2.5211,2.5943,2.5908,-0.9497,-0.9417,-0.9151,-0.8634,-0.8488,-0.8233,-0.7627,-0.818,-0.9481,-1.1852,-1.3443,-1.5233,-1.7466,-1.8415,-1.9081,-1.9535,-1.9061,-1.8201,-1.6998,-1.5388,-1.4373,0.0,0.0,-1.6707,-1.6886,-1.7985,-1.8508,-1.8329,-1.8222,-1.8311,-1.8402,-1.8402,-1.8491,-1.8669,-1.8847,-1.8545,-1.7754,-1.7541,-1.6199,-1.4014,-1.3493,-1.2129,-1.0233,-0.9128,-0.8444,-0.785,-0.6433,-0.5855,-0.5609,-0.4112,0.0,0.0,0.0,0.0,0.0,0.0,0.0,0.0,0.0,0.0,0.0,0.0,0.0,0.0,0.0,0.0,0.0,0.0,0.0,0.0,0.0,0.0,0.0,0.0,1.2182,1.4674,1.5341,1.7417,1.8658,1.7822,1.8658,1.8636,1.6989,1.6919,1.6624,1.5943,1.632,1.6549,1.6404,1.7353,1.7995,1.8378,1.8237,1.825,1.8803,1.8813,1.8967,1.912,2.0172,2.0686,2.0699,2.1135,2.1271,0.0,2.1393,2.1768,2.2398,2.2398,2.2469,0.0,0.0,0.0,0.0,0.0,2.6168,2.5644,-0.9497,-0.9309,-0.9038,-0.8656,-0.8404,-0.8091,-0.7686,-0.8406,-1.0054,-1.2943,-1.3799,-1.5446,-1.8743,-1.8894,-1.8844,-1.9213,-1.814,-1.6728,-1.5031,-1.358,0.0,-1.6486,-1.7261,-1.7743,-1.8175,-1.9308,-1.9388,-1.8523,-1.8935,-1.9118,-1.8983,-1.9293,-1.9369,-1.9288,-1.9612,-1.9595,-1.9445,-1.9037,-1.7513,-1.5399,-1.4744,-1.3269,-1.1303,-0.981,-0.9194,-0.8824,-0.7274,-0.6485,-0.6157,-0.5329,0.0,0.0,0.0,0.0,0.0,0.0,0.0,0.0,0.0,0.0,0.0,0.0,0.0,0.0,0.0,0.0,0.0,0.0,0.0,0.0,0.0,0.0,0.0,0.0,1.2385,1.493,1.6693,1.8613,1.9613,1.9006,1.8443,1.8063,1.7955,1.7039,1.6416,1.6527,1.6923,1.7213,1.7177,0.0,0.0,0.0,0.0,1.9244,1.8239,1.8349,1.8348,1.8384,1.8408,1.8432,1.8432,1.8698,1.8819,1.8831,1.906,2.0065,2.1563,2.1563,2.1867,2.2649,2.4487,2.5502,2.6004,2.7035,2.6587,0.0,-0.9523,-0.947,-0.9232,-0.8712,-0.8572,-0.8347,-0.7773,-0.8425,-1.0034,-1.3016,-1.4053,-1.5632,-1.8322,-1.9198,-1.963,-1.9699,-1.8893,-1.7553,-1.575,0.0,-1.6016,-1.7387,-1.8412,-1.8976,-1.9054,-1.9843,-1.9983,-1.9448,-1.9928,-2.0205,-2.0179,-2.0305,-2.0218,-1.9762,-2.0155,-2.0087,-1.9638,-1.9394,-1.833,-1.6669,-1.5734,-1.4014,-1.2016,-1.0758,-1.082,-1.1392,-0.9751,-0.9181,-0.8896,-0.7288,-0.6561,-0.5935,-0.412,-0.3179,0.0,0.0,0.0,0.0,0.0,0.0,0.0,0.0,0.0,0.0,0.0,0.0,0.0,0.0,0.0,0.0,0.0,0.0,0.0,1.1513,1.4256,1.6427,1.7585,1.7852,1.7998,1.8206,1.8212,1.815,1.7734,1.7452,1.7365,1.7609,1.7876,1.7962,1.7732,1.8227,1.8947,2.0021,1.9132,1.9259,2.044,1.93,1.871,1.8927,0.0,0.0,1.9253,1.9531,1.9652,1.9652,1.9712,2.0529,2.1871,2.1871,2.3477,2.5589,2.3551,2.4713,2.7563,2.6771,2.6991,2.7587,-0.9605,-0.9577,-0.9417,-0.8933,-0.8712,-0.8488,-0.8205,-0.8628,-0.987,-1.2316,-1.3111,-1.432,-1.6638,-1.7002,-1.7184,-1.7567,-1.7056,-1.6317,0.0,-1.6244,-1.7369,-1.8714,-1.9947,-2.0138,-1.9292,-2.041,-2.0625,-1.9838,-2.0492,-2.0741,-2.0829,-2.0931,-2.0729,-2.0214,-2.0382,-2.0348,-2.0001,-1.9635,-1.8645,-1.7131,-1.6111,-1.4899,-1.3445,-1.2159,-1.2026,-1.2457,-1.075,-1.0079,-0.9741,-0.8215,-0.7385,-0.6771,-0.5261,-0.4141,-0.3147,0.0,0.0,0.0,0.0,0.0,0.0,0.0,0.0,0.0,0.0,0.0,0.0,0.0,0.0,0.6446,0.7017,0.0,1.1343,1.2388,1.453,1.6253,1.6765,1.7092,1.7258,1.7287,1.7674,1.7831,1.7365,1.7726,1.7948,1.7933,1.8301,1.8432,1.8287,1.915,1.9661,1.9661,1.9661,1.9725,1.9877,1.9382,1.9145,1.9277,1.9543,1.9676,1.9688,1.982,2.0281,2.092,2.092,2.1912,2.3356,2.3392,2.4878,2.6883,2.5246,2.5735,2.7565,2.7565,2.7322,2.7283,-0.971,-0.9658,-0.9499,-0.9201,-0.8878,-0.8656,-0.8544,-0.8787,-0.9602,-1.1464,-1.1907,-1.285,-1.4854,-1.474,-1.4676,-1.5041,-1.5196,-1.5151,0.0,-1.6756,-1.8471,-2.0022,-2.1068,-2.1108,-1.9957,-2.1341,-2.1475,-2.0292,-2.1028,-2.1235,-2.1162,-2.1228,-2.0975,-2.0458,-2.0543,-2.0449,-2.0275,-1.9898,-1.8807,-1.7398,-1.6563,-1.5749,-1.4865,-1.3458,-1.2942,-1.2613,-1.0875,-0.997,-0.9323,-0.8424,-0.7716,-0.7007,-0.6116,-0.4914,-0.3581,-0.2465,-0.1897,0.0,0.0,0.0,0.0,0.0,0.0,0.0,0.0,0.56,0.5914,0.7091,0.787,0.8581,0.9154,1.0942,1.2484,1.2974,1.4489,1.5741,1.6006,1.661,1.6988,1.6821,1.7171,1.7511,1.7304,1.7924,1.8143,1.8082,1.8456,1.8758,1.8758,1.9954,2.0106,1.877,2.0144,2.017,1.8843,1.9314,1.9543,1.9555,1.9833,1.9965,1.9965,2.0014,2.0818,2.2257,2.2772,2.3837,2.5143,2.5561,2.6486,2.7567,2.7567,2.7522,2.741,2.8483,2.8022,2.697,-0.9736,-0.9684,-0.9579,-0.9232,-0.912,-0.885,-0.8319,-0.8581,-0.9362,-1.0804,-1.1371,-1.2332,-1.4076,-1.4874,-1.4899,-1.3898,-1.5853,0.0,-1.4741,-1.7605,-1.9771,-2.0682,-2.0837,-2.1326,-2.2121,-2.292,-2.2788,-2.1516,-2.2224,-2.2008,-2.0917,-2.1224,-2.0985,-2.0377,-2.072,-2.0651,-2.0275,-1.9898,-1.914,-1.8108,-1.7454,-1.6591,-1.5662,-1.443,-1.3197,-1.1992,-1.0712,-0.9358,-0.8049,-0.7863,-0.7246,-0.6229,-0.5151,-0.4337,-0.3631,-0.2264,-0.1687,-0.1417,-0.094,0.338,0.8359,1.069,0.9832,0.8253,0.0,0.7339,0.7155,0.7392,0.8076,0.8789,0.9365,1.1176,1.2791,1.3351,1.5009,1.6284,1.6573,1.6682,1.6815,1.6984,1.7286,1.7701,1.826,1.8089,1.8131,1.8582,1.8848,1.9036,1.9036,1.9188,1.9188,1.9036,1.9407,1.954,1.9374,1.9688,1.9833,1.9845,2.011,2.0231,2.0243,2.0472,2.1383,2.2862,2.5427,2.6659,2.6972,2.8345,2.8905,2.9036,2.9036,2.902,2.8986,2.9248,2.9083,2.8918,-0.9816,-0.9762,-0.9658,-0.9579,-0.9286,-0.901,-0.8762,-0.8778,-0.9001,-0.9597,-1.0133,-1.0703,-1.1383,-1.188,-1.2016,-1.1564,0.0,0.0,-1.5079,-1.8461,-2.0605,-2.076,-2.0934,-2.0936,-2.0801,-2.1325,-2.1633,-2.1609,-2.1338,-2.1862,-2.3019,-2.171,-2.1225,-2.1409,-2.0854,-2.0358,-1.9799,-1.9366,-1.8688,-1.7954,-1.7188,-1.6219,-1.5175,-1.426,-1.2772,-1.107,-1.0181,-0.8738,0.0,-0.6666,-0.5758,-0.4757,-0.4339,-0.3718,-0.2893,-0.2063,-0.1778,-0.0706,0.3319,0.5532,0.7354,1.0043,1.0006,0.9167,0.8514,0.8321,0.8556,0.947,1.0357,1.122,1.19,1.3288,1.4436,1.5045,1.5815,1.6441,1.6875,1.7056,1.731,1.7744,1.8721,1.912,1.8208,1.8216,1.858,1.8848,1.9079,1.9072,1.9072,1.9217,1.9301,1.9301,1.9567,1.9712,1.9712,2.0755,2.0894,2.0122,2.212,2.2659,2.1842,2.2779,2.406,2.5532,2.7567,2.8378,2.851,2.9036,2.9316,2.9316,2.9316,2.9316,2.9316,2.9316,2.9316,2.9316,-0.9867,-0.9762,-0.9684,-0.9736,-0.9446,-0.9174,-0.9015,-0.8854,-0.8745,-0.8684,-0.9041,-0.934,-0.9573,-0.9744,-0.9891,-0.9956,0.0,0.0,0.0,-1.8607,-2.0717,-2.1125,-2.1165,-2.0974,-2.0468,-2.0636,-2.0907,-2.1457,-2.0703,-2.1401,-2.3223,-2.148,-2.0943,-2.1415,-2.0376,-1.9679,-1.9144,-1.8598,-1.8051,-1.7518,-1.6746,-1.5745,-1.4706,-1.3809,-1.2216,-1.0366,-0.9547,-0.8095,-0.643,-0.5341,-0.4346,-0.3403,-0.3409,-0.2908,-0.223,-0.1889,-0.1652,-0.0224,0.5381,0.6645,0.6935,0.9917,1.0425,1.014,0.9665,0.9529,0.9858,1.0932,1.2129,1.316,1.3811,1.4769,1.5668,1.6199,1.6356,1.6709,1.769,1.8002,1.8495,1.9415,2.0631,2.089,1.9659,1.9461,1.9336,1.8963,1.9036,1.9108,1.9181,1.9362,1.9507,1.9579,2.0232,2.0647,2.0647,2.2231,2.2647,2.159,2.3961,2.4452,2.3502,2.4858,2.6218,2.7302,2.8642,2.9316,2.9316,2.9316,2.9316,2.9316,2.9316,2.9316,2.9316,2.9316,2.9447,2.9578,-0.9814,-0.9684,-0.9605,-0.9605,-0.955,-0.9313,-0.88,-0.8656,-0.8566,-0.8414,-0.843,-0.873,-0.9495,-0.9734,-0.9848,-0.9896,0.0,0.0,0.0,-1.774,-2.0004,-2.1975,-2.1527,-2.1675,-2.2652,-2.2145,-2.1648,-2.1191,-2.121,-2.0726,-1.9915,-1.9898,-1.9641,-1.9299,-1.899,-1.8732,-1.8456,-1.7669,-1.7186,-1.7,-1.6323,-1.5423,-1.4321,-1.3392,-1.1887,-1.0048,-0.9006,-0.7323,-0.5309,-0.4007,-0.312,-0.25,-0.2077,-0.1907,-0.1876,-0.1526,-0.1182,-0.0244,0.2995,0.5942,0.8864,1.198,1.2122,1.1627,1.1606,1.1228,1.0924,1.1151,1.2251,1.3344,1.3843,1.4769,1.5668,1.6199,1.6513,1.7315,1.9225,1.9663,2.0543,2.2491,2.2701,2.2936,0.0,2.209,2.0446,1.8836,1.8927,1.9181,1.9434,1.9458,1.9591,1.9869,2.1443,2.2378,2.2378,2.4011,2.4858,2.4858,2.5008,2.5008,2.5008,2.6486,2.7169,2.7302,2.8642,2.9316,2.9316,2.9316,2.9316,2.9316,2.9316,2.9316,2.9316,2.9316,2.9691,3.023,-0.9814,-0.9736,-0.9684,-0.9736,-0.9632,-0.9366,-0.8773,-0.885,-0.8722,-0.8089,-0.8276,0.0,0.0,0.0,0.0,0.0,0.0,0.0,0.0,-1.6898,-1.8927,-1.9354,-2.0017,-2.0391,-2.0507,-2.0289,-2.0339,-2.0592,-1.9761,-1.9889,-2.0949,-1.9377,-1.9024,-1.9714,-1.8676,-1.8161,-1.7896,-1.7201,-1.6822,-1.6474,-1.5452,-1.4489,-1.3581,-1.2107,-1.0704,-0.9203,0.0,-0.5393,-0.4217,-0.3017,-0.2241,-0.1766,-0.1636,-0.1618,-0.1528,-0.1178,-0.0697,0.0474,0.3738,0.6009,0.8147,1.1261,1.1919,1.1869,1.1676,1.1385,1.1189,1.1539,1.1727,1.1903,1.2456,1.3453,1.4616,1.5959,1.649,1.773,2.054,2.0386,2.064,2.2798,2.4085,2.4656,2.408,0.0,0.0,2.0592,1.9794,1.9374,1.9458,1.9808,2.005,2.0146,2.1726,2.2672,2.2672,2.5219,2.595,2.5008,2.595,2.6886,2.7833,2.8888,2.9299,2.9299,2.9691,2.997,2.997,2.9447,2.9316,2.9316,2.9316,2.9316,2.9333,2.9607,3.0469,3.1204,0.0,-0.9658,-0.9632,-0.9684,-0.9526,0.0,0.0,0.0,0.0,0.0,0.0,0.0,0.0,0.0,0.0,0.0,0.0,0.0,0.0,0.0,-1.7042,-1.7571,-1.8062,-1.8209,-1.7916,-1.7712,-1.7839,-1.8243,-1.8041,-1.8596,-1.9701,-1.8772,-1.8637,-1.9057,-1.8117,-1.7546,-1.7302,-1.6386,-1.5891,-1.5681,-1.4075,-1.2943,-1.2116,-1.068,-0.932,0.0,-0.5537,-0.4218,-0.3375,-0.2137,-0.1535,-0.1242,-0.125,-0.1232,-0.1123,-0.0682,-0.0199,0.0946,0.4461,0.6701,0.8695,1.1201,1.2003,1.2102,1.1905,1.155,1.1312,1.1728,1.142,1.1202,1.1734,1.2604,1.3453,1.4329,1.5163,1.6876,2.0487,2.034,2.1213,2.4611,2.602,2.6485,2.6033,2.3881,2.2208,2.18,2.0291,1.9555,1.9748,2.0086,2.0588,2.1207,2.2726,2.3774,2.4317,2.6753,2.7435,2.6486,2.7684,2.8757,2.9691,3.01,3.0361,3.023,3.01,2.997,2.997,2.9447,2.9384,2.9521,2.9521,2.9521,2.9573,3.0217,3.1052,3.157,0.0,0.0,-0.9497,0.0,0.0,0.0,0.0,0.0,0.0,0.0,0.0,0.0,0.0,0.0,0.0,0.0,0.0,0.0,0.0,0.0,0.0,-1.6433,-1.5877,-1.5452,-1.5331,-1.4785,-1.4493,-1.4444,-1.6175,-1.6704,-1.6161,-1.7852,-1.8127,-1.7088,-1.6927,-1.6669,-1.6362,-1.5039,-1.4448,-1.4337,-1.2259,-1.0935,-1.0018,-0.9053,-0.7644,-0.6112,-0.4869,-0.3738,-0.2662,-0.1492,-0.1012,-0.0849,-0.0852,-0.0816,-0.073,-0.0132,0.0282,0.1366,0.4999,0.8018,1.0536,1.1984,1.2324,1.2324,1.2334,1.1756,1.1302,1.168,1.1363,1.1144,1.1529,1.2183,1.2477,1.1976,1.3105,1.5355,1.9486,2.0145,2.2251,2.7628,2.8186,2.8349,2.91,2.6424,2.3851,2.2281,0.0,1.9736,2.0255,2.0427,2.1207,2.2806,2.4317,2.5816,2.7169,2.8642,2.9316,2.9316,2.997,3.0361,3.0361,3.0361,3.0361,3.0361,2.9709,2.9447,2.9316,2.9333,2.9556,2.9898,2.9898,3.0049,3.0235,3.1255,3.1434,3.1185,0.0,0.0,0.0,0.0,0.0,0.0,0.0,0.0,0.0,0.0,0.0,0.0,0.0,0.0,0.0,0.0,0.0,0.0,0.0,0.0,0.0,0.0,0.0,0.0,0.0,0.0,0.0,-1.385,-1.4049,-1.3916,-1.3467,-1.38,-1.38,-1.3534,-1.3065,-1.2863,-1.2796,-1.1847,-1.1505,-1.1396,-1.0166,-0.9455,-0.9031,-0.7502,-0.642,-0.5433,-0.3815,-0.2792,-0.2053,-0.128,-0.0751,-0.0379,-0.0067,0.014,0.0288,0.0672,0.2,0.3789,0.585,0.8409,1.087,1.2471,1.2557,1.2365,1.2526,1.1864,1.1035,1.0646,0.9872,0.9144,0.879,1.1071,1.3461,1.4337,1.7221,2.053,2.391,2.3832,2.4651,2.7889,2.7283,2.6923,2.7635,2.5764,2.4436,0.0,2.168,2.0134,2.0267,2.1531,2.2343,2.2819,2.5263,2.6769,2.7169,2.8642,2.9316,2.9316,2.997,3.0361,3.0361,3.1396,3.1635,3.112,3.0991,3.0602,2.9987,2.9889,3.0062,3.068,3.0663,3.1238,3.2041,3.2284,3.285,3.3476,0.0,0.0,0.0,0.0,0.0,0.0,0.0,0.0,0.0,0.0,0.0,0.0,0.0,0.0,0.0,0.0,0.0,0.0,0.0,0.0,0.0,0.0,0.0,0.0,0.0,0.0,0.0,-1.1468,-1.207,-1.2079,-1.1571,-1.2027,-1.2089,-1.1732,-1.1219,-1.1031,-1.1031,-1.0212,-0.9831,0.0,0.0,-0.7451,-0.7002,-0.5569,-0.4702,-0.4049,-0.2781,-0.1782,-0.095,-0.0241,0.0065,0.021,0.0433,0.0815,0.1373,0.1991,0.3553,0.5405,0.7158,0.9221,1.116,1.2343,1.2545,1.2395,1.1826,1.1115,1.0295,0.9615,0.8639,0.7875,0.7593,1.0288,1.2797,1.3423,1.681,2.0666,2.3891,2.3827,2.4655,2.7989,2.7563,2.7243,2.7818,2.6751,2.6121,2.6439,2.375,2.2189,2.2321,2.3283,2.4046,2.4723,2.6352,2.7567,2.8097,2.8905,2.9447,2.9709,3.0473,3.0991,3.1249,3.2038,3.226,3.2152,0.0,3.084,3.0627,3.046,3.0786,3.1345,3.1774,3.224,3.2728,3.32,3.3452,3.3666,0.0,0.0,0.0,0.0,0.0,0.0,0.0,0.0,0.0,0.0,-0.733,0.0,0.0,0.0,0.0,0.0,0.0,0.0,0.0,0.0,0.0,0.0,0.0,0.0,0.0,0.0,-0.854,-0.8537,-1.0012,-1.0415,-0.9771,-1.091,-1.1108,-1.0481,-0.9987,-0.9806,-0.9745,-0.8906,-0.8416,-0.8072,-0.6387,-0.5304,-0.4658,0.0,-0.2937,-0.2361,-0.1695,-0.0724,0.0374,0.1258,0.1342,0.1001,0.1216,0.1842,0.2762,0.3867,0.5252,0.695,0.8796,1.0399,1.1587,1.2265,1.2595,1.2344,1.0858,1.0067,0.9527,0.8666,0.7709,0.7042,0.7274,0.9696,1.163,1.1627,1.5177,1.9124,2.2662,2.3005,2.4252,2.8096,2.8321,2.8213,2.8476,2.8015,2.78,2.818,2.644,2.5218,2.5113,2.5278,2.595,2.7435,2.7435,2.8097,2.9316,2.9447,2.9709,3.0361,3.112,3.1891,3.2422,3.2549,3.2777,3.3028,0.0,0.0,3.1078,3.1185,3.1532,3.1819,3.2838,3.3138,3.3093,3.4091,3.3755,3.291,0.0,0.0,0.0,0.0,0.0,0.0,0.0,0.0,0.0,0.0,-0.7877,-0.762,0.0,0.0,0.0,0.0,0.0,0.0,0.0,0.0,0.0,0.0,0.0,0.0,0.0,-0.7606,-0.7623,-0.7801,-0.7414,-0.7189,-0.7013,-0.7056,-0.7019,-0.688,-0.6288,-0.6091,-0.6184,-0.5594,-0.5216,-0.5,-0.4314,-0.3809,-0.3435,-0.2881,0.0,0.0,-0.0089,0.0815,0.1751,0.2778,0.2914,0.2824,0.4304,0.5194,0.578,0.6876,0.8276,0.9672,1.0483,1.184,1.3101,1.3184,1.3131,1.2525,1.0896,1.026,0.9616,0.8329,0.7439,0.6972,0.6793,0.9422,1.2437,1.4851,1.9174,2.3271,2.6435,2.7427,2.8009,2.8498,2.7787,2.7144,2.6987,2.7473,2.78,2.818,2.8656,2.7999,2.5889,2.647,2.7435,2.8905,2.8905,2.9036,2.9316,2.9839,3.023,3.0361,3.1635,3.2294,3.2422,3.2912,3.3162,3.3047,3.2711,0.0,3.1114,3.2313,3.2691,3.2588,3.3311,3.3974,3.4509,3.4641,3.4183,3.3595,0.0,0.0,0.0,0.0,0.0,0.0,0.0,-0.9295,-0.9245,-0.9078,-0.8685,-0.824,-0.7854,-0.8002,-0.7883,0.0,0.0,0.0,0.0,0.0,0.0,0.0,0.0,0.0,0.0,-0.6747,-0.6676,-0.6765,0.0,-0.6016,-0.5942,-0.5653,-0.5524,-0.5437,-0.4927,-0.4647,-0.4599,-0.4091,-0.3791,-0.3626,-0.3166,-0.2752,-0.2347,0.0,0.0,0.0,0.0626,0.132,0.2083,0.2493,0.3519,0.4899,0.5947,0.672,0.7402,0.8313,0.9543,1.0839,1.1563,1.2364,1.3046,1.2956,1.2799,1.2112,0.9876,0.9407,0.8937,0.719,0.6848,0.6831,0.669,0.9357,1.2158,1.3858,1.8776,2.323,2.5629,2.7322,2.8572,2.9177,2.8905,2.8581,2.8501,2.9181,2.9787,3.029,3.0584,2.9917,2.8312,2.8213,2.8642,2.9316,2.9709,2.9839,2.9839,3.0473,3.0991,3.1377,3.2038,3.2549,3.2912,3.3292,3.3661,3.3873,3.3402,0.0,3.2464,3.3118,3.3442,3.3273,3.4165,3.4777,3.5104,3.4815,3.4241,3.3406,0.0,0.0,0.0,0.0,0.0,0.0,0.0,-0.9734,-0.9746,-0.9746,-0.9487,-0.9024,-0.8326,-0.8116,-0.7819,0.0,0.0,0.0,0.0,0.0,0.0,0.0,0.0,0.0,0.0,0.0,0.0,-0.5911,-0.5591,0.0,0.0,0.0,0.0,0.0,-0.4286,-0.4001,-0.3752,-0.3378,-0.3109,0.0,0.0,-0.1874,0.0,0.0,0.0,0.0,0.0,0.1613,0.223,0.2502,0.4117,0.6166,0.6845,0.764,0.8421,0.9112,1.0177,1.1323,1.219,1.2715,1.2867,1.2639,1.2402,1.1667,0.9056,0.8765,0.8429,0.6572,0.6464,0.6763,0.6942,0.9098,1.1197,1.229,1.6849,2.1327,2.4043,2.6243,2.8106,2.9672,3.0158,3.0272,3.0149,3.0901,3.1635,3.2294,3.1891,0.0,3.0361,2.9709,2.9316,2.9578,3.01,3.0361,3.0473,3.1249,3.1891,3.2422,3.2549,3.2931,3.3418,3.3418,3.3887,3.4687,3.3835,0.0,0.0,3.4032,3.388,3.3823,3.4832,3.5181,3.5162,3.4816,3.3975,3.2842,0.0,0.0,0.0,0.0,0.0,0.0,0.0,-1.0254,-1.0235,-1.0235,-1.0196,-0.9942,-0.9433,-0.8755,-0.8111,0.0,0.0,0.0,0.0,0.0,0.0,0.0,0.0,0.0,0.0,0.0,0.0,-0.5627,-0.4888,0.0,0.0,0.0,0.0,0.0,0.0,-0.3356,-0.2979,-0.294,0.0,0.0,0.0,0.0,0.0,0.0,0.0,0.0,0.0,0.2305,0.2742,0.4627,0.5231,0.5567,0.7676,0.8652,0.913,0.9851,1.0794,1.1894,1.2489,1.3203,1.3524,1.2545,1.2302,1.1727,0.9386,0.9015,0.8826,0.7736,0.7071,0.6942,0.7655,0.8158,0.9543,1.2657,1.482,1.8263,2.4196,2.5804,2.725,2.9578,3.0521,3.0766,3.0272,3.0901,3.1635,3.2294,0.0,0.0,3.0361,2.9709,2.9578,3.023,3.023,3.0602,3.1249,3.2038,3.2294,3.2422,3.3038,3.3292,3.3418,3.3418,3.3887,3.4687,3.4668,0.0,0.0,3.4757,3.468,3.3804,3.4483,3.4522,3.4296,3.4258,3.3348,3.2078,0.0,0.0,0.0,0.0,0.0,0.0,-1.0195,-1.0235,-1.0079,-0.9843,-0.9765,-0.9527,-0.9088,-0.8521,-0.7913,-0.7264,0.0,0.0,0.0,0.0,0.0,0.0,0.0,0.0,0.0,0.0,-0.4728,-0.4453,-0.3984,0.0,0.0,0.0,0.0,0.0,0.0,-0.2876,-0.2387,-0.2164,0.0,0.0,0.0,0.0,0.0,0.0,0.0,0.0,0.0,0.0,0.3359,0.4175,0.5062,0.5836,0.6424,0.7203,0.8259,1.0312,1.1294,1.2123,1.3696,1.4243,1.4084,1.3171,1.236,1.1293,0.939,0.8975,0.8696,0.7692,0.7522,0.7756,0.8146,0.8446,0.922,1.073,1.3239,1.6069,1.9229,2.1643,2.4152,2.7306,2.8294,2.9517,3.1283,3.1702,3.2137,3.2657,0.0,0.0,3.1635,3.0861,3.0732,3.0991,3.1377,3.1635,3.2038,3.2925,3.3309,3.3058,3.3564,3.3672,3.3418,3.3418,3.375,3.4316,3.4316,0.0,0.0,3.477,3.4906,3.4699,3.4673,3.4731,3.4793,3.4139,3.3345,3.2542,0.0,0.0,0.0,0.0,0.0,-0.9297,-1.0118,-1.0157,-0.9961,-0.9487,-0.9368,-0.9116,-0.8575,-0.8212,-0.7668,-0.6945,-0.6651,0.0,0.0,0.0,0.0,0.0,0.0,0.0,0.0,0.0,-0.4046,-0.3842,-0.3551,-0.3357,0.0,0.0,-0.2985,-0.256,0.0,0.0,0.0,0.0,0.0,0.0,0.0,0.0,0.0,0.0,0.0,0.0,0.0,0.0,0.0,0.0,0.0,0.569,0.5711,0.6117,0.7085,0.959,1.1238,1.2548,1.4216,1.5158,1.5506,1.4739,1.3262,1.1684,1.0317,0.9417,0.8612,0.772,0.7943,0.8328,0.8421,0.8695,0.9023,0.9517,1.1681,1.3955,1.5858,1.8275,2.1147,2.4597,2.5791,2.7567,3.0699,3.1996,3.2729,0.0,0.0,0.0,3.2848,3.235,3.1891,3.1635,3.2166,3.2549,3.2676,3.3591,3.3848,3.3437,3.3867,3.3848,3.3418,3.3418,3.3652,3.4082,0.0,0.0,0.0,3.4512,3.4785,3.5137,3.4687,3.4785,3.5117,3.41,3.3455,3.2838,0.0,0.0,0.0,0.0,0.0,0.0,-0.9983,-1.0079,-0.9922,-0.935,-0.9328,-0.8972,-0.8188,-0.7991,-0.7514,-0.6507,-0.6449,0.0,0.0,0.0,0.0,0.0,0.0,0.0,0.0,0.0,-0.4061,-0.4202,-0.3858,-0.3521,-0.3184,-0.2728,-0.2246,-0.182,0.0,0.0,0.0,0.0,0.0,0.0,0.0,0.0,0.0,0.0,0.0,0.0,0.0,0.0,0.0,0.0,0.0,0.0,0.0,0.6103,0.59,0.7351,1.0301,1.3178,1.354,1.5896,1.8134,1.7442,1.5152,1.3028,1.2492,1.0606,0.8861,0.8282,0.8328,0.8421,0.8567,0.858,0.8829,0.9593,0.994,1.153,1.5529,1.6778,1.8529,2.1679,2.3151,2.4986,2.7826,3.129,3.3292,0.0,0.0,0.0,3.4043,3.3652,3.3038,3.2422,3.2422,3.2676,3.3418,3.3848,3.3848,3.3437,3.3867,3.3848,3.3418,3.3418,3.3652,0.0,0.0,0.0,0.0,3.4082,3.4336,3.4668,3.4238,3.4336,3.4707,3.4313,3.3383,3.2478,0.0,0.0,0.0,0.0,0.0,0.0,0.0,-0.9527,-0.9208,-0.8439,-0.8259,-0.7967,-0.7428,-0.7152,-0.6806,-0.6305,-0.6288,0.0,0.0,0.0,0.0,0.0,0.0,0.0,0.0,0.0,-0.3583,-0.3159,-0.297,-0.2654,-0.2229,-0.2034,-0.1746,-0.1373,-0.1404,-0.1011,0.0,0.0,0.0,0.0,0.0,0.0,0.0,0.0,0.0,0.0,0.0,0.0,0.0,0.0,0.0,0.0,0.0,0.0,0.0,0.7509,0.9394,1.1532,1.2906,1.3971,1.4483,1.3572,1.2184,1.0845,1.0224,0.9321,0.8521,0.8391,0.8421,0.858,0.8685,0.8752,0.8937,0.9593,0.987,1.0726,1.2812,1.5543,1.86,2.1952,2.6665,3.0087,3.1219,0.0,0.0,0.0,0.0,0.0,3.4473,3.4375,3.4031,3.363,3.3193,3.3165,3.3418,3.3848,3.3848,3.3437,3.3867,3.3848,3.3418,3.3418,0.0,0.0,0.0,0.0,0.0,3.4199,3.4316,3.4668,3.4238,3.416,3.4238,3.356,3.2715,3.1986,0.0,0.0,0.0,0.0,0.0,0.0,0.0,-0.9121,-0.8886,-0.7946,-0.7765,-0.743,-0.676,-0.6467,-0.6143,-0.5654,-0.5562,0.0,0.0,0.0,0.0,0.0,0.0,0.0,0.0,-0.3259,-0.3017,-0.2587,-0.2473,-0.219,-0.1722,-0.1804,-0.1371,-0.0548,-0.0607,-0.0222,0.0,0.0,0.0,0.0,0.0,0.0,0.2125,0.0,0.0,0.0,0.0,0.0,0.0,0.0,0.0,0.0,0.0,0.0,0.0,0.0,0.8577,1.0007,1.2119,1.3302,1.3903,1.3215,1.1929,1.0651,1.0251,0.9246,0.8474,0.8474,0.858,0.8685,0.8804,0.8804,0.9005,0.9637,0.9942,1.0891,1.3155,1.5808,1.8889,2.2667,2.7636,3.0888,0.0,3.2401,0.0,0.0,0.0,0.0,3.4941,3.4785,3.459,3.4316,3.3887,3.3594,3.3418,3.3848,3.3848,3.3437,3.3867,3.3926,3.3672,3.3672,0.0,0.0,0.0,0.0,0.0,3.4004,3.4082,3.4414,3.3984,3.3926,3.4043,3.3514,3.2796,3.1941,0.0,0.0,0.0,0.0,0.0,0.0,0.0,-0.8777,-0.8681,-0.7732,-0.7568,-0.723,-0.625,-0.5951,-0.5476,-0.4657,0.0,0.0,0.0,0.0,0.0,0.0,0.0,0.0,-0.2801,-0.2496,-0.2343,-0.2323,-0.2291,-0.1972,-0.1461,-0.178,-0.1028,0.0513,0.0549,0.0758,0.0,0.0,0.0,0.0,0.2286,0.2353,0.0,0.0,0.0,0.0,0.0,0.0,0.0,0.0,0.0,0.0,0.0,0.0,0.0,0.0,0.0,0.0,0.0,1.3408,1.5225,1.5225,1.3453,1.1803,1.1803,1.0175,0.0,0.862,0.8738,0.8804,0.8804,0.8818,0.9072,0.9809,1.0237,1.1855,1.5761,1.7488,1.9964,2.4162,2.6822,2.8446,2.869,3.1728,0.0,0.0,0.0,0.0,3.541,3.5039,3.4785,3.4746,3.4336,3.3887,3.3418,3.3828,3.3828,3.3437,3.3828,3.4023,3.4023,3.4023,0.0,0.0,0.0,0.0,0.0,3.3594,3.3652,3.3984,3.3574,3.3652,3.3984,3.3984,3.3184,3.2152,0.0,0.0,0.0,0.0,0.0,0.0,0.0,0.0,0.0,0.0,-0.6474,-0.623,-0.5714,-0.5347,-0.4944,0.0,0.0,0.0,0.0,0.0,0.0,0.0,0.0,0.0,-0.2629,-0.2224,-0.1875,-0.1624,-0.1755,-0.129,-0.0217,-0.0043,0.0298,0.0825,0.1074,0.164,0.0,0.0,0.0,0.0,0.2937,0.2937,0.0,0.0,0.0,0.0,0.4492,0.4965,0.0,0.0,0.0,0.0,0.0,0.0,0.0,0.0,0.7752,0.8545,0.8792,0.0,1.042,1.042,0.998,0.9646,0.0,0.9369,0.8857,0.9159,0.9001,0.8857,0.8962,0.9153,0.948,0.9951,1.0657,1.2446,1.6041,2.1431,2.6592,3.0698,3.1065,3.1095,3.1439,0.0,0.0,0.0,0.0,3.5276,3.5452,3.5646,3.5566,3.5234,3.4785,3.4199,3.3437,3.3516,3.3516,3.3418,3.3535,3.3574,3.3574,3.3574,0.0,0.0,0.0,0.0,3.4043,3.3594,3.3476,3.3555,3.3457,3.3281,3.3105,3.3105,3.2189,3.099,0.0,0.0,0.0,0.0,0.0,0.0,0.0,0.0,0.0,0.0,0.0,0.0,0.0,0.0,0.0,0.0,0.0,0.0,0.0,0.0,0.0,0.0,0.0,0.0,-0.2199,-0.1923,-0.1439,-0.0782,-0.0521,-0.0087,0.0477,0.132,0.1769,0.1838,0.2034,0.2503,0.0,0.0,0.0,0.3142,0.3364,0.0,0.0,0.0,0.0,0.0,0.4808,0.5395,0.0,0.6306,0.6492,0.6691,0.0,0.0,0.0,0.0,0.7961,0.8489,0.8261,0.8393,0.8655,0.8899,0.9061,0.9316,0.9769,0.951,0.9211,0.9458,0.9159,0.891,0.9015,0.9315,0.9729,1.0194,1.2123,1.4982,1.8866,2.3079,2.7124,3.0882,3.0597,3.0723,0.0,0.0,0.0,0.0,0.0,3.551,0.0,3.5606,3.5704,3.541,3.4941,3.4375,3.373,3.3516,3.3418,3.3418,3.3418,3.3506,3.3747,3.3681,3.3934,0.0,0.0,0.0,3.4043,3.3594,3.3418,3.3418,3.3418,3.3164,3.2793,3.2793,3.2002,3.0907,0.0,0.0,0.0,0.0,0.0,0.0,0.0,0.0,0.0,0.0,0.0,0.0,0.0,0.0,0.0,0.0,0.0,0.0,0.0,0.0,0.0,0.0,0.0,-0.1969,-0.1505,-0.1354,-0.084,0.0129,0.095,0.1295,0.1207,0.2483,0.3073,0.3064,0.3135,0.3317,0.0,0.0,0.3521,0.3593,0.37,0.0,0.0,0.0,0.0,0.0,0.0,0.0,0.0,0.6848,0.7093,0.7336,0.8031,0.0,0.0,0.0,0.0,0.0,0.8527,0.8937,0.9402,0.9353,0.9532,0.9821,1.0423,1.0167,0.9769,0.9769,0.942,0.9173,0.9228,0.9533,0.9967,1.0567,1.4321,1.8634,2.2933,2.4489,2.6264,2.9254,2.902,0.0,0.0,0.0,0.0,0.0,0.0,3.5467,0.0,3.5604,3.5549,3.5451,3.4945,3.4498,3.4277,3.3711,3.3418,3.3418,3.3496,3.3778,3.4197,3.4109,3.4342,0.0,0.0,0.0,3.3945,3.3574,3.3418,3.3418,3.3418,3.3125,3.2695,3.2695,3.2148,3.1307,0.0,0.0,0.0,0.0,0.0,0.0,0.0,0.0,0.0,0.0,0.0,0.0,0.0,0.0,0.0,0.0,0.0,0.0,0.0,0.0,0.0,0.0,0.0,-0.113,-0.0518,-0.0133,0.0461,0.1176,0.1716,0.225,0.283,0.3532,0.3818,0.3768,0.3859,0.3913,0.3955,0.4137,0.4155,0.4038,0.4339,0.0,0.0,0.0,0.0,0.0,0.0,0.0,0.0,0.6975,0.7467,0.7833,0.8051,0.0,0.0,0.0,0.0,0.0,0.8683,1.119,1.3238,1.0664,1.0019,1.0167,1.1099,1.0931,1.0576,1.049,1.0131,0.9896,1.0141,1.0246,1.0654,1.1677,1.7449,2.2894,2.6117,2.9381,3.1741,3.2622,0.0,0.0,0.0,0.0,0.0,0.0,0.0,0.0,0.0,3.5781,3.5831,3.5477,3.5007,3.47,3.4643,3.3875,3.3418,3.3418,3.3789,3.4043,3.416,3.4101,3.4141,0.0,0.0,3.3516,3.3516,3.3457,3.3418,3.3418,3.3418,3.2949,3.2266,3.2266,3.1599,3.0488,0.0,0.0,0.0,0.0,0.0,0.0,0.0,0.0,0.0,0.0,0.0,0.0,0.0,0.0,0.0,0.0,0.0,0.0,0.0,0.0,0.0,0.0,0.0,0.0,0.0302,0.0968,0.1521,0.2018,0.2951,0.3516,0.3811,0.4238,0.4401,0.435,0.4365,0.4372,0.4318,0.446,0.4603,0.4756,0.0,0.0,0.0,0.0,0.0,0.0,0.0,0.0,0.0,0.0,0.7971,0.8383,0.8991,0.0,0.0,0.0,0.0,0.0,0.9482,1.0864,1.251,1.3561,1.5042,1.6437,1.7287,1.6715,1.5514,1.4026,1.313,1.2149,1.0913,1.2273,1.5063,1.9462,2.1933,2.4486,2.7933,2.8576,2.9611,0.0,0.0,0.0,0.0,0.0,0.0,0.0,0.0,0.0,0.0,0.0,3.5774,3.5527,3.5215,3.5066,3.4835,3.4401,3.4121,3.4101,3.3287,3.3402,3.4154,3.3005,3.3058,3.3785,0.0,3.3418,3.3418,3.3418,3.3418,3.3418,3.3418,3.3047,3.2461,3.1852,3.1065,3.0462,0.0,0.0,0.0,0.0,0.0,0.0,0.0,0.0,0.0,0.0,0.0,0.0,0.0,0.0,0.0,0.0,0.0,0.0,0.0,0.0,0.0,0.0,0.0,0.0,0.1008,0.1754,0.2407,0.2913,0.3962,0.4598,0.48,0.518,0.5237,0.5025,0.4969,0.4882,0.4788,0.4828,0.5074,0.5435,0.0,0.0,0.0,0.0,0.0,0.0,0.0,0.0,0.0,0.0,0.0,0.0,0.0,0.0,0.0,0.9709,0.9785,0.9879,1.033,1.1093,1.2601,1.6106,1.8196,1.9902,2.2059,2.1038,1.9301,1.7921,1.6874,1.5464,1.2813,1.4815,1.8825,2.4887,2.5419,2.6256,2.9792,2.854,2.8728,3.2334,0.0,0.0,0.0,0.0,0.0,0.0,0.0,0.0,0.0,0.0,3.5706,3.5416,3.5281,3.5139,3.4854,3.4776,3.477,3.4687,3.3011,3.2821,3.3937,3.1946,3.1911,3.3253,3.2995,3.3107,3.3281,3.3281,3.3281,3.3281,3.3281,3.3027,3.2416,3.118,3.0515,3.0238,0.0,0.0,0.0,0.0,0.0,0.0,0.0,0.0,0.0,0.0,0.0,0.0,0.0,0.0,0.0,0.0,0.0,0.0,0.0,0.0,0.0,0.0,0.0,0.0,0.0,0.2042,0.2917,0.418,0.4375,0.5069,0.6186,0.6706,0.6609,0.6003,0.5927,0.5713,0.534,0.5524,0.5683,0.578,0.5906,0.0,0.0,0.0,0.0,0.0,0.0,0.0,0.0,0.0,0.0,0.0,0.0,0.0,0.9672,1.0195,1.0312,1.0332,1.076,1.376,1.6859,1.7185,1.4979,1.4483,2.0973,2.0009,1.8444,2.0773,2.104,2.0048,1.7153,1.7476,1.9164,2.2258,2.6225,2.9892,3.2819,0.0,3.4572,0.0,0.0,0.0,0.0,0.0,0.0,0.0,0.0,0.0,0.0,0.0,0.0,3.499,3.5012,3.5003,3.4883,3.4846,3.4835,3.4707,3.3591,3.3083,3.3101,3.1313,3.1255,3.2574,3.1782,3.203,3.2832,3.2832,3.2832,3.2832,3.2832,3.2455,3.1623,3.0401,2.9842,2.9487,0.0,0.0,0.0,0.0,0.0,0.0,0.0,0.0,0.0,0.0,0.0,0.0,0.0,0.0,0.0,0.0,0.0,0.0,0.0,0.0,0.0,0.0,0.0,0.2514,0.2857,0.3222,0.3774,0.4547,0.5614,0.6528,0.7291,0.7252,0.6912,0.6358,0.6051,0.5917,0.5828,0.5679,0.6049,0.6658,0.6648,0.6837,0.0,0.0,0.0,0.0,0.0,0.0,0.0,0.0,0.8587,0.9048,0.9583,0.9879,1.0172,1.0446,1.0705,1.1025,1.1402,1.4573,1.7778,1.7673,1.7148,1.8246,2.4086,2.4029,2.3019,2.4033,2.4206,2.3434,2.12,2.2953,2.5121,2.6321,3.0286,3.3435,3.449,3.5154,0.0,0.0,0.0,0.0,0.0,0.0,0.0,0.0,0.0,0.0,0.0,0.0,0.0,3.5332,3.5614,3.5616,3.5333,3.547,3.5588,3.5527,3.292,3.2194,3.2637,3.0174,2.9986,3.1781,3.1708,3.226,3.3164,3.291,3.2793,3.2773,3.2273,3.1815,3.1237,3.0408,2.9961,2.9804,0.0,0.0,0.0,0.0,0.0,0.0,0.0,0.0,0.0,0.0,0.0,0.0,0.0,0.0,0.0,0.0,0.0,0.0,0.0,0.2503,0.0,0.0,0.0,0.3269,0.349,0.4205,0.48,0.5132,0.6755,0.767,0.7902,0.7758,0.7322,0.6661,0.6436,0.6399,0.6487,0.6104,0.6514,0.739,0.7238,0.7303,0.0,0.0,0.0,0.0,0.0,0.0,0.0,0.0,0.8513,0.9126,0.9387,0.9926,1.0505,1.0621,1.1125,1.1695,1.1958,1.4195,1.6758,1.7968,1.8708,2.061,2.6169,2.6228,2.5594,2.7525,2.716,2.611,2.4948,2.6918,2.8794,2.9293,3.2824,3.548,3.5625,0.0,0.0,0.0,0.0,0.0,0.0,0.0,0.0,0.0,0.0,0.0,0.0,0.0,0.0,0.0,3.5914,3.5893,3.5626,3.5879,3.5957,3.5936,3.3139,3.2028,3.2043,2.922,2.8774,3.003,3.0562,3.1579,3.2719,3.2591,3.2519,3.2099,3.1462,3.1104,3.0804,3.0027,2.9758,2.9601,0.0,0.0,0.0,0.0,0.0,0.0,0.0,0.0,0.0,0.0,0.0,0.0,0.0,0.0,0.0,0.0,0.0,0.0,0.2029,0.235,0.2371,0.213,0.3182,0.3609,0.3211,0.4874,0.5857,0.6131,0.7677,0.8228,0.7936,0.8393,0.8063,0.7122,0.7247,0.7327,0.7377,0.6901,0.7169,0.7876,0.7621,0.748,0.751,0.0,0.0,0.0,0.0,0.0,0.0,0.0,0.8198,0.9207,0.8826,0.9565,1.0621,1.0774,1.151,1.2297,1.2297,1.2711,1.406,1.8107,1.8731,2.0053,2.6385,2.5525,2.5168,3.114,2.9992,2.791,2.8304,2.8641,2.9062,2.9937,3.3048,3.5604,0.0,0.0,0.0,0.0,0.0,0.0,0.0,0.0,0.0,0.0,0.0,0.0,0.0,0.0,0.0,0.0,3.5895,3.6031,3.6016,3.6016,3.5916,3.5884,3.452,3.2833,3.0909,2.8799,2.7486,2.7121,2.8336,2.9726,3.1199,3.1886,3.1774,3.0888,3.0306,3.0083,3.0027,2.926,2.8975,2.8856,0.0,0.0,0.0,0.0,0.0,0.0,0.0,0.0,0.0,0.0,0.0,0.0,0.0,0.0,0.0,0.0,0.0,0.0,0.2053,0.2381,0.263,0.2737,0.3281,0.3904,0.4515,0.5957,0.693,0.7374,0.8242,0.8748,0.8834,0.8681,0.8282,0.774,0.7488,0.7598,0.7911,0.7253,0.7579,0.8484,0.7886,0.7647,0.7647,0.0,0.0,0.0,0.0,0.0,0.0,0.0,0.0,0.0,0.9066,0.9663,1.0511,1.1121,1.177,1.234,1.2468,1.6751,2.0973,2.0074,2.3685,2.7779,2.8798,2.8723,2.9602,3.3503,3.2559,3.075,2.9359,3.1236,3.2428,3.0682,3.3598,3.5947,0.0,0.0,0.0,0.0,0.0,0.0,0.0,0.0,0.0,0.0,0.0,0.0,0.0,0.0,0.0,0.0,3.6857,3.7268,3.7099,3.6375,3.6003,3.6282,3.5023,3.35,3.1648,2.9241,2.8256,2.8336,2.8734,2.9744,3.0851,3.1455,3.0969,2.9974,2.9755,2.9517,2.9278,2.8792,2.8636,2.8517,0.0,0.0,0.0,0.0,0.0,0.0,0.0,0.0,0.0,0.0,-0.077,-0.0569,0.0,0.0,0.0,0.0,0.0,0.0,0.2347,0.2585,0.2887,0.3226,0.3809,0.4568,0.5579,0.686,0.7711,0.8082,0.8525,0.8841,0.8939,0.9142,0.8946,0.85,0.8568,0.8779,0.9041,0.8444,0.8462,0.8835,0.841,0.8036,0.7733,0.0,0.0,0.0,0.0,0.0,0.0,0.0,0.0,0.0,0.9141,0.9531,1.0072,1.1191,1.1958,1.2869,1.4767,1.8839,2.2911,2.4279,2.7595,3.0891,3.2208,3.2159,3.2293,3.4469,3.4104,3.3073,3.1943,3.3546,0.0,3.2833,0.0,0.0,0.0,0.0,0.0,0.0,0.0,0.0,0.0,0.0,0.0,0.0,0.0,0.0,0.0,0.0,0.0,0.0,3.7034,3.7496,3.7616,3.6636,3.605,3.6153,3.5087,3.3367,3.134,2.9342,2.8213,2.7822,2.8668,2.9847,3.1009,3.1482,3.0895,2.945,2.9331,2.9094,2.8755,2.8517,2.8397,2.8259,0.0,0.0,0.0,0.0,0.0,0.0,0.0,0.0,0.0,-0.0167,0.0638,0.1177,0.0,0.0,0.0,0.2091,0.2153,0.2347,0.2819,0.2919,0.3147,0.3646,0.4577,0.5516,0.6442,0.7475,0.8157,0.8456,0.8729,0.8807,0.8735,0.9751,0.9895,0.9354,1.0098,1.0418,1.0376,1.0045,0.9617,0.916,0.9084,0.856,0.7903,0.8218,0.0,0.0,0.0,0.0,0.0,0.0,0.0,0.0,0.9204,0.9305,0.9484,1.1067,1.2284,1.4002,1.8238,1.994,2.2212,2.9757,3.0722,3.1148,3.6078,3.5375,3.3892,3.4604,3.4977,3.5019,3.5061,3.5333,3.5616,0.0,0.0,0.0,0.0,0.0,0.0,0.0,0.0,0.0,0.0,0.0,0.0,0.0,0.0,0.0,0.0,0.0,0.0,0.0,3.6913,3.7233,3.7421,3.6668,3.5942,0.0,3.442,3.2709,3.041,2.9305,2.7805,2.6247,2.8114,2.9814,3.1326,3.1663,3.0955,2.945,2.9213,2.8856,2.8755,2.8636,2.8397,2.8259,0.0,0.0,0.0,0.0,0.0,0.0,0.0,0.0,0.047,0.0906,0.1483,0.189,0.189,0.1885,0.0,0.262,0.262,0.2712,0.3076,0.3232,0.3531,0.4141,0.5174,0.6089,0.6856,0.7213,0.7964,0.9116,0.9535,0.9925,1.0303,1.0488,0.0,1.022,1.0347,1.0453,1.0446,1.0045,1.0069,1.0219,0.909,0.8804,0.8956,0.8193,0.8034,0.0,0.0,0.0,0.0,0.0,0.0,0.0,0.9385,0.935,0.9278,1.1365,1.435,1.7339,1.8873,2.4165,2.9809,3.204,3.37,3.5208,3.6799,3.5765,3.4971,3.6723,3.6241,3.5478,3.5487,3.5788,0.0,0.0,0.0,0.0,0.0,0.0,0.0,0.0,0.0,0.0,0.0,0.0,0.0,0.0,0.0,0.0,0.0,0.0,0.0,3.6542,3.7461,3.753,3.6383,3.5491,3.4487,0.0,3.2581,3.1853,3.0915,2.9073,2.7267,2.5756,2.7107,2.8415,2.9543,3.0389,3.0351,2.9804,2.9431,2.9785,3.0255,2.9213,2.9094,2.9331,0.0,0.0,0.0,0.0,0.0,0.0,0.0,0.0,0.1141,0.1613,0.1919,0.2192,0.2359,0.2387,0.0,0.0,0.2812,0.2845,0.3175,0.3357,0.3887,0.4865,0.5625,0.6333,0.6935,0.7679,0.8549,0.9537,1.037,1.0721,1.0646,1.1139,0.0,1.1025,1.1168,1.1311,1.143,1.1078,1.0957,1.0818,1.019,0.9559,0.8965,0.8639,0.8441,0.8337,0.8186,0.0,0.0,0.0,0.0,0.0,0.0,0.0,0.8733,1.1342,1.3439,1.6017,2.0991,2.582,3.0315,3.4219,3.5519,3.6068,3.6575,3.5695,3.5359,3.7132,3.6857,3.629,3.6273,0.0,0.0,0.0,0.0,0.0,0.0,0.0,0.0,0.0,0.0,0.0,0.0,0.0,0.0,0.0,0.0,0.0,0.0,3.6031,3.5859,3.4988,3.5588,3.5432,3.4425,3.344,3.2668,3.2188,3.0972,2.9672,2.8251,2.7815,2.6977,2.6017,2.5984,2.6712,2.7811,2.8426,2.8801,2.8801,2.9076,2.9549,2.9785,2.9076,2.8856,2.8975,0.0,0.0,0.0,0.0,0.0,0.0,0.0,0.0,0.0,0.2247,0.2281,0.2414,0.2746,0.2779,0.2911,0.0,0.0,0.0,0.334,0.3626,0.4328,0.549,0.6005,0.6488,0.7016,0.8315,0.9312,0.9992,1.1085,1.1315,1.0664,1.1645,1.19,1.1556,1.1959,1.2211,1.2319,1.2175,1.1837,1.1351,1.1355,1.0508,0.9205,0.939,0.9177,0.8751,0.872,0.8569,0.8376,0.8337,0.0,0.0,0.0,0.0,0.8198,1.1215,1.2222,1.4125,2.2286,2.5987,2.9229,3.6315,3.6867,3.5749,3.6424,3.5639,3.523,3.6816,3.7246,3.7282,0.0,0.0,0.0,0.0,0.0,0.0,0.0,0.0,0.0,0.0,0.0,0.0,0.0,0.0,0.0,0.0,0.0,0.0,3.4967,3.4436,3.3872,3.3156,3.3138,3.2716,3.2097,3.1294,3.0991,3.1034,2.9456,2.7487,2.5345,2.6389,2.6438,2.5912,2.5269,2.5497,2.6608,2.7331,2.7692,2.8033,2.8957,2.9331,2.945,2.8957,2.8719,2.86,0.0,0.0,0.0,0.0,0.0,0.0,0.0,0.0,0.0,0.0,0.3043,0.3076,0.3142,0.3142,0.3142,0.3208,0.3307,0.356,0.3941,0.0,0.0,0.5331,0.6057,0.6784,0.7472,0.8481,0.9584,1.075,1.1501,1.165,1.1308,1.1835,1.1848,1.1365,1.1942,1.1966,1.1686,1.2142,1.2366,1.2223,1.1326,1.1153,1.1375,1.048,0.9805,0.9348,0.9801,0.9596,0.9015,0.8601,0.8294,0.0,0.0,0.0,0.8198,1.1215,1.4213,1.709,1.9193,2.5597,3.2935,3.8265,3.7831,3.6513,3.7791,3.6415,3.5138,0.0,3.7176,3.7473,0.0,0.0,0.0,0.0,0.0,0.0,0.0,0.0,0.0,0.0,0.0,0.0,0.0,0.0,0.0,0.0,0.0,0.0,3.4544,3.3721,3.3302,3.3156,3.2884,3.1783,2.9857,3.0248,2.9573,2.7758,2.8044,2.7258,2.558,2.5402,2.4749,2.3713,2.5774,2.6745,2.7125,2.9057,3.0138,3.047,3.0255,3.0743,3.1325,3.0509,3.0255,3.049,0.0,0.0,0.0,0.0,0.0,0.0,0.0,0.0,0.0,0.0,0.0,0.3241,0.3372,0.3536,0.3667,0.3756,0.3918,0.4135,0.4424,0.503,0.5533,0.5937,0.6518,0.7191,0.793,0.8345,0.915,1.0344,1.0681,1.0916,1.1069,1.1335,1.1279,1.1027,1.1571,1.1825,1.1804,1.2224,1.2508,1.2672,1.2111,1.3032,1.44,1.1467,1.1339,1.2397,1.0109,0.9079,0.8811,0.8881,0.8618,0.8518,0.9827,0.0,0.0,0.0,1.2639,1.5053,2.1479,2.804,3.4153,3.8863,3.8846,3.7603,3.7565,3.6618,3.584,3.6346,3.6974,0.0,0.0,0.0,0.0,0.0,0.0,0.0,0.0,0.0,0.0,0.0,0.0,0.0,0.0,0.0,0.0,0.0,0.0,3.3411,3.3109,3.2456,3.1548,3.0806,3.0652,2.9615,2.7877,2.8077,2.7727,2.6487,2.7713,2.7003,2.4548,2.5151,2.4456,2.2856,2.3698,2.4532,2.5391,2.6849,2.817,2.9493,3.002,3.0509,3.0976,3.0138,2.9903,3.002,0.0,0.0,0.0,0.0,0.0,0.0,0.0,0.0,0.0,0.0,0.0,0.3372,0.3658,0.0,0.0,0.0,0.436,0.4552,0.4776,0.5363,0.5952,0.6488,0.7071,0.7656,0.8178,0.8474,0.8983,0.9736,0.9991,1.0238,1.0468,1.0564,1.0564,1.0522,1.1087,1.15,1.1777,1.2138,1.2495,1.2934,1.3803,1.5427,1.6923,1.3591,1.3763,1.5235,1.1034,0.9349,0.9174,0.9368,0.9108,0.8886,1.0064,0.977,0.0,0.0,0.0,1.2859,2.2153,2.71,3.1176,3.7236,3.7685,3.6882,3.7333,3.675,3.6074,0.0,0.0,0.0,0.0,0.0,0.0,0.0,0.0,0.0,0.0,0.0,0.0,0.0,0.0,0.0,0.0,0.0,0.0,0.0,0.0,3.2273,3.1827,3.1203,3.0276,2.8818,2.8858,2.8057,2.6665,2.6616,2.652,2.6238,2.7487,2.6554,2.3479,2.4579,2.3961,2.1853,2.223,2.3076,2.4286,2.5391,2.6849,2.8527,2.9549,3.0039,3.0157,2.9667,2.9431,2.9431,0.0,0.0,0.0,0.0,0.0,0.0,0.0,0.0,0.0,0.0,0.0,0.3658,0.4113,0.4178,0.421,0.421,0.4436,0.4724,0.5061,0.5998,0.6565,0.6595,0.7598,0.0,0.8206,0.9253,0.9614,0.9252,1.0081,1.014,0.9574,0.9707,0.9733,0.9698,1.0534,1.0979,1.1089,1.1679,1.2217,1.3047,1.6622,1.8185,1.8261,1.7781,1.7364,1.6559,1.3208,1.1514,1.0788,1.0254,0.9904,0.9735,0.9968,0.9243,0.8751,0.0,0.0,0.0,1.7814,1.9452,2.2091,3.2096,3.3034,3.2646,3.7563,3.7095,3.5527,3.5548,0.0,0.0,0.0,0.0,0.0,0.0,0.0,0.0,0.0,0.0,0.0,0.0,0.0,0.0,0.0,0.0,0.0,0.0,0.0,3.1311,3.0475,3.0393,2.9871,2.8818,2.875,2.8061,2.666,2.6628,2.6536,2.6612,2.7,2.57,2.3201,2.3574,2.2201,1.9954,2.3076,2.444,2.481,2.7263,2.8361,2.86,2.9568,2.9922,2.9922,2.9922,2.9686,2.9568,0.0,0.0,0.0,0.0,0.0,0.0,0.0,0.0,0.0,0.0,0.0,0.0,0.0,0.4596,0.4672,0.4608,0.496,0.5277,0.5467,0.6168,0.6686,0.6837,0.7763,0.8333,0.8529,0.8801,0.9092,0.939,0.9409,0.9315,0.9095,0.9169,0.9169,0.9118,1.0016,1.0684,1.1104,1.1729,1.2271,1.3118,1.6997,2.0034,2.1876,1.87,2.0398,2.3541,1.6825,1.4369,1.4284,1.4317,1.2804,1.0888,1.0921,1.0402,1.0008,1.0781,1.0942,1.2018,1.7147,1.9023,2.0885,2.6911,3.0803,3.3038,3.2901,3.501,3.6673,3.5572,0.0,0.0,0.0,0.0,0.0,0.0,0.0,0.0,0.0,0.0,0.0,0.0,0.0,0.0,0.0,0.0,0.0,0.0,0.0,0.0,2.909,2.9437,2.8939,2.7504,2.6938,2.6283,2.5596,2.6088,2.6602,2.7353,2.7339,2.6026,2.3384,2.4052,2.2577,1.9699,2.1587,2.2827,2.3668,2.504,2.6641,2.8224,2.8582,2.9194,2.9922,2.9686,2.9568,2.9568,0.0,0.0,0.0,0.0,0.0,0.0,0.0,0.0,0.0,0.4415,0.0,0.0,0.0,0.0,0.4791,0.4853,0.5242,0.5561,0.5701,0.6352,0.6807,0.6987,0.7898,0.8516,0.869,0.8699,0.8863,0.9233,0.9047,0.8922,0.8899,0.8819,0.8896,0.9094,0.9601,1.0298,1.1111,1.1599,1.2192,1.3252,1.8426,2.1797,2.3524,2.0627,2.2433,2.5563,1.8967,1.6598,1.6787,1.8274,1.7145,1.4914,1.3719,1.2234,1.0967,1.0967,1.0837,1.148,1.5033,1.6518,1.8031,2.2149,2.6193,2.9299,2.9786,3.2544,3.5015,3.4949,0.0,0.0,0.0,0.0,0.0,0.0,0.0,0.0,0.0,0.0,0.0,0.0,0.0,0.0,0.0,0.0,0.0,0.0,0.0,0.0,2.7302,2.7663,2.7305,2.574,2.5042,2.466,2.479,2.5525,2.6391,2.7554,2.7679,2.64,2.372,2.426,2.2708,1.972,2.049,2.1303,2.2438,2.3435,2.5178,2.7263,2.7504,2.848,2.9568,2.945,2.9331,2.9331,0.0,0.0,0.0,0.0,0.0,0.0,0.0,0.0,0.4036,0.4046,0.0,0.0,0.0,0.0,0.0,0.4952,0.5317,0.5547,0.5655,0.6488,0.6969,0.6987,0.8013,0.8628,0.869,0.9074,0.9103,0.0,0.0,0.0,0.0,0.8688,0.8953,0.9581,0.9243,0.9833,1.1087,1.1333,1.1947,1.3484,2.0965,2.356,2.2968,2.3978,2.3579,2.2262,1.9761,1.8478,1.8396,2.1895,0.0,0.0,1.8159,1.4481,1.1478,1.1478,1.108,1.0787,0.0,0.0,0.0,1.7846,1.905,2.0914,2.8468,2.982,3.0296,3.3627,0.0,0.0,0.0,0.0,0.0,0.0,0.0,0.0,0.0,0.0,0.0,0.0,0.0,0.0,0.0,0.0,0.0,0.0,0.0,2.8138,2.5102,2.5221,2.489,2.3896,2.3215,2.335,2.4407,2.5171,2.6064,2.7222,2.7714,2.6647,2.4042,2.3912,2.2586,2.0017,2.0005,2.0373,2.1122,2.2591,2.407,2.57,2.6658,2.7882,2.8975,2.8975,2.8975,2.8975,0.0,0.0,0.0,0.0,0.0,0.434,0.4434,0.4808,0.5152,0.0,0.0,0.0,0.5812,0.5516,0.5287,0.5232,0.5187,0.5164,0.5267,0.585,0.634,0.6626,0.752,0.8156,0.8467,0.8833,0.9112,0.0,0.0,0.0,0.0,0.0,0.885,0.9022,0.8973,0.9756,1.1087,1.1333,1.2168,1.3974,2.0989,2.4068,0.0,0.0,0.0,0.0,0.0,2.5987,2.6166,0.0,2.4262,1.9245,1.4885,1.2399,1.1115,1.0977,1.0629,1.0329,1.0564,0.0,0.0,0.0,0.0,0.0,0.0,0.0,2.7355,3.0122,0.0,0.0,0.0,0.0,0.0,0.0,0.0,0.0,0.0,0.0,0.0,0.0,0.0,0.0,0.0,0.0,0.0,0.0,2.9977,2.8757,2.512,2.353,2.2899,2.3079,2.3686,2.3778,2.3242,2.4228,2.5261,2.6355,2.5287,2.4627,2.4364,2.336,2.2304,2.1437,2.0472,2.0098,2.0386,2.2048,2.3698,2.5301,2.652,2.7882,2.8975,2.8975,2.8975,2.8975,0.0,0.0,0.4145,0.4145,0.4427,0.4672,0.4842,0.5286,0.5685,0.0,0.0,0.0,0.5985,0.0,0.5785,0.5491,0.5399,0.5311,0.5264,0.5694,0.6019,0.6172,0.7134,0.784,0.8241,0.8668,0.9128,0.9577,0.0,0.0,0.0,0.0,0.0,0.9093,0.9022,0.978,1.1142,1.1523,1.243,1.422,2.1303,0.0,0.0,2.8255,3.0623,0.0,0.0,0.0,2.9504,3.1368,2.7213,0.0,1.7542,1.4161,1.1248,1.1137,1.0656,1.024,1.033,1.0586,1.0852,1.0932,0.0,0.0,1.9169,2.2173,2.5707,0.0,0.0,0.0,0.0,0.0,0.0,0.0,0.0,0.0,0.0,0.0,0.0,0.0,0.0,0.0,0.0,0.0,0.0,0.0,2.9239,2.7889,2.3757,2.2295,2.1283,2.0872,2.2067,2.2472,2.1829,2.2472,2.3539,2.5071,2.4716,2.4303,2.3898,2.3595,2.2791,2.1473,2.0535,2.0216,2.0383,2.1706,2.3392,2.5154,2.68,2.8237,2.9349,2.9287,2.9112,2.9094,0.0,0.0,0.4812,0.4844,0.5064,0.5248,0.533,0.5614,0.5851,0.0,0.6115,0.0,0.5856,0.6029,0.0,0.0,0.5663,0.5578,0.5504,0.5763,0.5876,0.5805,0.6868,0.7618,0.7935,0.8529,0.9019,0.9417,0.0,0.0,0.0,0.0,0.0,0.9393,0.9217,0.9797,1.1041,1.1793,1.2937,1.4799,2.1915,2.4253,0.0,0.0,3.0335,2.9545,3.1008,3.098,3.0589,3.3922,3.0423,0.0,0.0,1.7983,1.2786,1.1819,1.1267,1.0885,1.043,1.0427,1.0571,1.0753,1.1242,0.0,1.9771,2.1441,2.3633,0.0,0.0,0.0,0.0,0.0,0.0,0.0,0.0,0.0,0.0,0.0,0.0,0.0,0.0,0.0,0.0,3.0002,2.9207,2.7269,2.7621,2.6374,2.2758,2.1752,2.0613,1.8902,1.9847,2.0379,2.0515,2.0392,2.1447,2.3301,2.4877,2.4657,2.2819,2.4181,2.3378,2.0984,2.0564,2.0392,2.0564,2.1563,2.3177,2.5345,2.7319,2.8745,2.9759,2.966,2.9495,2.9179,0.4832,0.4832,0.4876,0.5151,0.5332,0.5484,0.5663,0.6117,0.6481,0.6565,0.6702,0.6786,0.6733,0.6282,0.5835,0.5566,0.4955,0.4819,0.532,0.5352,0.5681,0.6401,0.6897,0.7314,0.7666,0.8119,0.8488,0.8795,0.8795,0.8795,0.0,0.0,0.0,0.8795,0.9107,0.9619,1.0309,1.1542,1.434,1.8232,2.2553,2.452,2.5518,3.186,3.4315,3.4474,3.5491,3.5469,3.4722,3.2388,3.0555,2.8017,0.0,1.9923,1.9532,1.3107,1.2833,1.396,1.0772,1.0077,1.0289,1.0717,1.0929,0.0,1.3306,1.4023,1.5478,0.0,2.1159,0.0,0.0,0.0,0.0,0.0,0.0,0.0,0.0,0.0,0.0,0.0,0.0,0.0,0.0,0.0,2.8619,2.8128,2.7435,2.7125,2.7142,2.335,2.1952,2.3567,2.1449,2.0921,2.1988,2.0859,2.0859,2.1854,2.2231,2.2525,2.2819,2.3092,2.2929,2.2316,2.0897,2.0233,2.0195,2.1726,2.3507,2.5313,2.6769,2.8499,3.0062,3.0112,2.9855,2.9441,0.5119,0.5087,0.5171,0.5478,0.5591,0.5707,0.5996,0.64,0.6574,0.6391,0.6428,0.6439,0.6349,0.6081,0.5809,0.5602,0.5198,0.5122,0.5467,0.5598,0.5826,0.6176,0.6572,0.6957,0.7325,0.7649,0.8038,0.8551,0.86,0.86,0.86,0.0,0.0,0.8752,0.889,0.9431,1.028,1.1551,1.449,1.8678,2.339,0.0,2.8875,3.4199,3.6199,3.6168,3.6521,3.6614,3.6015,3.3696,3.0696,0.0,2.4423,2.2173,1.9725,1.5277,1.507,1.5436,1.132,1.0364,1.0506,1.0525,1.0721,0.0,0.0,1.4154,1.5401,1.8846,2.0051,2.1116,0.0,0.0,0.0,0.0,0.0,0.0,0.0,0.0,0.0,0.0,0.0,0.0,0.0,0.0,2.8014,2.8219,2.6959,2.6388,2.6849,2.4592,2.3164,2.2724,2.1819,2.0977,2.0319,2.0307,2.0637,2.1437,2.302,2.337,2.2605,2.3433,2.3025,2.1543,2.0872,2.0243,2.0026,2.1965,2.3666,2.5311,2.7024,2.8881,3.052,3.0571,3.0244,2.9901,0.5322,0.5309,0.5422,0.5732,0.578,0.5881,0.6265,0.6566,0.664,0.6206,0.6211,0.6099,0.5759,0.5783,0.577,0.5634,0.5472,0.5504,0.5771,0.5896,0.5963,0.6056,0.6353,0.6684,0.6969,0.7281,0.7688,0.8178,0.8312,0.8361,0.8282,0.8037,0.8212,0.8694,0.9297,0.986,1.0506,1.2191,1.5143,1.9065,0.0,2.8167,3.1662,3.548,3.6666,3.626,3.6111,3.5966,3.5861,3.4551,3.0398,2.5901,2.6723,2.3864,1.9684,1.6814,1.6921,1.6928,1.2037,1.0868,1.0957,1.0605,1.0723,1.1618,0.0,0.0,0.0,0.0,0.0,0.0,0.0,0.0,0.0,0.0,0.0,0.0,0.0,0.0,0.0,0.0,0.0,0.0,0.0,0.0,2.727,2.7872,2.6529,2.5766,2.5898,2.5708,2.4375,2.1625,2.2168,2.1411,1.9189,2.0402,2.1073,2.1424,2.4349,2.4363,2.2002,2.377,2.2917,2.0219,2.0533,2.034,1.9954,2.2098,2.3897,2.5448,2.7503,2.9456,3.0954,3.0902,3.0737,3.0375,0.5554,0.5372,0.5417,0.5729,0.5908,0.6055,0.6361,0.6758,0.6949,0.6723,0.7182,0.7074,0.5894,0.5617,0.5439,0.5248,0.4845,0.0,0.6061,0.5694,0.5863,0.6894,0.6772,0.6643,0.6568,0.7244,0.7421,0.7087,0.7453,0.7463,0.7175,0.7509,0.7705,0.799,1.149,1.2022,1.0528,1.4185,1.8283,0.0,2.4236,2.7311,0.0,3.4219,3.5695,3.5939,3.4783,3.4451,3.4119,0.0,2.9349,2.7105,0.0,2.3837,2.5665,1.5871,1.7158,2.0248,1.3056,1.131,1.1508,1.1469,1.1152,1.0977,1.1397,0.0,1.1677,1.2063,0.0,0.0,0.0,0.0,0.0,0.0,0.0,0.0,0.0,0.0,0.0,0.0,0.0,0.0,0.0,0.0,0.0,2.7505,2.675,2.6798,2.8163,2.6637,2.5731,2.5423,2.3837,2.2841,2.2593,2.2987,2.2592,2.1424,2.3434,2.278,2.0143,2.2154,2.1862,1.9953,2.0448,2.0231,1.9686,2.2018,2.3897,2.5448,2.7503,2.9567,3.1377,3.1322,3.1084,3.0791,0.5712,0.5766,0.5927,0.6058,0.6253,0.6442,0.6571,0.682,0.7012,0.7031,0.6904,0.6464,0.5545,0.5329,0.5181,0.4983,0.0,0.5293,0.0,0.0,0.651,0.6778,0.7204,0.7264,0.6846,0.7268,0.7494,0.7534,0.7518,0.7434,0.7272,0.7187,0.7529,0.8365,1.1847,1.3113,1.2879,0.0,1.8723,0.0,0.0,0.0,0.0,3.4171,3.527,3.5058,3.4758,3.4516,3.3999,0.0,2.9698,0.0,0.0,0.0,2.3393,1.9384,1.9292,1.9212,1.357,1.2871,1.3332,1.1947,1.2321,1.2745,1.1577,1.1332,1.1253,1.104,0.0,0.0,0.0,0.0,0.0,0.0,1.4841,0.0,0.0,0.0,2.1517,0.0,0.0,0.0,0.0,0.0,0.0,0.0,0.0,2.6092,2.8501,2.7513,2.6675,2.6109,2.4826,2.3823,2.3363,2.4451,2.4716,2.4372,2.5261,2.4554,2.227,2.2391,2.1447,1.994,2.0319,2.0197,2.003,2.2214,2.3869,2.5448,2.7503,2.9456,3.112,3.112,3.1029,3.0883,0.6087,0.6234,0.6365,0.6311,0.6526,0.6768,0.6942,0.7223,0.7352,0.717,0.6968,0.6411,0.5448,0.5247,0.5108,0.5002,0.4969,0.5243,0.0,0.0,0.694,0.736,0.76,0.7628,0.75,0.7528,0.7666,0.7945,0.771,0.7591,0.7621,0.729,0.7654,0.8774,1.1998,1.392,1.4945,0.0,1.9837,2.3272,2.4132,2.6513,2.9965,3.3731,3.4635,3.391,3.4073,3.3879,3.3289,3.2437,2.9226,0.0,2.8511,0.0,2.2397,2.2207,2.1561,1.9879,1.5215,1.4808,1.5125,1.2764,1.3068,1.3616,1.2214,1.1772,1.1618,1.1203,0.0,0.0,0.0,0.0,1.1456,1.1116,0.0,1.4537,0.0,1.5573,0.0,0.0,0.0,0.0,0.0,0.0,0.0,0.0,0.0,0.0,2.8172,2.7903,2.7124,2.5957,2.5837,2.5171,2.4124,2.5856,2.6609,2.6464,2.6719,2.5766,2.3377,2.2558,2.1188,1.9776,2.0253,2.0253,2.0017,2.2209,2.3927,2.5458,2.7407,2.9327,3.0879,3.1009,3.1009,3.1138,0.668,0.668,0.6593,0.6356,0.6526,0.6913,0.7595,0.8238,0.8228,0.0,0.0,0.0,0.0,0.0,0.0,0.0,0.0,0.4541,0.5491,0.0,0.6691,0.9265,0.7829,0.7423,0.8446,0.8063,0.7868,0.7784,0.7817,0.7831,0.7876,0.794,0.8215,0.8847,1.2349,1.4551,1.5899,1.9142,2.2631,2.6041,2.6795,2.7357,2.8188,0.0,3.3333,3.2448,3.2135,0.0,0.0,2.8495,2.707,0.0,0.0,0.0,0.0,0.0,0.0,0.0,0.0,0.0,0.0,1.4155,0.0,0.0,0.0,0.0,1.1832,1.1388,1.1307,1.1146,1.0527,1.0805,1.0785,0.9824,1.0842,0.0,0.0,0.0,0.0,0.0,0.0,0.0,0.0,0.0,0.0,0.0,0.0,0.0,2.7396,2.7521,2.7074,2.5932,2.7331,2.7233,2.558,2.761,2.7831,2.5959,2.6846,2.5188,2.1569,2.2111,2.1253,1.912,2.0047,2.0121,1.9744,2.2078,2.4058,2.5766,2.723,2.9051,3.0879,3.1249,3.1377,3.1377,0.7262,0.7175,0.6892,0.64,0.6717,0.7321,0.8224,0.8485,0.0,0.0,0.7476,0.0,0.0,0.5257,0.5609,0.0,0.0,0.5235,0.698,0.6934,0.0,0.7673,0.8181,0.8423,0.0,0.8258,0.8216,0.8209,0.8243,0.8286,0.8286,0.832,0.8577,0.9206,1.2811,1.5782,1.8207,0.0,0.0,0.0,0.0,2.5691,2.8124,0.0,0.0,3.0174,3.2148,3.2888,0.0,3.1632,2.9939,2.8296,2.7981,2.6429,2.4663,2.4312,2.3655,0.0,0.0,0.0,2.0529,1.7019,0.0,0.0,0.0,0.0,0.0,0.0,1.2307,1.204,1.1166,1.1105,1.1045,1.0517,1.084,1.11,0.0,0.0,0.0,0.0,0.0,0.0,0.0,0.0,0.0,0.0,0.0,0.0,0.0,2.7428,2.694,2.7549,2.7423,2.7349,2.7216,2.7991,2.812,2.7466,2.7052,2.5651,2.3131,2.2454,2.1188,1.9751,2.0067,1.9961,1.9862,2.0528,2.266,2.5635,2.5939,2.8039,3.0879,3.1009,3.1138,3.112,0.7248,0.7277,0.7078,0.6694,0.7053,0.7641,0.0,0.0,0.0,0.0,0.7981,0.0,0.635,0.0,0.7152,0.0,0.6931,0.6681,0.7365,0.7973,0.0,0.9064,0.9423,0.0,0.0,0.0,0.8845,0.937,0.8755,0.864,0.8931,0.8783,0.8949,0.9486,1.2025,1.5566,1.9707,2.0832,2.378,0.0,0.0,2.4224,0.0,0.0,2.727,2.9183,0.0,3.3685,3.3714,3.3235,3.1968,3.069,3.1052,2.8906,2.6501,2.7201,2.6088,2.445,2.3511,2.403,0.0,2.0154,2.0019,0.0,1.6059,0.0,1.4465,0.0,0.0,0.0,1.1122,1.1099,1.1186,1.0923,1.0894,1.1014,0.0,1.1182,0.0,0.0,0.0,0.0,0.0,0.0,0.0,0.0,0.0,0.0,0.0,0.0,2.7243,2.7958,2.7383,2.7327,2.7834,2.7971,2.8049,2.8203,2.7665,2.6387,2.4203,2.3285,2.1819,2.0022,2.0154,2.0022,1.9998,1.9844,2.2059,2.562,2.5282,2.7536,3.0879,3.1009,3.112,3.112,0.679,0.7061,0.7315,0.7316,0.7562,0.0,0.0,0.0,0.8066,0.0,0.914,0.8722,0.8065,0.9437,0.9808,0.8309,0.8843,0.851,0.6974,0.8794,0.0,0.0,1.1316,1.1162,1.306,0.0,0.0,0.0,0.9305,0.8875,0.9664,0.9317,0.9354,0.9738,1.0162,1.39,1.9981,2.0452,2.4615,3.0537,2.5094,2.3145,2.3617,2.3954,0.0,2.9569,3.2936,3.4113,3.4015,3.3416,3.3155,3.3135,3.2532,3.1701,3.0996,3.0792,3.0567,2.9805,2.7381,2.6957,2.6423,2.3519,0.0,0.0,0.0,0.0,1.7346,0.0,0.0,0.0,0.0,0.0,1.1489,1.1102,1.1042,1.1116,0.0,0.0,0.0,0.0,0.0,0.0,0.0,0.0,0.0,0.0,0.0,0.0,0.0,0.0,2.746,2.7216,2.7301,2.7381,2.7452,2.7574,2.7899,2.8152,2.858,2.7279,2.4584,2.4643,2.291,1.9893,2.0293,2.016,1.9881,2.001,2.2263,2.552,2.5442,2.7553,3.0879,3.1249,3.1377,3.1377,0.7857,0.8513,0.8913,0.0,0.8807,0.9037,0.0,0.0,0.0,0.0,0.8928,0.8663,0.9432,0.9874,1.0435,1.1207,1.0074,0.0,0.0,0.0,0.0,1.1649,1.1497,1.161,1.2384,1.087,1.0072,1.0134,0.0,0.9319,0.9185,0.9455,0.9778,1.0141,1.0549,1.2833,1.6364,1.7417,2.0605,2.4914,2.3217,2.3312,0.0,0.0,2.9016,3.0418,3.351,3.4797,3.5066,3.482,3.4615,3.4206,3.3598,3.3316,3.3048,3.2018,3.2133,3.2248,3.0913,3.0812,3.0474,2.7978,2.7692,2.6975,0.0,0.0,0.0,0.0,0.0,0.0,0.0,0.0,0.0,1.3043,1.2794,0.0,0.0,0.0,0.0,1.2281,0.0,0.0,0.0,0.0,0.0,0.0,0.0,0.0,0.0,0.0,0.0,2.8466,2.7782,2.7566,2.802,2.839,2.8215,2.7381,2.8794,2.7499,2.3823,2.454,2.3116,1.9893,2.0221,2.0306,2.0294,2.1185,2.3106,2.562,2.6727,2.8707,3.0879,3.1009,3.0732,3.0325,0.8724,0.9399,1.0034,1.0416,0.0,0.0,1.0261,0.0,0.0,1.0647,1.0032,0.0,1.0486,1.1599,1.2291,1.2381,1.202,0.0,1.3257,0.0,0.0,1.2675,1.2723,1.3006,1.365,1.2086,0.0,1.0924,0.0,0.9801,0.9546,0.98,1.0222,1.076,1.1172,1.3074,1.6314,2.0541,2.2359,2.2568,2.4714,0.0,0.0,2.9045,3.097,3.2791,3.443,3.5211,3.5418,3.5418,3.5252,3.5045,3.4677,3.4592,3.4399,3.3534,3.3782,3.417,3.3224,3.3374,3.3197,3.097,3.1406,3.1195,2.7195,2.7759,2.8194,0.0,0.0,0.0,0.0,0.0,0.0,0.0,0.0,0.0,0.0,0.0,0.0,0.0,0.0,0.0,0.0,0.0,0.0,0.0,0.0,0.0,0.0,0.0,0.0,2.6543,2.6305,2.6658,2.7676,2.7344,2.7317,2.7678,2.8619,2.7289,2.3984,2.4686,2.3268,2.0074,2.034,2.0388,2.0403,2.1818,2.3643,2.581,2.8046,2.9483,3.0473,3.062,3.049,3.0343,0.9541,1.0058,1.0873,0.0,0.0,0.0,0.0,1.0136,0.0,1.1988,0.0,1.1487,1.1673,1.3927,1.4625,1.3104,0.0,1.5074,1.4887,1.4931,1.5064,1.5087,1.4679,1.4913,1.5893,1.379,1.2662,0.0,0.0,1.0451,1.003,1.0256,1.0696,1.128,1.1704,1.3984,1.793,2.4757,2.5478,2.2565,2.7495,2.9487,2.9431,3.0338,3.2702,3.5418,3.5418,3.5418,3.5418,3.5294,3.5418,3.5418,3.5294,3.5516,3.5523,3.5098,3.538,3.5656,3.4833,3.507,3.5015,3.3246,3.4142,3.4674,3.0993,3.1483,3.175,2.8433,2.814,2.7747,0.0,0.0,0.0,0.0,0.0,0.0,0.0,0.0,0.0,0.0,0.0,0.0,0.0,0.0,0.0,0.0,0.0,0.0,0.0,0.0,0.0,2.407,2.4758,0.0,2.6836,0.0,2.6329,2.8182,2.8286,2.7017,2.4525,2.4774,2.3295,2.0243,2.0634,2.0646,2.0464,2.2566,2.454,2.6545,2.9292,3.01,2.9952,3.023,3.062,3.0879,1.0567,1.1299,1.203,1.2464,0.0,1.3143,1.3407,1.1958,1.1378,1.2892,1.2568,1.274,1.4261,1.4993,1.5465,1.5703,1.6145,0.0,0.0,0.0,0.0,1.7587,1.6518,1.6486,1.7446,1.5678,1.4098,0.0,0.0,1.1553,0.9267,1.0526,1.113,1.1154,1.1649,1.4107,1.7942,1.8432,0.0,2.3429,2.7262,2.9059,2.9774,3.3078,3.4793,3.5418,3.5418,3.5418,3.5294,3.5046,3.517,3.5294,3.5046,3.5971,3.6937,3.6187,3.6728,3.7488,3.6649,3.6515,3.6474,3.5916,3.6405,3.6547,3.4923,3.6066,3.684,3.405,3.4775,3.4197,2.87,0.0,0.0,0.0,0.0,0.0,0.0,0.0,0.0,0.0,0.0,0.0,0.0,0.0,0.0,0.0,0.0,0.0,0.0,0.0,0.0,0.0,2.7362,0.0,0.0,0.0,0.0,2.6266,2.8635,2.7621,2.3749,2.4451,2.2965,1.9965,2.0502,2.071,2.0869,2.4232,2.7174,2.9587,2.9787,3.0083,3.023,2.9952,3.0343,3.0879,1.2129,1.2734,1.3581,1.4867,0.0,0.0,0.0,1.5469,0.0,1.3676,1.3433,1.3877,1.5345,1.5915,1.6488,1.7271,1.7369,1.7798,1.856,1.816,1.7917,1.7883,1.7268,0.0,1.723,1.6611,1.5475,1.362,0.0,1.2446,0.9899,1.1029,1.1572,1.1719,1.4215,1.6046,0.0,0.0,0.0,2.5957,3.0133,3.2004,3.2374,3.4523,3.5432,3.5797,3.5797,3.5897,3.6161,3.5458,3.5375,3.5797,3.5554,3.6501,3.7555,3.7074,3.7658,3.829,3.7311,3.7223,3.7019,3.6162,3.6841,3.7571,3.7133,3.8362,3.9268,3.8266,3.8742,3.7394,3.1074,2.5638,0.0,0.0,0.0,0.0,0.0,0.0,0.0,0.0,0.0,0.0,0.0,0.0,0.0,0.0,0.0,0.0,0.0,0.0,0.0,0.0,0.0,0.0,0.0,0.0,0.0,2.7882,2.8182,2.6836,2.4052,2.3508,2.2004,1.9688,2.0476,2.0761,2.0747,2.4381,2.7004,2.902,2.9543,3.0083,3.0361,2.9952,3.0213,3.0879,1.4138,1.4083,1.4869,0.0,1.6524,0.0,1.9228,1.8486,1.6823,1.4844,1.4821,1.5203,1.5904,1.6678,1.7391,1.8314,1.8466,1.8956,1.9599,1.9333,1.8957,1.879,1.8541,1.8208,1.7895,1.7937,1.6956,0.0,0.0,0.0,0.0,1.1626,1.2355,0.0,0.0,0.0,0.0,0.0,2.8793,2.9299,3.3169,3.4826,3.4987,3.5428,3.587,3.6264,3.6254,3.6631,3.6912,3.6109,3.6082,3.6275,3.6156,3.692,3.7788,3.7533,3.7943,3.8313,3.7541,3.7543,3.7337,3.645,3.7232,3.8393,3.8981,3.9848,4.0594,4.1051,4.0438,3.8114,3.2491,2.8667,0.0,0.0,0.0,0.0,0.0,0.0,0.0,0.0,0.0,0.0,0.0,0.0,0.0,0.0,0.0,0.0,0.0,0.0,0.0,0.0,0.0,2.6251,2.6715,0.0,2.8388,0.0,2.7748,2.6281,2.4779,2.2905,2.1215,1.9744,2.0611,2.1288,2.2015,2.4564,2.6722,2.8477,2.9543,3.0213,3.0473,2.9952,3.0343,3.1138,0.0,0.0,0.0,0.0,0.0,0.0,0.0,1.9216,1.8031,1.6849,1.7235,1.7427,1.6718,1.7533,1.8557,1.934,2.0168,2.0988,2.1712,2.2299,2.2642,2.2677,2.1435,2.106,2.1661,2.0536,1.9206,0.0,0.0,0.0,0.0,1.2077,1.3874,0.0,0.0,0.0,0.0,2.7201,2.9688,3.3705,3.4389,3.4999,3.5501,3.633,3.66,3.6622,3.681,3.6964,3.703,3.7199,3.7025,3.6846,3.6588,3.6911,3.7313,3.7313,3.7336,3.7451,3.7565,3.7543,3.7633,3.8817,3.9101,3.954,4.1423,4.1123,4.0768,4.1878,3.8916,3.5346,3.2938,2.8432,2.452,0.0,0.0,0.0,0.0,0.0,2.7702,2.3767,0.0,0.0,0.0,0.0,0.0,0.0,0.0,0.0,0.0,0.0,0.0,2.4238,0.0,2.4898,2.3977,2.7941,0.0,2.7772,2.8116,2.7306,2.5439,2.3461,2.1808,2.0383,2.0799,2.3046,2.6498,2.6152,2.7768,3.0602,3.0361,3.075,3.112,3.0213,3.0602,3.1653,0.0,0.0,0.0,0.0,0.0,0.0,0.0,2.3575,2.1821,2.1168,1.9989,1.9042,1.9002,1.9676,2.0484,2.1261,2.1933,2.2552,2.3301,2.3163,2.298,2.2833,2.2277,2.1933,2.1432,2.1022,2.0067,0.0,0.0,0.0,0.0,0.0,0.0,0.0,0.0,2.5378,2.8058,3.0535,3.2728,3.4571,3.5194,3.5821,3.6223,3.6538,3.6883,3.7155,3.7291,3.7702,3.8045,3.8316,3.7988,3.7529,3.7121,3.7359,3.7724,3.72,3.7224,3.7269,3.7087,3.7109,3.7221,3.7623,3.7722,3.8285,4.0757,4.0908,4.105,4.2811,4.0491,3.736,3.4942,3.097,2.7893,0.0,0.0,0.0,0.0,0.0,0.0,2.3864,0.0,1.967,0.0,0.0,0.0,0.0,0.0,0.0,0.0,0.0,0.0,2.2395,0.0,2.6973,2.5352,2.8828,3.0316,2.9678,2.7624,2.6331,2.5532,2.2469,2.1155,2.1168,2.2406,2.3969,2.6068,2.6998,2.8032,2.9395,3.0083,3.0732,3.1377,3.0861,3.1249,3.1763,2.2843,0.0,2.3541,0.0,2.5554,2.5195,2.857,2.6917,2.5114,2.4436,2.2832,2.1463,2.0793,2.1424,2.2141,2.2722,2.3091,2.3606,2.4018,2.3878,2.3583,2.334,2.329,0.0,2.211,2.1861,2.1467,2.0978,1.9228,0.0,0.0,0.0,0.0,0.0,2.6936,2.8679,2.9796,3.2981,3.456,3.5157,3.5915,3.641,3.6724,3.6906,3.7215,3.7449,3.7765,3.8109,3.8564,3.894,3.8643,3.8204,3.7839,3.7831,3.7809,3.713,3.6957,3.6828,3.6461,3.6587,3.6828,3.7076,3.7143,3.7998,4.0832,4.1205,4.1389,4.3349,4.1415,3.8832,3.6709,3.3314,3.0489,2.9724,0.0,0.0,0.0,2.892,0.0,2.4226,2.1776,2.0268,1.9887,0.0,0.0,0.0,0.0,0.0,0.0,0.0,0.0,0.0,0.0,0.0,0.0,2.8802,3.0485,3.0787,2.7263,2.5675,2.5766,2.2104,2.0781,2.1511,2.2678,2.4113,2.5876,2.7279,2.8343,2.923,3.0325,3.112,3.1506,3.1377,3.1763,3.2147,2.6844,2.5063,2.4745,3.0246,2.7508,2.5656,2.9016,2.8528,2.7182,2.5814,2.6168,2.5176,2.1822,2.2424,2.3092,2.3078,2.3752,2.4069,2.4127,2.4746,2.5094,0.0,0.0,2.4617,2.4595,2.3564,2.3771,2.5244,0.0,0.0,2.2949,2.131,2.3124,2.7589,2.7063,2.9642,3.4486,3.3966,3.4427,3.5599,3.6351,3.6795,3.6966,3.7355,3.7619,3.7631,3.8096,3.8245,3.8315,3.8826,3.8989,3.8919,3.877,3.7963,3.7124,3.6835,3.6351,3.5947,3.6026,3.6026,3.6453,3.8086,3.8515,3.9297,4.2325,4.2392,4.2054,4.3138,4.0773,3.8404,3.804,3.469,3.1133,2.854,0.0,0.0,0.0,2.8798,0.0,2.5522,2.4015,2.3387,2.3911,0.0,0.0,0.0,0.0,0.0,0.0,0.0,0.0,2.1905,2.233,0.0,2.4968,2.7373,2.9159,3.0528,2.7418,2.6199,2.6405,2.272,2.1014,2.1019,2.1032,2.3407,2.7117,2.7263,2.8793,3.1377,3.1744,3.1873,3.1873,3.1506,3.2019,3.2785,2.9711,2.9022,2.8978,3.0952,3.0142,2.9792,3.129,3.054,2.9313,2.7804,2.7013,2.5927,2.3796,2.3855,2.3985,0.0,2.4535,2.4819,0.0,2.4741,2.4826,2.5094,2.4749,2.4759,2.4996,2.5206,2.5658,2.6099,0.0,0.0,0.0,2.6424,2.8263,3.1527,3.2339,3.3481,3.4854,3.5413,3.581,3.6241,3.6727,3.7021,3.703,3.719,3.7251,3.7345,3.7612,3.7722,3.7707,3.7892,3.8571,3.9291,3.9038,3.8118,3.6956,3.619,3.6589,3.7302,3.7404,3.8135,3.9044,3.9626,3.9677,4.0286,4.2404,4.3579,4.4221,4.401,4.1568,3.9237,3.8218,3.5666,3.3011,3.1206,3.1232,0.0,2.9394,0.0,2.6545,2.3209,2.1123,2.0108,0.0,1.8425,0.0,0.0,0.0,0.0,0.0,0.0,0.0,0.0,2.2895,0.0,2.3979,2.7041,2.8954,2.9596,2.8447,2.6826,2.4766,2.268,2.1713,2.1808,2.3049,2.5057,2.7544,2.7295,2.9163,3.1891,3.0584,3.0972,3.2275,3.2166,3.2403,3.2785,3.1544,3.1505,3.1503,3.1943,3.2056,3.2316,3.2791,3.2332,3.1427,3.0112,2.9224,2.7993,2.5929,2.5701,0.0,2.4855,2.5024,2.519,2.5196,2.4976,2.4884,2.5266,2.5046,2.5253,2.5994,0.0,0.0,2.7911,2.8052,2.8692,2.9918,3.04,3.176,3.394,3.469,3.523,3.552,3.6074,3.6403,3.659,3.6895,3.7036,3.6904,3.6904,3.6904,3.6951,3.7083,3.7208,3.7143,3.7176,3.8152,3.929,3.9069,3.8537,3.7902,3.6783,3.7592,3.8591,3.7892,3.8817,3.9995,3.9995,3.9995,4.0473,4.219,4.3884,4.4727,4.3687,4.1615,3.9699,3.8137,3.5958,3.3966,3.2771,3.219,3.1317,2.9574,0.0,2.574,0.0,0.0,0.0,0.0,2.0271,0.0,0.0,0.0,0.0,0.0,0.0,0.0,2.0709,2.3462,0.0,2.4088,2.6898,2.8567,2.9047,2.8271,2.6264,2.3091,2.2277,2.1808,2.1795,2.3189,2.4761,2.6455,2.6568,2.8435,3.1139,3.0223,3.0974,3.2422,3.2676,3.2931,3.3038,3.2612,3.2595,0.0,0.0,3.312,0.0,3.3496,3.3781,3.3414,3.2329,3.2191,3.1062,2.7919,2.7826,2.7361,2.5955,0.0,0.0,0.0,2.5262,2.5293,2.558,2.5617,0.0,2.7469,2.7357,2.8431,3.065,3.1808,3.2577,3.3115,3.3222,3.3754,3.4808,3.4644,3.5235,3.6332,3.6121,3.6293,3.6712,3.6904,3.682,3.658,3.6665,3.6642,3.6642,3.6619,3.6572,3.6671,3.673,3.7788,3.9118,3.8928,3.939,3.9728,3.8477,3.9032,3.9691,3.7935,3.8644,3.9849,3.9902,3.9902,4.0251,4.1761,4.3273,4.4083,4.2592,4.1119,3.9572,3.7998,3.5922,3.4123,3.3529,3.2466,3.0594,2.7759,2.7246,2.6323,0.0,0.0,0.0,0.0,2.4327,2.4966,0.0,0.0,0.0,0.0,0.0,2.1583,2.3598,2.3908,2.4393,2.4998,2.6809,2.7905,2.8633,2.7278,2.4885,2.1773,2.1733,2.1447,2.1175,2.1751,2.2808,2.4213,2.5076,2.6975,2.9287,3.0339,3.1355,3.2365,3.3165,3.3418,3.3418,0.0,0.0,3.2724,3.295,3.2921,3.3051,3.3619,3.3733,3.3579,3.2797,3.157,3.0609,3.0119,2.9119,2.8773,2.9648,2.7176,2.6241,2.7501,2.5902,2.5183,2.5682,2.6355,2.7016,2.7776,2.9699,3.1317,3.254,3.3087,3.3399,3.329,3.4159,3.4803,3.504,3.5642,3.5979,3.631,3.6008,3.5968,3.6059,3.6059,3.6059,3.6013,3.6056,3.6131,3.6061,3.5899,3.5812,3.5944,3.6652,3.8049,3.9465,4.0075,4.1259,4.2015,3.9945,3.9995,4.054,4.0106,4.1086,4.2418,4.2711,4.2823,4.2879,4.3294,4.3666,4.3929,4.3655,4.169,3.9803,3.921,3.6944,3.4962,3.4383,3.1934,2.9786,2.8553,2.6231,0.0,0.0,2.3521,2.3688,2.4602,2.5778,2.6522,0.0,0.0,0.0,0.0,2.4916,2.3834,2.4022,2.4033,2.4265,2.4728,2.5919,2.7001,2.7949,2.6597,2.5219,2.4123,2.2613,2.1884,2.1726,2.1464,2.2553,2.4538,2.373,2.5454,2.8541,2.8452,2.963,3.1425,3.2543,3.3292,3.3796,3.3166,3.3023,3.2942,3.295,3.297,3.3214,3.4004,3.4207,3.4267,3.439,3.3596,3.2785,3.2312,3.0762,3.0159,3.1031,2.8682,2.7397,2.8289,2.6489,2.5616,2.6016,2.6503,2.7401,2.9106,3.0485,3.1857,3.3407,3.3704,3.379,3.3879,3.4531,3.4984,3.5306,3.5688,3.5933,3.5933,3.5717,3.571,3.5741,3.5681,3.5677,3.5695,3.5543,3.5594,3.5759,3.5348,3.5254,3.5469,3.5966,3.7552,3.9348,4.0232,4.1579,4.2738,4.1702,4.1639,4.1719,4.0969,4.2008,4.325,4.3503,4.3499,4.3499,4.3499,4.311,4.2556,4.191,4.0088,3.8488,3.757,3.6203,3.5123,3.4952,3.206,2.9931,3.0512,2.6903,0.0,2.6349,2.5977,2.5863,2.6602,2.7867,2.8205,2.7124,0.0,0.0,2.6822,2.6179,2.5578,2.5062,2.4952,2.4868,2.459,2.5443,2.6238,2.6972,2.6161,2.5353,2.4252,2.3126,2.2508,2.2227,2.2291,2.275,2.365,2.3422,2.4887,2.7388,2.7327,2.8785,3.1156,3.2035,3.3019,3.3922,3.3115,3.3175,3.3175,3.3176,3.3215,3.3677,3.4613,3.4776,3.5191,3.6224,3.609,3.535,3.4295,3.2654,3.1778,3.2072,3.0486,2.9145,2.8688,2.714,2.6354,2.6655,2.6858,2.8254,3.095,3.0964,3.185,3.377,3.3892,3.419,3.4634,3.4741,3.4978,3.5511,3.5511,3.5511,3.5511,3.5405,3.5386,3.5502,3.5296,3.5329,3.5455,3.5152,3.5248,3.5427,3.4987,3.4999,3.5226,3.5622,3.7082,3.8939,4.0006,4.1275,4.2395,4.3015,4.3226,4.2879,4.1495,4.2185,4.3224,4.3024,4.3053,4.311,4.311,4.2374,4.1124,3.9654,3.8308,3.6967,3.5389,3.4876,3.4703,3.4863,3.1858,3.0034,3.171,0.0,2.6527,2.958,2.962,2.9373,2.9702,3.0497,3.018,2.8282,2.8188,0.0,0.0,2.7068,2.6929,2.6346,2.6326,2.5798,2.474,2.5272,2.5695,2.5829,2.5967,2.5159,2.356,2.3518,2.3217,2.2704,2.3318,2.3173,2.2766,2.3695,2.4755,2.5913,2.6743,2.85,3.0717,3.1798,3.2727,3.3776,3.3115,3.3387,3.3602,3.3294,3.3969,3.4572,3.4739,3.5063,3.5635,3.6426,3.5274,3.487,3.6072,3.4687,3.4199,3.5601,3.4118,3.1939,2.9121,2.8408,2.8333,2.855,2.9538,3.0892,3.2649,3.3412,3.3855,3.4075,3.4549,3.4774,3.4667,3.5213,3.5525,3.5525,3.5525,3.5525,3.5525,3.5004,3.4831,3.4785,3.4525,3.4585,3.4843,3.4886,3.5004,3.5265,3.5136,3.5138,3.5502,3.7586,3.7978,3.8175,4.0886,4.1397,4.1114,4.2262,4.2811,4.2938,4.2738,4.3113,4.3373,4.2476,4.2507,4.2682,4.2682,4.251,4.2075,4.0941,3.9694,3.8265,3.6748,3.5521,3.4268,3.2755,3.0025,2.804,2.789,0.0,2.8229,2.9766,3.204,3.3262,3.2896,3.401,3.3789,3.1486,3.1401,3.0793,2.9179,2.8149,2.7429,2.7356,2.7101,2.6422,2.5413,2.5591,2.5143,2.4295,2.5187,2.5008,2.3882,2.3616,2.3462,2.3406,2.3285,2.3304,2.3434,2.3565,2.3985,2.4695,2.7424,2.8089,2.7914,3.2105,3.3126,3.2708,3.37,3.4031,3.4316,3.4159,3.4463,3.4987,3.529,3.5563,3.5886,3.6611,3.5939,3.5791,3.6634,3.5131,3.4423,3.5245,3.4493,3.2937,3.0486,3.0169,3.0189,3.0336,3.0826,3.1797,3.3247,3.4598,3.508,3.4854,3.5138,3.5235,3.5175,3.5386,3.5352,3.5097,3.5097,3.4935,3.468,3.4452,3.4314,3.4411,3.4347,3.444,3.4567,3.4591,3.4828,3.516,3.5017,3.5114,3.5596,3.6871,3.7221,3.7532,3.9976,4.0717,4.0936,4.2164,4.2831,4.316,4.2992,4.3139,4.3054,4.2324,4.2212,4.2331,4.2331,4.1397,4.0382,3.9943,3.8318,3.693,3.6825,3.5551,3.4217,3.3285,3.1343,0.0,0.0,3.0852,3.1396,3.3821,3.5131,3.5358,3.4292,3.5413,3.5315,3.3325,3.2295,3.134,3.0291,2.8764,2.8015,2.8237,2.7482,2.6644,2.5562,2.5562,2.5292,2.4902,2.6148,2.6132,2.5172,2.5592,2.5233,2.3997,2.4137,2.4199,2.4066,2.4332,2.448,2.4746,2.6207,2.6783,2.7326,3.0477,3.1817,3.2327,3.4327,3.4791,3.5082,3.4955,3.5018,3.5374,3.5736,3.6011,3.6197,3.6657,3.6635,3.6703,3.6725,3.5467,3.4622,3.4622,3.4624,3.4074,3.27,3.2551,3.2314,3.199,3.2314,3.3031,3.4106,3.5367,3.5848,3.5626,3.5678,3.5631,3.5571,3.5571,3.534,3.4866,3.4751,3.4475,3.4185,3.3968,3.3916,3.4035,3.4119,3.4263,3.4382,3.4487,3.479,3.5235,3.5114,3.5332,3.5812,3.6288,3.6616,3.7104,3.9196,4.0181,4.0847,4.235,4.3078,4.3382,4.2902,4.296,4.3015,4.2237,4.2175,4.2175,4.2092,4.0519,3.8966,3.8701,3.6919,3.5498,3.6109,3.5127,3.4293,3.4098,0.0,0.0,0.0,3.3983,3.4333,3.7331,3.7645,3.7136,3.5844,3.6613,3.6507,3.461,3.2794,3.1608,3.0969,2.9221,2.8511,2.8888,2.7817,2.6751,2.5831,2.5831,2.5697,2.5427,2.7288,2.7541,2.6368,2.7423,2.6869,2.5158,2.5052,2.4916,2.4645,2.4916,2.5052,2.5187,2.5457,2.5965,2.6886,2.8838,3.0142,3.1157,3.4901,3.5237,3.5386,3.5008,3.5622,3.609,3.5644,3.6185,3.6475,3.6329,3.6612,3.6703,3.6374,3.6405,3.6432,3.6432,3.62,3.6219,3.6162,3.6086,3.5282,3.3813,3.5128,3.6031,3.6054,3.6185,3.6087,3.5839,3.5898,3.5771,3.5582,3.5582,3.5559,3.5489,3.4996,3.4738,3.4692,3.4023,3.3714,3.3691,3.3761,3.3936,3.4186,3.4579,3.4969,3.5211,3.5716,3.5908,3.6098,3.7268,3.715,3.6938,3.9913,4.0318,4.0062,4.2275,4.3486,4.3708,4.249,4.2919,4.3378,4.2349,4.2257,4.231,4.2175,4.0827,3.9424,3.8255,3.6843,3.5437,3.4411,3.4059,3.4,3.3873,0.0,0.0,3.429,3.5066,3.6088,3.7369,3.8645,3.9175,3.8503,3.8676,3.7972,3.5691,3.4105,3.2552,3.0969,2.9485,2.8905,2.9265,2.8196,2.7286,2.6517,2.6517,2.5846,2.4631,2.7668,2.8328,2.702,2.78,2.7668,2.6886,2.5577,2.5052,2.5052,2.5052,2.5052,2.5187,2.6501,2.6234,2.5577,2.8196,2.8706,2.8295,3.5337,3.5758,3.5936,3.5781,3.6228,3.6473,3.6207,3.6477,3.6634,3.6635,3.6219,3.611,3.6472,3.6329,3.6333,3.6576,3.6632,3.6613,3.6702,3.6516,3.6077,3.5436,3.5945,3.6277,3.6277,3.6277,3.6294,3.6195,3.6195,3.6102,3.6024,3.6024,3.57,3.5097,3.4889,3.4466,3.3777,3.3895,3.3876,3.3908,3.4412,3.4652,3.4847,3.5114,3.5428,3.5716,3.5908,3.6098,3.6288,3.6828,3.6463,3.6341,3.9317,3.9225,3.8422,4.1053,4.2672,4.3418,4.2695,4.2943,4.3294,4.2485,4.2257,4.1976,4.0881,3.9817,3.8464,3.6963,3.5584,3.4835,3.5129,3.5114,3.4848,3.4421,0.0,3.6259,3.5187,3.6899,3.854,3.9266,4.0014,4.0252,3.9601,3.9722,3.9358,3.7977,3.526,3.353,3.3204,3.0624,2.9179,2.9299,2.8905,2.8246,2.7318,2.8194,2.8292,2.7621,3.0338,3.1123,2.9872,3.0628,2.9676,2.7403,2.662,2.5846,2.5052,2.5052,2.5052,2.5187,2.5712,2.5577,2.5322,2.7153,2.7668,2.7668,3.5871,3.6044,3.6277,3.6277,3.6443,3.6473,3.6473,3.6634,3.6658,3.6724,3.6077,3.5852,3.6302,3.5964,3.5894,3.6325,3.6496,3.6657,3.6857,3.6543,3.6329,3.6277,3.6277,3.6277,3.6277,3.6277,3.6277,3.6277,3.6277,3.6277,3.6277,3.6117,3.5695,3.4993,3.467,3.414,3.3384,3.3573,3.3742,3.3983,3.4535,3.4969,3.5211,3.5328,3.547,3.5635,3.5462,3.5481,3.5644,3.5762,3.5445,3.5596,3.8673,3.8921,3.8524,4.0095,4.1339,4.2119,4.2069,4.2262,4.245,4.2392,4.2339,4.1724,4.0124,3.8778,3.745,3.5739,3.4424,3.3955,3.5456,3.5614,3.5763,3.6408,3.7862,3.8567,3.7412,3.8818,4.0099,4.0475,4.0939,4.1037,4.0489,4.0531,4.0378,3.9705,3.6695,3.4571,3.3836,3.0912,2.9316,2.9316,2.9813,2.9716,2.8925,2.959,2.986,2.9696,3.2229,3.2877,3.1815,3.2617,3.1552,2.9083,2.8444,2.7248,2.5846,2.5952,2.5546,2.5052,2.5052,2.5052,2.5187,2.61,2.6753,2.7403,3.6277,3.6277,3.6277,3.6277,3.6277,3.6277,3.6277,3.6567,3.6792,3.6634,3.6223,3.5939,3.5779,3.5324,3.5341,3.5746,3.611,3.6382,3.6789,3.6635,3.6473,3.6277,3.6277,3.6277,3.6277,3.6277,3.6277,3.6277,3.6277,3.6277,3.6254,3.5749,3.5455,3.5418,3.4387,3.3856,3.3505,3.3007,3.3078,3.3648,3.3935,3.4438,3.5162,3.4911,3.4809,3.4735,3.417,3.3949,3.4065,3.4272,3.4388,3.4891,3.7984,3.9786,4.0602,3.9728,3.9476,3.9715,4.0588,4.0617,4.0783,4.207,4.2392,4.186,3.99,3.8109,3.6406,3.4882,3.338,3.2938,3.4792,3.5273,3.645,3.9901,3.962,3.9423,4.1093,4.0875,4.0526,4.0526,4.148,4.1938,4.1274,4.1177,4.0901,4.0476,3.842,3.564,3.232,3.0407,2.9316,2.9316,3.1091,3.1946,3.1552,3.0372,3.0092,3.046,3.2543,3.323,3.2618,3.3211,3.3091,3.2218,3.0942,2.9308,2.7684,2.7788,2.6811,2.5066,2.5052,2.5052,2.5052,2.5052,2.5981,2.7286,3.6277,3.6277,3.6277,3.6277,3.6466,3.647,3.6214,3.631,3.6196,3.5839,3.5168,3.5027,3.5521,3.5075,3.5118,3.6016,3.6195,3.6145,3.6185,3.6271,3.6092,3.5772,3.6094,3.6277,3.6277,3.6277,3.6277,3.6277,3.6277,3.6094,3.5749,3.5588,3.5063,3.4387,3.3983,3.3455,3.3039,3.3071,3.314,3.3339,3.3796,3.4108,3.4348,3.4268,3.4336,3.452,3.4346,3.4363,3.452,3.4545,3.4449,3.4338,3.5122,3.6985,3.8945,3.8641,3.8993,3.9801,4.1067,4.1126,4.0783,4.1037,4.0349,3.9253,3.762,3.6258,3.477,3.3134,3.2421,3.2285,3.2871,3.4088,3.5779,3.8114,3.8713,3.9423,4.1093,4.0875,4.0651,4.1053,4.1731,4.2088,4.1903,4.185,4.1335,4.0317,3.8343,3.5622,3.2022,3.2558,3.2523,3.1258,3.2895,3.4141,3.4843,3.4076,3.3554,3.3406,3.4897,3.529,3.4752,3.5012,3.4238,3.2781,3.2059,3.0912,2.9475,2.9206,2.8311,2.6962,2.6729,2.5846,2.4781,2.5052,2.5846,2.6886,3.6277,3.6277,3.6277,3.6277,3.647,3.6473,3.6094,3.614,3.5979,3.5445,3.471,3.4461,3.5123,3.4742,3.4857,3.5793,3.6208,3.6264,3.5779,3.584,3.573,3.529,3.5596,3.5962,3.6059,3.6059,3.6168,3.6277,3.6071,3.5818,3.5497,3.5004,3.4435,3.3808,3.3311,3.2864,3.2447,3.2672,3.2835,3.3122,3.3416,3.3752,3.3924,3.3728,3.3769,3.395,3.3727,3.3742,3.3806,3.3895,3.4324,3.4616,3.3734,3.5142,3.7152,3.7181,3.7507,3.8371,4.0226,4.0246,3.9836,3.9945,3.9521,3.8608,3.6577,3.5521,3.4427,3.2299,3.1849,3.2156,3.2883,3.4078,3.5744,3.8221,3.8434,3.8944,4.1041,4.0643,4.0489,4.1171,4.2007,4.2499,4.2488,4.2287,4.1565,4.0411,3.8309,3.6143,3.4083,3.431,3.4113,3.31,3.4834,3.6105,3.6742,3.68,3.6514,3.5861,3.6355,3.6274,3.5881,3.5828,3.51,3.3897,3.3652,3.2758,3.1393,3.106,3.0031,2.851,2.8279,2.7153,2.5562,2.5831,2.6234,2.6871,3.6277,3.6277,3.6277,3.6277,3.647,3.647,3.5931,3.591,3.5785,3.5313,3.4661,3.4304,3.4621,3.4544,3.4662,3.5442,3.6287,3.6274,3.5344,3.5586,3.5449,3.4762,3.488,3.5165,3.5663,3.573,3.5927,3.6208,3.5749,3.5451,3.529,3.4093,3.3515,3.3482,3.2715,3.2268,3.2025,3.2025,3.2293,3.2706,3.2706,3.3203,3.3777,3.331,3.3138,3.3064,3.2572,3.2487,3.2487,3.2636,3.3862,3.511,3.3563,3.4229,3.5531,3.5683,3.5655,3.6246,3.8601,3.8725,3.8347,3.8957,3.9509,3.9269,3.6606,3.5668,3.4692,3.2337,3.1761,3.2228,3.39,3.4428,3.5762,3.9118,3.8303,3.8166,4.0811,4.0436,4.0326,4.1279,4.2308,4.2986,4.2986,4.24,4.1686,4.0667,3.8439,3.7111,3.7192,3.5886,3.4939,3.4812,3.665,3.7566,3.7487,3.853,3.8616,3.7556,3.7141,3.6655,3.6207,3.5799,3.5496,3.5376,3.5496,3.4659,3.3038,3.3168,3.1931,2.9935,2.99,2.8838,2.727,2.7286,2.7286,2.7403,3.6277,3.6277,3.6277,3.6277,3.647,3.6356,3.5491,3.581,3.5626,3.4205,3.4385,3.4623,3.4645,3.4742,3.5027,3.5748,3.5964,3.5626,3.4704,3.4964,3.4926,3.4211,3.4147,3.4432,3.4795,3.5418,3.5659,3.5358,3.5459,3.5004,3.4032,3.3707,3.3238,3.262,3.2289,3.2064,3.2025,3.2025,3.201,3.2019,3.2372,3.2445,3.2455,3.2533,3.266,3.2785,3.2686,3.281,3.2982,3.2982,3.3316,3.3563,3.3205,3.3828,3.4884,3.6006,3.6493,3.6985,3.8707,3.8725,3.8231,3.8376,3.8522,3.8246,3.6754,3.5057,3.3632,3.3079,3.2326,3.1809,3.2228,3.2509,3.3441,3.5644,3.6568,3.7713,3.9745,4.0926,4.1686,4.1919,4.2503,4.2986,4.2986,4.2174,4.1541,4.097,3.9936,3.8564,3.7004,3.7752,3.774,3.6342,3.8059,3.8871,3.876,3.8808,3.8485,3.7848,3.7359,3.6746,3.5758,3.591,3.5807,3.5558,3.5437,3.5333,3.5032,3.4664,3.3672,3.2153,3.1561,3.0254,2.8689,2.8723,2.846,2.818,3.6277,3.6277,3.6277,3.6277,3.6564,3.6521,3.581,3.5933,3.5703,3.4629,3.4634,3.4828,3.4941,3.5067,3.5371,3.5875,3.5733,3.5294,3.4481,3.4509,3.4256,3.3683,3.3731,3.3907,3.4155,3.4758,3.5137,3.5092,3.4932,3.436,3.3621,3.3254,3.2747,3.2261,3.1998,3.1913,3.2025,3.2025,3.2025,3.2025,3.2313,3.2313,3.2201,3.2463,3.2636,3.2723,3.281,3.2982,3.3068,3.3068,3.3068,3.3068,3.3068,3.3751,3.4616,3.5763,3.6463,3.7247,3.8784,3.8725,3.8289,3.8609,3.8434,3.7901,3.6844,3.5305,3.3985,3.3395,3.25,3.1673,3.1673,3.1902,3.2967,3.5587,3.6098,3.7215,4.0369,4.0977,4.1412,4.208,4.2384,4.2574,4.2513,4.1948,4.1492,4.1172,4.0388,3.9437,3.8408,3.9042,3.8949,3.8016,3.8886,3.9278,3.9151,3.8787,3.8295,3.7572,3.7213,3.6603,3.5848,3.5995,3.5871,3.5519,3.5644,3.5644,3.5519,3.5273,3.4669,3.3819,3.3457,3.2072,3.0384,3.0401,3.0142,2.9865,3.6277,3.6168,3.6168,3.6168,3.6365,3.6409,3.5972,3.5972,3.5813,3.5237,3.5028,3.4955,3.519,3.5465,3.5718,3.5839,3.5695,3.5221,3.4393,3.4142,3.381,3.333,3.3503,3.3708,3.3879,3.4051,3.4311,3.4812,3.4177,3.3723,3.3324,3.2699,3.2298,3.2027,3.1865,3.1801,3.1904,3.1991,3.2005,3.2105,3.2192,3.2192,3.2192,3.2425,3.25,3.266,3.2832,3.2993,3.3068,3.3068,3.3068,3.3068,3.3068,3.3751,3.4564,3.5386,3.6188,3.7219,3.864,3.8609,3.8347,3.8899,3.8609,3.8005,3.7141,3.5951,3.4733,3.3817,3.2562,3.1673,3.1673,3.183,3.3101,3.6396,3.6163,3.7036,4.1195,4.1071,4.0978,4.2029,4.2099,4.2152,4.2174,4.1834,4.1492,4.1172,4.0386,3.9988,3.9928,3.9779,3.9521,3.9286,3.927,3.9278,3.8916,3.8573,3.8082,3.7445,3.6855,3.6373,3.5997,3.5997,3.579,3.5438,3.5832,3.5769,3.5418,3.5418,3.5294,3.4922,3.4922,3.3882,3.2327,3.1817,3.1689,3.1579,3.595,3.5863,3.573,3.5533,3.5759,3.5669,3.4885,3.5357,3.5446,3.4509,3.5024,3.5442,3.5405,3.5864,3.6002,3.5566,3.5717,3.5318,3.4425,3.4252,3.4025,3.3629,3.3366,3.3947,3.5099,3.3796,3.3162,3.3467,3.3608,3.3235,3.2296,3.2177,3.2003,3.1769,3.1874,3.1695,3.1345,3.1748,3.1561,3.0974,3.1365,3.1472,3.1307,3.153,3.183,3.2231,3.234,3.2641,3.3068,3.3068,3.3068,3.3068,3.3068,3.3751,3.4564,3.5386,3.6188,3.7106,3.8063,3.826,3.8231,3.8318,3.826,3.8272,3.8486,3.6733,3.4979,3.4815,3.3164,3.1673,3.1673,3.1721,3.2544,3.4892,3.6218,3.7792,4.0057,4.1576,4.2469,4.2106,4.2148,4.2238,4.24,4.1948,4.1492,4.1172,4.085,4.041,3.9895,3.9574,3.934,3.902,3.8891,3.8777,3.8777,3.8385,3.8146,3.7957,3.6988,3.6139,3.5521,3.5521,3.548,3.5418,3.55,3.548,3.5418,3.5418,3.5418,3.5294,3.5046,3.4797,3.4278,3.2181,3.2072,3.2892,3.5643,3.5533,3.5533,3.5423,3.5602,3.5646,3.5202,3.5625,3.5781,3.5353,3.5654,3.5933,3.5933,3.614,3.6185,3.574,3.5455,3.5114,3.4306,3.4094,3.3811,3.3435,3.3307,3.3522,3.4021,3.3328,3.2835,3.2557,3.2861,3.27,3.2079,3.217,3.2088,3.1825,3.1796,3.17,3.154,3.1497,3.1307,3.1141,3.1304,3.1304,3.1329,3.1386,3.1537,3.1788,3.2114,3.2365,3.2726,3.3538,3.3496,3.3154,3.3641,3.4371,3.5169,3.5467,3.6582,3.772,3.8127,3.8202,3.8202,3.8202,3.8202,3.826,3.8399,3.7293,3.6062,3.5459,3.405,3.2695,3.1898,3.1673,3.2601,3.5476,3.6606,3.8049,4.0728,4.1736,4.2105,4.1631,4.2088,4.2199,4.1859,4.1606,4.1492,4.1172,4.085,4.0619,4.027,3.9893,3.9528,3.9295,3.9031,3.8788,3.8573,3.7863,3.7627,3.7863,3.6886,3.63,3.5932,3.5811,3.5666,3.5438,3.5707,3.5666,3.5418,3.5418,3.5418,3.5418,3.5294,3.5046,3.4797,3.3253,3.3126,3.3544]},{"header":{"parameterUnit":"m.s-1","parameterCategory":1,"la1":30.6,"la2":28.766,"lo1":-90.7593,"lo2":-88.6598,"dx":0.0162,"dy":0.0183,"nx":116,"ny":114,"refTime":"2022-11-22T18:00:00:Z","depth":0,"parameterNumber":3,"parameterNumberName":"V-component_of_WINDS"},"data":[0.0,0.0,0.0,0.0,0.0,0.0,0.0,0.0,0.0,0.0,0.0,0.0,0.0,0.0,0.0,0.0,0.0,0.0,0.0,0.0,0.0,0.0,0.0,0.0,0.0,0.0,0.0,0.0,0.0,0.0,0.0,0.0,0.0,0.0,0.0,0.0,0.0,0.0,0.0,0.0,0.0,0.0,0.0,0.0,0.0,0.0,0.0,0.0,0.0,0.0,0.0,0.0,0.0,0.0,0.0,0.0,0.0,0.0,0.0,0.0,0.0,0.0,0.0,0.0,0.0,0.0,0.0,0.0,0.0,0.0,0.0,0.0,0.0,0.0,0.0,0.0,0.0,0.0,0.0,0.0,0.0,0.0,0.0,0.0,0.0,0.0,0.0,0.0,0.0,0.0,0.0,0.0,0.0,0.0,0.0,0.0,0.0,0.0,0.0,0.0,0.0,0.0,0.0,0.0,0.0,0.0,0.0,0.0,0.0,0.0,0.0,0.0,0.0,0.0,0.0,0.0,0.0,0.0,0.0,0.0,0.0,0.0,0.0,0.0,0.0,0.0,0.0,0.0,0.0,0.0,0.0,0.0,0.0,0.0,0.0,0.0,0.0,0.0,0.0,0.0,0.0,0.0,0.0,0.0,0.0,0.0,0.0,0.0,0.0,0.0,0.0,0.0,0.0,0.0,0.0,0.0,0.0,0.0,0.0,0.0,0.0,0.0,0.0,0.0,0.0,0.0,0.0,0.0,0.0,0.0,0.0,0.0,0.0,0.0,0.0,0.0,0.0,0.0,0.0,0.0,0.0,0.0,0.0,0.0,0.0,0.0,0.0,0.0,0.0,0.0,0.0,0.0,0.0,0.0,0.0,0.0,0.0,0.0,0.0,0.0,0.0,0.0,0.0,0.0,0.0,0.0,0.0,0.0,0.0,0.0,0.0,0.0,0.0,0.0,0.0,0.0,0.0,0.0,0.0,0.0,0.0,0.0,0.0,0.0,0.0,0.0,0.0,0.0,0.0,0.0,0.0,0.0,0.0,0.0,0.0,0.0,0.0,0.0,0.0,0.0,0.0,0.0,0.0,0.0,0.0,0.0,0.0,0.0,0.0,0.0,0.0,0.0,0.0,0.0,0.0,0.0,0.0,0.0,0.0,0.0,0.0,0.0,0.0,0.0,0.0,0.0,0.0,0.0,0.0,0.0,0.0,0.0,0.0,0.0,0.0,0.0,0.0,0.0,0.0,0.0,0.0,0.0,0.0,0.0,0.0,0.0,0.0,0.0,0.0,0.0,0.0,0.0,0.0,0.0,0.0,0.0,0.0,0.0,0.0,0.0,0.0,0.0,0.0,0.0,0.0,0.0,0.0,0.0,0.0,0.0,0.0,0.0,0.0,0.0,0.0,0.0,0.0,0.0,0.0,0.0,0.0,0.0,0.0,0.0,0.0,0.0,0.0,0.0,0.0,0.0,0.0,0.0,0.0,0.0,0.0,0.0,0.0,0.0,0.0,0.0,0.0,0.0,0.0,0.0,0.0,0.0,0.0,0.0,0.0,0.0,0.0,0.0,0.0,0.0,0.0,0.0,0.0,0.0,0.0,0.0,0.0,0.0,0.0,0.0,0.0,0.0,0.0,0.0,0.0,0.0,0.0,0.0,0.0,0.0,0.0,0.0,0.0,0.0,0.0,0.0,0.0,0.0,0.0,0.0,0.0,0.0,0.0,0.0,0.0,0.0,0.0,0.0,0.0,0.0,0.0,0.0,0.0,0.0,0.0,0.0,0.0,0.0,0.0,0.0,0.0,0.0,0.0,0.0,0.0,0.0,0.0,0.0,0.0,0.0,0.0,0.0,0.0,0.0,0.0,0.0,0.0,0.0,0.0,0.0,0.0,0.0,0.0,0.0,0.0,0.0,0.0,0.0,0.0,0.0,0.0,0.0,0.0,0.0,0.0,0.0,0.0,0.0,0.0,0.0,0.0,0.0,0.0,0.0,0.0,0.0,0.0,0.0,0.0,0.0,0.0,0.0,0.0,0.0,0.0,0.0,0.0,0.0,0.0,0.0,0.0,0.0,0.0,0.0,0.0,0.0,0.0,0.0,0.0,0.0,0.0,0.0,0.0,0.0,0.0,0.0,0.0,0.0,0.0,0.0,0.0,0.0,0.0,0.0,0.0,0.0,0.0,0.0,0.0,0.0,0.0,0.0,0.0,0.0,0.0,0.0,0.0,0.0,0.0,0.0,0.0,0.0,0.0,0.0,0.0,0.0,0.0,0.0,0.0,0.0,0.0,0.0,0.0,0.0,0.0,0.0,0.0,0.0,0.0,0.0,0.0,0.0,0.0,0.0,0.0,0.0,0.0,0.0,0.0,0.0,0.0,0.0,0.0,0.0,0.0,0.0,0.0,0.0,0.0,0.0,0.0,0.0,0.0,0.0,0.0,0.0,0.0,0.0,0.0,0.0,0.0,0.0,0.0,0.0,0.0,0.0,0.0,0.0,0.0,0.0,0.0,0.0,0.0,0.0,0.0,0.0,0.0,0.0,0.0,0.0,0.0,0.0,0.0,0.0,0.0,0.0,0.0,0.0,0.0,0.0,0.0,0.0,0.0,0.0,0.0,0.0,0.0,0.0,0.0,0.0,0.0,0.0,0.0,0.0,0.0,0.0,0.0,0.0,0.0,0.0,0.0,0.0,0.0,0.0,0.0,0.0,0.0,0.0,0.0,0.0,0.0,0.0,0.0,0.0,0.0,0.0,0.0,0.0,0.0,0.0,0.0,0.0,0.0,0.0,0.0,0.0,0.0,0.0,0.0,0.0,0.0,0.0,0.0,0.0,0.0,0.0,0.0,0.0,0.0,0.0,0.0,0.0,0.0,0.0,0.0,0.0,0.0,0.0,0.0,0.0,0.0,0.0,0.0,0.0,0.0,0.0,0.0,0.0,0.0,0.0,0.0,0.0,0.0,0.0,0.0,0.0,0.0,0.0,0.0,0.0,0.0,0.0,0.0,0.0,0.0,0.0,0.0,0.0,0.0,0.0,0.0,0.0,0.0,0.0,0.0,0.0,0.0,0.0,0.0,0.0,0.0,0.0,0.0,0.0,0.0,0.0,0.0,0.0,0.0,0.0,0.0,0.0,0.0,0.0,0.0,0.0,0.0,0.0,0.0,0.0,0.0,0.0,0.0,0.0,0.0,0.0,0.0,0.0,0.0,0.0,0.0,0.0,0.0,0.0,0.0,0.0,0.0,0.0,0.0,0.0,0.0,0.0,0.0,0.0,0.0,0.0,0.0,0.0,0.0,0.0,0.0,0.0,0.0,0.0,0.0,0.0,0.0,0.0,0.0,0.0,0.0,0.0,0.0,0.0,0.0,0.0,0.0,0.0,0.0,0.0,0.0,0.0,0.0,0.0,0.0,0.0,0.0,0.0,0.0,0.0,0.0,0.0,0.0,0.0,0.0,0.0,0.0,0.0,0.0,0.0,0.0,0.0,0.0,0.0,0.0,0.0,0.0,0.0,0.0,0.0,0.0,0.0,0.0,0.0,0.0,0.0,0.0,0.0,0.0,0.0,0.0,0.0,0.0,0.0,0.0,0.0,0.0,0.0,0.0,0.0,0.0,0.0,0.0,0.0,0.0,0.0,0.0,0.0,0.0,0.0,0.0,0.0,0.0,0.0,0.0,0.0,0.0,0.0,0.0,0.0,0.0,0.0,0.0,0.0,0.0,0.0,0.0,0.0,0.0,0.0,0.0,0.0,0.0,0.0,0.0,0.0,0.0,0.0,0.0,0.0,0.0,0.0,0.0,0.0,0.0,0.0,0.0,0.0,0.0,0.0,0.0,0.0,0.0,0.0,0.0,0.0,0.0,0.0,0.0,0.0,0.0,0.0,0.0,0.0,0.0,0.0,0.0,0.0,0.0,0.0,0.0,0.0,0.0,0.0,0.0,0.0,0.0,0.0,0.0,0.0,0.0,0.0,0.0,0.0,0.0,0.0,0.0,0.0,0.0,0.0,0.0,0.0,0.0,0.0,0.0,0.0,0.0,0.0,0.0,0.0,0.0,0.0,0.0,0.0,0.0,0.0,0.0,0.0,0.0,0.0,0.0,0.0,0.0,0.0,0.0,0.0,0.0,0.0,0.0,0.0,0.0,0.0,0.0,0.0,0.0,0.0,0.0,0.0,0.0,0.0,0.0,0.0,0.0,0.0,0.0,0.0,0.0,0.0,0.0,0.0,0.0,0.0,0.0,0.0,0.0,0.0,0.0,0.0,0.0,0.0,0.0,0.0,0.0,0.0,0.0,0.0,0.0,0.0,0.0,0.0,0.0,0.0,0.0,0.0,0.0,0.0,0.0,0.0,0.0,0.0,0.0,0.0,0.0,0.0,0.0,0.0,0.0,0.0,0.0,0.0,0.0,0.0,0.0,0.0,0.0,0.0,0.0,0.0,0.0,0.0,0.0,0.0,0.0,0.0,0.0,0.0,0.0,0.0,0.0,0.0,0.0,0.0,0.0,0.0,0.0,0.0,0.0,0.0,0.0,0.0,0.0,0.0,0.0,0.0,0.0,0.0,0.0,0.0,0.0,0.0,0.0,0.0,0.0,0.0,0.0,0.0,0.0,0.0,0.0,0.0,0.0,0.0,0.0,0.0,0.0,0.0,0.0,0.0,0.0,0.0,0.0,0.0,0.0,0.0,0.0,0.0,0.0,0.0,0.0,0.0,0.0,0.0,0.0,0.0,0.0,0.0,0.0,0.0,0.0,0.0,0.0,0.0,0.0,0.0,0.0,0.0,0.0,0.0,0.0,0.0,0.0,0.0,0.0,0.0,0.0,0.0,0.0,0.0,0.0,0.0,0.0,0.0,0.0,0.0,0.0,0.0,0.0,0.0,0.0,0.0,0.0,0.0,0.0,0.0,0.0,0.0,0.0,0.0,0.0,0.0,0.0,0.0,0.0,0.0,0.0,0.0,0.0,0.0,0.0,0.0,0.0,0.0,0.0,0.0,0.0,0.0,0.0,0.0,0.0,0.0,0.0,0.0,0.0,0.0,0.0,0.0,0.0,0.0,0.0,0.0,0.0,0.0,0.0,0.0,0.0,0.0,0.0,0.0,0.0,0.0,0.0,0.0,0.0,0.0,0.0,0.0,0.0,0.0,0.0,0.0,0.0,0.0,0.0,0.0,0.0,0.0,0.0,0.0,0.0,0.0,0.0,0.0,0.0,0.0,0.0,0.0,0.0,0.0,0.0,0.0,0.0,0.0,0.0,0.0,0.0,0.0,0.0,0.0,0.0,0.0,0.0,0.0,0.0,0.0,0.0,0.0,0.0,0.0,0.0,0.0,0.0,0.0,0.0,0.0,0.0,0.0,0.0,0.0,0.0,0.0,0.0,0.0,0.0,0.0,0.0,0.0,0.0,0.0,0.0,0.0,0.0,0.0,0.0,0.0,0.0,0.0,0.0,0.0,0.0,0.0,0.0,0.0,0.0,0.0,0.0,0.0,0.0,0.0,0.0,0.0,0.0,0.0,0.0,0.0,0.0,0.0,0.0,0.0,0.0,0.0,0.0,0.0,0.0,0.0,0.0,0.0,0.0,0.0,0.0,0.0,0.0,0.0,0.0,0.0,0.0,0.0,0.0,0.0,0.0,0.0,0.0,0.0,0.0,0.0,0.0,0.0,0.0,0.0,0.0,0.0,0.0,0.0,0.0,0.0,0.0,0.0,0.0,0.0,0.0,0.0,0.0,0.0,0.0,0.0,0.0,0.0,0.0,0.0,0.0,0.0,0.0,0.0,0.0,0.0,0.0,0.0,0.0,0.0,0.0,0.0,0.0,0.0,0.0,0.0,0.0,0.0,0.0,0.0,0.0,0.0,0.0,0.0,0.0,0.0,0.0,0.0,0.0,0.0,0.0,0.0,0.0,0.0,0.0,0.0,0.0,0.0,0.0,0.0,0.0,0.0,0.0,0.0,0.0,0.0,0.0,0.0,0.0,0.0,0.0,0.0,0.0,0.0,0.0,0.0,0.0,0.0,0.0,0.0,0.0,0.0,0.0,0.0,0.0,0.0,0.0,0.0,0.0,0.0,0.0,0.0,0.0,0.0,0.0,0.0,0.0,0.0,-2.2539,0.0,0.0,0.0,0.0,0.0,0.0,0.0,0.0,0.0,0.0,0.0,0.0,0.0,0.0,0.0,0.0,0.0,0.0,0.0,0.0,0.0,0.0,0.0,0.0,-1.3462,-1.3528,-1.3682,-1.3432,0.0,0.0,0.0,0.0,0.0,0.0,0.0,0.0,0.0,-1.4935,-1.5565,-1.7476,-1.9139,-2.05,-2.0484,-1.8952,-1.6155,0.0,0.0,0.0,0.0,0.0,0.0,0.0,0.0,0.0,0.0,0.0,0.0,0.0,0.0,0.0,0.0,0.0,0.0,0.0,0.0,0.0,0.0,0.0,0.0,0.0,0.0,0.0,0.0,0.0,0.0,0.0,0.0,0.0,0.0,0.0,0.0,0.0,0.0,0.0,0.0,0.0,0.0,0.0,0.0,0.0,0.0,0.0,0.0,0.0,0.0,0.0,0.0,0.0,0.0,0.0,0.0,0.0,0.0,0.0,0.0,0.0,0.0,0.0,0.0,0.0,0.0,0.0,0.0,0.0,0.0,0.0,-2.4413,0.0,0.0,0.0,0.0,0.0,0.0,0.0,0.0,0.0,0.0,0.0,0.0,0.0,0.0,0.0,0.0,0.0,0.0,0.0,0.0,0.0,-1.3546,-1.3479,-1.3446,-1.3477,-1.3713,-1.3833,-1.3977,-1.4216,-1.4331,0.0,0.0,0.0,0.0,0.0,0.0,-1.6286,-1.7096,-2.0278,-2.3217,-2.5862,-2.7177,-2.4723,-1.9223,-1.9171,0.0,0.0,0.0,0.0,0.0,0.0,0.0,0.0,0.0,0.0,0.0,0.0,0.0,0.0,0.0,0.0,0.0,0.0,0.0,0.0,0.0,0.0,0.0,0.0,0.0,0.0,0.0,0.0,0.0,0.0,0.0,0.0,0.0,0.0,0.0,0.0,0.0,0.0,0.0,0.0,0.0,0.0,0.0,0.0,0.0,0.0,0.0,0.0,0.0,0.0,0.0,0.0,0.0,0.0,0.0,0.0,0.0,0.0,0.0,0.0,0.0,0.0,0.0,-3.2481,-3.3055,-3.3091,-3.4563,-3.5078,-3.4715,-3.3391,-3.0291,-2.6056,0.0,0.0,0.0,0.0,0.0,0.0,0.0,0.0,0.0,0.0,0.0,0.0,0.0,0.0,0.0,0.0,0.0,0.0,0.0,0.0,-1.3429,-1.3395,-1.3396,-1.3477,-1.3768,-1.3813,-1.3941,-1.4268,-1.4306,0.0,0.0,0.0,0.0,0.0,-1.6702,-1.8153,-2.1062,-2.4652,-2.6935,-2.7903,-2.8144,-2.7713,-2.679,-2.5737,-2.3766,-2.1278,0.0,0.0,0.0,0.0,0.0,0.0,0.0,0.0,0.0,0.0,0.0,0.0,0.0,0.0,0.0,0.0,0.0,0.0,0.0,0.0,0.0,0.0,0.0,0.0,0.0,0.0,0.0,0.0,0.0,0.0,0.0,0.0,0.0,0.0,0.0,0.0,0.0,0.0,0.0,0.0,0.0,-2.4682,-2.2776,0.0,0.0,0.0,0.0,0.0,0.0,0.0,0.0,0.0,0.0,0.0,0.0,0.0,-3.1506,-3.1517,-3.3056,-3.3887,-3.4081,-3.6777,-3.8043,-3.8151,-4.0874,-4.2078,-4.2037,-4.1823,0.0,-3.0621,-2.8252,0.0,0.0,0.0,0.0,0.0,0.0,0.0,0.0,0.0,0.0,0.0,0.0,0.0,0.0,0.0,0.0,0.0,0.0,0.0,0.0,0.0,-1.5178,-1.6135,-1.663,-1.7914,-1.8287,-1.7294,-1.7275,0.0,0.0,0.0,0.0,0.0,0.0,-2.2589,-2.7596,-3.0017,-3.2008,-3.3602,-3.4431,-3.4827,-3.4724,-3.38,-3.0566,-2.5574,-2.2461,0.0,0.0,0.0,0.0,0.0,0.0,0.0,0.0,0.0,0.0,0.0,0.0,0.0,0.0,0.0,0.0,0.0,0.0,0.0,0.0,0.0,0.0,0.0,0.0,0.0,0.0,0.0,0.0,0.0,0.0,0.0,0.0,0.0,0.0,0.0,0.0,0.0,0.0,0.0,-2.1645,-2.3604,-2.1683,-2.3183,-2.346,0.0,0.0,0.0,0.0,0.0,0.0,0.0,0.0,0.0,-3.0087,-3.3834,-3.6033,-3.6509,-3.8669,-4.0291,-4.1288,-4.2322,-4.2969,-4.324,-4.4448,-4.4886,-4.4749,-4.4886,-4.3001,-3.954,-3.5365,-3.2511,-3.0559,0.0,0.0,0.0,0.0,0.0,-2.8141,0.0,0.0,0.0,0.0,0.0,0.0,0.0,0.0,0.0,0.0,0.0,0.0,-1.5571,-1.7669,-1.9229,-1.9762,-2.1464,-2.1644,-1.9682,-1.9653,-1.8893,0.0,0.0,0.0,0.0,0.0,0.0,-3.2194,-3.4103,-3.6005,-3.7861,-3.8899,-3.947,-3.9572,-3.894,-3.5652,-3.0268,-2.6301,-2.4838,-2.4757,0.0,0.0,0.0,0.0,0.0,0.0,0.0,0.0,0.0,0.0,0.0,0.0,0.0,0.0,0.0,0.0,0.0,0.0,0.0,0.0,0.0,0.0,0.0,0.0,0.0,0.0,0.0,0.0,0.0,0.0,0.0,0.0,0.0,0.0,0.0,0.0,0.0,-2.2625,-2.4318,-2.2035,-2.4429,-2.5423,0.0,0.0,0.0,0.0,0.0,0.0,-2.8933,-3.217,-3.4255,-3.4685,-3.8138,-4.0361,-4.1232,-4.347,-4.5292,-4.6597,-4.6362,-4.6362,-4.6597,-4.6663,-4.6521,-4.6247,-4.6557,-4.6738,-4.6414,-4.14,-3.8028,-3.5971,-3.4646,-3.4175,-3.4171,-3.4142,-3.4142,-3.4142,0.0,0.0,0.0,0.0,0.0,0.0,0.0,0.0,0.0,0.0,0.0,-1.8041,-1.871,-2.0763,-2.2146,-2.231,-2.2439,-2.1694,-1.9815,-1.9714,-1.9142,-1.7892,-1.7835,0.0,0.0,0.0,0.0,-3.247,-3.5687,-3.7603,-3.8263,-3.8007,-3.833,-3.9013,-3.8393,-3.7047,-3.5074,-3.3826,-3.2126,-2.987,-2.4379,0.0,0.0,0.0,0.0,0.0,0.0,0.0,0.0,0.0,0.0,0.0,0.0,0.0,0.0,0.0,0.0,0.0,0.0,0.0,0.0,0.0,0.0,0.0,0.0,0.0,0.0,0.0,0.0,0.0,0.0,0.0,0.0,0.0,0.0,0.0,0.0,0.0,0.0,-2.7266,-2.8639,0.0,0.0,0.0,0.0,-3.3185,-3.3537,-3.3648,-3.4031,-3.6685,-3.8554,-3.9328,-4.2514,-4.4565,-4.5407,-4.5914,-4.643,-4.6907,-4.7239,-4.7243,-4.7019,-4.7607,-4.7716,-4.7428,-4.7778,-4.8125,-4.8099,-4.3623,-4.1662,-4.1244,-3.8391,-3.7255,-3.7255,-3.7255,-3.7255,-3.7255,0.0,0.0,0.0,-1.298,-1.3072,-1.3244,-1.3544,-1.356,-1.3818,-1.4624,-1.6462,-1.8232,-1.9568,-2.282,-2.5411,-2.6588,-2.7401,-2.7267,-2.572,-2.4419,-2.2902,-2.1176,-2.0471,0.0,0.0,0.0,-3.2663,-3.5759,-3.7319,-3.8241,-3.8638,-3.8966,-3.9254,-3.9504,-3.8759,-3.851,-3.8502,-3.5768,-3.4624,-3.4308,-2.9822,-2.6678,0.0,0.0,0.0,0.0,0.0,0.0,0.0,0.0,0.0,0.0,0.0,0.0,0.0,0.0,0.0,0.0,0.0,0.0,0.0,0.0,0.0,0.0,0.0,0.0,0.0,0.0,0.0,0.0,0.0,0.0,0.0,0.0,0.0,0.0,0.0,0.0,0.0,-3.035,-3.2822,0.0,-3.2402,-3.1867,-3.2354,-3.4149,-3.638,-3.7779,-3.8136,-4.1319,-4.3387,-4.3956,-4.5063,-4.6059,-4.6979,-4.7316,-4.8125,-4.9292,-4.9803,-5.0217,-5.0446,-5.0844,-5.0959,-5.082,-5.0994,-5.1244,-5.1435,-4.9855,-4.7674,-4.5281,-4.3719,-4.3084,-4.3084,-4.3084,-4.3084,-4.3084,0.0,0.0,0.0,-1.2929,-1.3054,-1.3227,-1.3546,-1.3751,-1.4418,-1.5974,-1.8166,-2.0363,-2.2462,-2.6084,-2.8777,-2.9668,-3.0656,-3.0325,-2.8152,-2.6678,-2.4856,-2.2471,-2.2402,0.0,0.0,-3.1859,-3.4198,-3.7429,-3.7848,-3.8419,-3.9144,-3.9432,-3.9863,-4.0367,-3.9657,-3.977,-4.0379,-3.8004,-3.7599,-3.824,-3.464,-3.094,-2.7328,0.0,0.0,0.0,0.0,0.0,0.0,0.0,0.0,0.0,0.0,0.0,0.0,0.0,0.0,0.0,0.0,0.0,0.0,0.0,0.0,0.0,0.0,0.0,0.0,0.0,0.0,0.0,0.0,0.0,0.0,0.0,0.0,0.0,0.0,0.0,-3.2866,-3.2761,-3.5483,-3.7168,-3.6604,-3.6094,-3.6482,-3.8136,-4.0467,-4.1948,-4.231,-4.4623,-4.6319,-4.7154,-4.7154,-4.7745,-4.8927,-4.9196,-4.9821,-5.089,-5.1375,-5.1746,-5.201,-5.2714,-5.2902,-5.2834,-5.3225,-5.3405,-5.349,-5.349,-5.1935,-4.9568,-4.887,-4.8556,-4.8556,-4.8556,-4.8556,-4.8556,0.0,0.0,-1.2542,-1.2778,-1.2965,-1.321,-1.3546,-1.4161,-1.5697,-1.8711,-2.1664,-2.4591,-2.7468,-3.048,-3.1968,-3.1326,-3.1698,-3.0374,-2.658,-2.6113,-2.4622,-2.1621,0.0,0.0,-3.2401,-3.2544,-3.4058,-3.7126,-3.7276,-3.8206,-3.9815,-3.9336,-3.9987,-4.1541,-4.0995,-4.0766,-4.076,-4.0826,-4.1243,-4.1499,-3.8659,-3.5628,-3.2454,0.0,0.0,0.0,0.0,0.0,0.0,0.0,0.0,0.0,0.0,0.0,0.0,0.0,0.0,0.0,0.0,0.0,0.0,0.0,0.0,0.0,0.0,0.0,0.0,0.0,0.0,0.0,0.0,0.0,0.0,0.0,0.0,0.0,-2.8029,-3.2727,-3.5794,-3.4811,-3.6772,-3.8831,-4.0522,-4.0255,-4.1632,-4.5626,-4.5993,-4.6209,-4.6587,-4.6624,-4.7367,-4.893,-4.9002,-4.9782,-5.1417,-5.1417,-5.1454,-5.1491,-5.1845,-5.1848,-5.1566,-5.304,-5.3518,-5.3292,-5.4391,-5.4603,-5.408,-5.408,-5.408,-5.4028,-5.3435,-5.3247,-5.3247,-5.3247,-5.319,-5.319,-1.221,-1.2252,-1.2383,-1.2759,-1.2852,-1.3016,-1.3446,-1.4093,-1.5561,-1.842,-2.1183,-2.4115,-2.7257,-2.9621,-3.1391,-3.242,-3.2017,-3.1083,-2.9627,-2.8046,-2.6633,-2.5415,0.0,0.0,-3.3248,-3.4939,-3.6526,-3.7972,-3.8129,-3.8777,-3.9811,-3.972,-3.9902,-4.0292,-4.0042,-3.9729,-3.9445,-4.0165,-4.0533,-4.0626,-4.0536,-3.9104,-3.6882,0.0,0.0,0.0,0.0,0.0,0.0,0.0,0.0,0.0,0.0,0.0,0.0,0.0,0.0,0.0,0.0,0.0,0.0,0.0,0.0,0.0,0.0,0.0,0.0,0.0,0.0,0.0,0.0,0.0,0.0,0.0,-3.2527,-3.5294,-3.552,-3.6823,-3.8754,-4.1394,-4.2874,-4.4177,-4.5512,-4.5844,-4.6322,-4.7122,-4.8305,-4.8748,-4.8296,-4.9373,-5.0343,-5.0996,-5.0787,-5.1306,-5.2541,-5.2618,-5.2913,-5.3502,-5.4391,-5.4755,-5.4702,-5.5704,-5.6128,-5.6007,-5.6296,-5.6414,-5.6263,-5.6263,-5.6263,-5.6052,-5.4024,-5.3673,-5.4281,-5.3455,-5.319,-5.312,-1.221,-1.2272,-1.2423,-1.2741,-1.2885,-1.3049,-1.3413,-1.4312,-1.6176,-1.9629,-2.2045,-2.498,-2.8925,-3.0496,-3.16,-3.2512,-3.1566,-3.0442,-2.9293,-2.8048,-2.8056,0.0,0.0,-3.3878,-3.5008,-3.647,-3.7737,-3.8863,-3.9301,-3.9949,-4.0851,-4.0851,-4.0811,-4.073,-4.0648,-4.0228,-3.9643,-3.9866,-4.0346,-4.0991,-4.0919,-3.9672,-3.786,-3.7659,-3.5172,-3.1779,-3.1618,-3.1213,-3.0266,-2.7112,0.0,0.0,0.0,0.0,0.0,0.0,0.0,0.0,0.0,0.0,0.0,0.0,0.0,0.0,0.0,0.0,0.0,0.0,0.0,0.0,0.0,0.0,0.0,0.0,-3.5631,-3.9511,-4.1306,-4.1535,-4.2405,-4.4956,-4.6472,-4.7616,-4.8311,-4.879,-4.8974,-4.8707,-5.0228,-5.0933,-5.0488,-5.149,-5.2262,-5.2625,-5.2592,-5.3001,-5.3842,-5.4252,-5.4695,-5.5138,-5.5802,-5.6071,-5.6108,-5.6905,-5.7271,0.0,-5.7601,-5.7836,-5.7972,-5.7972,-5.8154,0.0,0.0,0.0,0.0,0.0,-5.4556,-5.4373,-1.221,-1.2354,-1.2554,-1.2773,-1.294,-1.3138,-1.3379,-1.4633,-1.7154,-2.1434,-2.3425,-2.6354,-3.1348,-3.2075,-3.215,-3.1976,-3.0796,-2.9268,-2.7398,-2.7537,0.0,-3.3246,-3.3335,-3.4449,-3.6856,-3.729,-3.8258,-3.9722,-4.0607,-4.1469,-4.2388,-4.2334,-4.2257,-4.2079,-4.2058,-4.1548,-4.0539,-3.9911,-4.0518,-4.1742,-4.0235,-3.881,-3.7555,-3.7932,-3.5549,-3.209,-3.2476,-3.2603,-3.2428,-3.1426,0.0,0.0,0.0,0.0,0.0,0.0,0.0,0.0,0.0,0.0,0.0,0.0,0.0,0.0,0.0,0.0,0.0,0.0,0.0,0.0,0.0,0.0,0.0,0.0,-3.8116,-4.1871,-4.5553,-4.6069,-4.6205,-4.6458,-4.836,-4.9627,-4.9667,-5.0195,-5.0525,-5.0489,-5.2085,-5.2977,-5.2865,0.0,0.0,0.0,0.0,-5.4723,-5.5312,-5.6057,-5.6469,-5.658,-5.6655,-5.6729,-5.6729,-5.7546,-5.7918,-5.7955,-5.8661,-5.9109,-5.9245,-5.9245,-5.9674,-6.0176,-5.8394,-5.7616,-5.7391,-5.6999,-5.6692,0.0,-1.219,-1.2231,-1.2363,-1.2735,-1.2829,-1.2977,-1.3329,-1.4666,-1.712,-2.1344,-2.3274,-2.6016,-3.0644,-3.1483,-3.1722,-3.1679,-3.0983,-3.0099,-2.9008,0.0,-3.2477,-3.2873,-3.4628,-3.5877,-3.6409,-3.7716,-3.9008,-4.032,-4.178,-4.26,-4.2785,-4.3545,-4.3112,-4.1902,-4.2494,-4.1877,-4.0489,-4.0433,-4.0455,-4.0492,-3.969,-4.0413,-4.1905,-4.16,-4.0736,-3.9727,-3.9477,-3.9373,-3.8918,-3.6227,-3.4976,-3.4097,-3.1292,-2.7905,0.0,0.0,0.0,0.0,0.0,0.0,0.0,0.0,0.0,0.0,0.0,0.0,0.0,0.0,0.0,0.0,0.0,0.0,0.0,-3.6795,-4.1403,-4.5442,-4.7348,-4.7748,-4.7819,-4.774,-4.9365,-5.0551,-5.0782,-5.2158,-5.305,-5.3011,-5.461,-5.528,-5.4574,-5.5275,-5.5817,-5.6147,-5.596,-5.633,-5.7324,-5.7265,-5.7583,-5.8252,0.0,0.0,-5.9255,-6.011,-6.0481,-6.0481,-6.0667,-6.0478,-6.0089,-6.0089,-5.9983,-5.9921,-5.9786,-5.8934,-5.7786,-5.8071,-5.7883,-5.7515,-1.2075,-1.2148,-1.2272,-1.2581,-1.2735,-1.2885,-1.3067,-1.4502,-1.6673,-1.971,-2.1607,-2.407,-2.769,-2.8018,-2.8319,-2.9092,-2.9394,-2.9588,0.0,-3.1881,-3.3543,-3.4288,-3.5077,-3.5776,-3.6284,-3.759,-3.9202,-4.1129,-4.2722,-4.3729,-4.4163,-4.4632,-4.3951,-4.2379,-4.2732,-4.2185,-4.1007,-4.0707,-4.0913,-4.1358,-3.9876,-4.0386,-4.2002,-4.1049,-4.06,-4.0429,-4.0472,-4.0805,-4.0967,-3.9067,-3.8438,-3.7916,-3.4681,-3.255,-3.0581,0.0,0.0,0.0,0.0,0.0,0.0,0.0,0.0,0.0,0.0,0.0,0.0,0.0,0.0,-2.9379,-3.1013,0.0,-3.8602,-3.9591,-4.3743,-4.7202,-4.8347,-4.964,-5.012,-4.9158,-5.0968,-5.2153,-5.1898,-5.3754,-5.4832,-5.4385,-5.5909,-5.6729,-5.6283,-5.6821,-5.71,-5.71,-5.71,-5.7285,-5.7728,-5.8349,-5.8921,-5.9329,-6.0147,-6.0555,-6.0593,-6.1001,-6.1056,-6.0757,-6.0757,-6.0614,-6.0449,-6.0938,-6.0811,-6.038,-6.0575,-5.9901,-5.8779,-5.8779,-5.8591,-5.8178,-1.1991,-1.2033,-1.2159,-1.2435,-1.262,-1.2773,-1.2848,-1.4269,-1.6059,-1.817,-1.9915,-2.2035,-2.4843,-2.4775,-2.5039,-2.6183,-2.7842,-2.9105,0.0,-3.2189,-3.4197,-3.5752,-3.5237,-3.5304,-3.619,-3.7339,-3.9144,-4.1604,-4.3114,-4.4272,-4.4869,-4.5011,-4.4223,-4.2652,-4.2828,-4.2396,-4.1569,-4.0797,-4.1268,-4.2262,-3.9987,-3.9726,-4.0565,-3.9364,-3.8961,-3.911,-3.9548,-3.9987,-4.0383,-4.05,-4.0641,-4.0254,-3.7552,-3.6704,-3.5562,-2.9663,-2.994,0.0,0.0,0.0,0.0,0.0,0.0,0.0,0.0,-2.8478,-2.973,-3.2317,-3.3422,-3.4415,-3.6043,-3.8799,-4.1156,-4.2109,-4.5605,-4.8444,-4.9262,-5.1119,-5.19,-5.0639,-5.2456,-5.3496,-5.2865,-5.4758,-5.5837,-5.5241,-5.6803,-5.7732,-5.7732,-5.795,-5.798,-5.7769,-5.8091,-5.8164,-5.7992,-5.9441,-6.0147,-6.0184,-6.1038,-6.1447,-6.1447,-6.1596,-6.1328,-6.0738,-6.0505,-6.0513,-6.0702,-6.1332,-6.1279,-6.0843,-6.0843,-6.0391,-5.9799,-5.9382,-5.9082,-5.884,-1.197,-1.2012,-1.2096,-1.2363,-1.2495,-1.2639,-1.2995,-1.38,-1.5428,-1.8434,-1.9596,-2.1252,-2.4259,-2.4877,-2.5044,-2.4944,-2.7878,0.0,-3.0056,-3.364,-3.5668,-3.5464,-3.5374,-3.5492,-3.5922,-3.7403,-3.9075,-4.0896,-4.2466,-4.3193,-4.3125,-4.3757,-4.3265,-4.178,-4.2482,-4.2342,-4.1569,-4.0797,-4.0813,-4.1153,-3.9435,-3.9085,-3.9509,-3.8852,-3.8876,-3.9223,-3.9632,-3.8609,-3.7465,-4.0454,-3.9576,-3.7731,-4.0494,-3.8821,-3.5282,-3.2382,-2.9718,-2.7033,-2.3927,-2.5677,-2.8446,-2.8782,-3.0485,-3.2201,0.0,-3.3102,-3.3303,-3.3691,-3.4296,-3.5249,-3.6876,-3.9626,-4.2165,-4.3669,-4.7243,-5.0116,-5.1008,-5.1342,-5.1751,-5.2271,-5.32,-5.368,-5.341,-5.4457,-5.5389,-5.594,-5.758,-5.8586,-5.8586,-5.8619,-5.8619,-5.8586,-5.9287,-5.9696,-5.9627,-6.0593,-6.1038,-6.1076,-6.1893,-6.2264,-6.2301,-6.3007,-6.2993,-6.2388,-6.1387,-6.0948,-6.0938,-6.0441,-6.0262,-6.0199,-6.0199,-6.0164,-6.0093,-5.9966,-5.996,-5.9953,-1.1854,-1.1949,-1.2033,-1.2096,-1.2323,-1.2574,-1.2748,-1.3582,-1.4688,-1.5971,-1.7288,-1.8538,-1.9815,-2.1105,-2.1789,-2.1635,0.0,0.0,-2.8966,-3.3134,-3.5509,-3.5419,-3.5362,-3.5542,-3.6028,-3.7123,-3.8431,-4.0006,-4.099,-4.1773,-4.2396,-4.238,-4.1882,-4.0908,-4.115,-4.0831,-4.0149,-3.9926,-4.0076,-4.0324,-3.9296,-3.9157,-3.9531,-3.8915,-3.9017,-3.925,-3.7996,-3.711,0.0,-3.8291,-3.7964,-3.7394,-4.0432,-3.9513,-3.6761,-3.3726,-3.2569,-3.2375,-3.2958,-3.262,-3.2499,-3.418,-3.5776,-3.6765,-3.6159,-3.6405,-3.7433,-3.9827,-4.0413,-4.1154,-4.3276,-4.4504,-4.5786,-4.7355,-4.9036,-5.0599,-5.1936,-5.2494,-5.3274,-5.4611,-5.5151,-5.5138,-5.4417,-5.5649,-5.6763,-5.758,-5.8285,-5.8698,-5.8698,-5.9144,-5.9404,-5.9404,-6.0221,-6.0667,-6.0667,-6.1143,-6.155,-6.193,-6.2034,-6.2254,-6.2546,-6.2585,-6.2271,-6.164,-6.0843,-6.0512,-6.045,-6.0199,-6.0107,-6.0107,-6.0107,-6.0107,-6.0107,-6.0107,-6.0107,-6.0107,-1.1811,-1.1949,-1.2012,-1.197,-1.22,-1.2455,-1.2522,-1.3252,-1.3927,-1.4241,-1.5348,-1.6258,-1.6665,-1.8134,-1.9204,-1.9434,0.0,0.0,0.0,-3.1746,-3.4308,-3.5157,-3.5224,-3.5429,-3.5994,-3.6661,-3.7718,-3.911,-3.9558,-4.025,-4.1257,-4.0827,-4.0446,-4.0065,-3.9991,-3.9686,-3.9252,-3.9211,-3.938,-3.9578,-3.8977,-3.8971,-3.9333,-3.8994,-3.8745,-3.835,-3.6587,-3.5775,-3.5556,-3.5736,-3.5398,-3.5344,-3.8011,-3.8014,-3.6455,-3.3267,-3.2888,-3.4179,-3.7112,-3.6748,-3.6098,-3.8348,-3.9951,-4.0669,-3.9499,-3.9692,-4.106,-4.4256,-4.4874,-4.5519,-4.777,-4.7932,-4.8221,-4.9856,-5.0339,-5.1046,-5.249,-5.3415,-5.4485,-5.5987,-5.63,-5.6246,-5.5902,-5.6921,-5.7788,-5.8364,-5.8586,-5.8809,-5.9032,-5.9589,-6.0035,-6.0258,-6.0907,-6.1263,-6.1263,-6.1496,-6.1801,-6.2261,-6.2016,-6.2076,-6.2442,-6.1915,-6.1394,-6.0962,-6.0388,-6.0107,-6.0107,-6.0107,-6.0107,-6.0107,-6.0107,-6.0107,-6.0107,-6.0107,-6.0043,-5.9978,-1.1906,-1.2012,-1.2075,-1.2075,-1.2169,-1.2302,-1.2626,-1.2773,-1.3254,-1.4356,-1.4528,-1.5122,-1.6529,-1.7561,-1.8521,-1.9421,0.0,0.0,0.0,-2.9671,-3.1858,-3.4493,-3.4958,-3.5371,-3.5729,-3.6137,-3.6936,-3.823,-3.8265,-3.8573,-3.9086,-3.9051,-3.918,-3.935,-3.937,-3.9494,-3.958,-3.8996,-3.8827,-3.8866,-3.8223,-3.8174,-3.8559,-3.8892,-3.7702,-3.5926,-3.6121,-3.4824,-3.3053,-3.3236,-3.1683,-3.0092,-3.2786,-3.3579,-3.3033,-3.0391,-2.8491,-2.7968,-3.1106,-3.4135,-3.692,-3.9186,-4.159,-4.3391,-4.3316,-4.3415,-4.3815,-4.4724,-4.5327,-4.6157,-4.7883,-4.7932,-4.8221,-4.9856,-5.0822,-5.175,-5.2821,-5.3659,-5.4582,-5.5667,-5.5835,-5.6414,0.0,-5.7923,-5.7737,-5.7542,-5.8252,-5.9032,-5.9812,-5.9887,-6.0295,-6.115,-6.1403,-6.1484,-6.1484,-6.1745,-6.1915,-6.1915,-6.1897,-6.1897,-6.1897,-6.1279,-6.1022,-6.0962,-6.0388,-6.0107,-6.0107,-6.0107,-6.0107,-6.0107,-6.0107,-6.0107,-6.0107,-6.0107,-5.9879,-5.9652,-1.1906,-1.197,-1.2012,-1.197,-1.2054,-1.2262,-1.2646,-1.2639,-1.287,-1.3596,-1.4121,0.0,0.0,0.0,0.0,0.0,0.0,0.0,0.0,-2.8263,-3.1191,-3.2211,-3.4496,-3.5858,-3.6061,-3.6229,-3.6693,-3.7535,-3.7361,-3.7603,-3.8185,-3.7826,-3.7742,-3.7871,-3.7872,-3.7862,-3.7945,-3.7964,-3.8006,-3.8115,-3.8246,-3.8496,-3.8619,-3.7262,-3.6429,-3.5587,0.0,-3.0979,-3.0491,-3.0633,-3.0151,-2.9948,-3.2576,-3.2225,-3.043,-2.8413,-2.9054,-3.1051,-3.4132,-3.6897,-3.96,-4.2397,-4.3717,-4.4297,-4.4348,-4.4423,-4.4876,-4.6278,-4.5344,-4.4813,-4.6485,-4.6532,-4.6712,-4.8044,-5.0007,-5.1858,-5.3162,-5.3807,-5.4838,-5.6428,-5.674,-5.7388,-5.8858,0.0,0.0,-5.8555,-5.9159,-5.9627,-5.9887,-6.0964,-6.1707,-6.2004,-6.2214,-6.2291,-6.2291,-6.1642,-6.1508,-6.1897,-6.1508,-6.1104,-6.0722,-6.0227,-6.0072,-6.0072,-5.9879,-5.9783,-5.9783,-6.0043,-6.0107,-6.0107,-6.0107,-6.0107,-6.0142,-6.0704,-6.045,-5.9942,0.0,-1.2033,-1.2054,-1.2012,-1.2138,0.0,0.0,0.0,0.0,0.0,0.0,0.0,0.0,0.0,0.0,0.0,0.0,0.0,0.0,0.0,-2.8223,-2.9681,-3.1924,-3.3362,-3.3874,-3.4025,-3.4268,-3.4673,-3.5218,-3.5723,-3.6285,-3.6643,-3.6975,-3.72,-3.7145,-3.7203,-3.7317,-3.7685,-3.7897,-3.7857,-3.715,-3.7063,-3.7013,-3.4396,-3.3047,0.0,-2.9166,-2.7807,-2.7489,-2.7926,-2.8122,-2.8449,-3.013,-2.9701,-2.8572,-2.8429,-3.0351,-3.3346,-3.6998,-3.9514,-4.1801,-4.4511,-4.5191,-4.5164,-4.5217,-4.5067,-4.5369,-4.7036,-4.5382,-4.4107,-4.5786,-4.5067,-4.4699,-4.6147,-4.7727,-4.9714,-5.2344,-5.2988,-5.4199,-5.694,-5.7427,-5.8117,-5.9516,-5.9108,-5.9006,-5.9491,-5.9775,-6.0184,-6.0778,-6.1819,-6.2435,-6.2475,-6.2438,-6.2339,-6.2129,-6.1163,-6.0903,-6.1279,-6.0747,-6.029,-5.9879,-5.9718,-5.9586,-5.9652,-5.9718,-5.9783,-5.9783,-6.0043,-6.0247,-6.0528,-6.0528,-6.0528,-6.0633,-6.1274,-6.0943,-6.0324,0.0,0.0,-1.221,0.0,0.0,0.0,0.0,0.0,0.0,0.0,0.0,0.0,0.0,0.0,0.0,0.0,0.0,0.0,0.0,0.0,0.0,-2.6947,-2.7639,-2.8459,-2.9451,-2.9817,-3.0047,-3.0113,-3.1917,-3.2962,-3.3319,-3.5227,-3.6357,-3.6856,-3.693,-3.7005,-3.7184,-3.7697,-3.7885,-3.7593,-3.486,-3.3905,-3.3821,-3.0562,-2.8039,-2.6211,-2.6271,-2.539,-2.4308,-2.5308,-2.5761,-2.5924,-2.6041,-2.6706,-2.7881,-3.0351,-3.2342,-3.4778,-3.9293,-4.1737,-4.3468,-4.5519,-4.5995,-4.5995,-4.6032,-4.5457,-4.5331,-4.6847,-4.5155,-4.388,-4.5395,-4.3563,-4.2462,-4.4308,-4.4599,-4.6227,-5.0763,-5.1471,-5.3062,-5.7279,-5.779,-5.8448,-5.9995,-6.0411,-6.055,-6.0396,0.0,-6.0741,-6.2339,-6.2406,-6.2475,-6.2658,-6.2129,-6.1564,-6.1022,-6.0388,-6.0107,-6.0107,-5.9783,-5.9586,-5.9586,-5.9586,-5.9586,-5.9586,-5.9914,-6.0043,-6.0107,-6.0142,-6.0598,-6.13,-6.13,-6.127,-6.131,-6.1673,-6.1362,-6.0875,0.0,0.0,0.0,0.0,0.0,0.0,0.0,0.0,0.0,0.0,0.0,0.0,0.0,0.0,0.0,0.0,0.0,0.0,0.0,0.0,0.0,0.0,0.0,0.0,0.0,0.0,0.0,-3.0391,-3.03,-3.0361,-3.0606,-3.0457,-3.0457,-3.0576,-3.0779,-3.0864,-3.0892,-3.1269,-3.1396,-3.1311,-3.0828,-3.0686,-3.0487,-2.7997,-2.674,-2.6121,-2.443,-2.3585,-2.3465,-2.442,-2.6474,-2.8943,-3.0859,-3.2031,-3.2967,-3.4212,-3.6625,-3.9349,-4.1622,-4.377,-4.5718,-4.737,-4.6862,-4.6145,-4.6749,-4.5873,-4.4673,-4.3923,-4.2341,-4.0824,-4.0063,-4.1316,-4.2694,-4.3478,-4.7315,-5.0814,-5.2465,-5.3528,-5.5044,-5.7499,-5.8178,-5.9076,-6.064,-6.0696,-6.0864,0.0,-6.165,-6.1967,-6.2376,-6.253,-6.2659,-6.2695,-6.1751,-6.1198,-6.1022,-6.0388,-6.0107,-6.0107,-5.9783,-5.9586,-5.9586,-5.9047,-5.8875,-5.9149,-5.9217,-5.9418,-5.9818,-6.0609,-6.0959,-6.0869,-6.0834,-6.098,-6.1224,-6.1361,-6.1459,-6.1654,0.0,0.0,0.0,0.0,0.0,0.0,0.0,0.0,0.0,0.0,0.0,0.0,0.0,0.0,0.0,0.0,0.0,0.0,0.0,0.0,0.0,0.0,0.0,0.0,0.0,0.0,0.0,-2.6534,-2.6952,-2.729,-2.7594,-2.7994,-2.8308,-2.85,-2.8664,-2.8737,-2.8737,-2.9038,-2.9169,0.0,0.0,-2.7565,-2.732,-2.4612,-2.3638,-2.3561,-2.2249,-2.3291,-2.5607,-2.7655,-2.9883,-3.203,-3.3083,-3.3975,-3.4934,-3.6469,-3.8665,-4.1052,-4.3358,-4.5321,-4.6934,-4.7727,-4.7229,-4.6259,-4.5318,-4.417,-4.2883,-4.1238,-3.9376,-3.7861,-3.7321,-3.8735,-4.0282,-4.1311,-4.526,-4.8983,-5.1528,-5.2588,-5.41,-5.6755,-5.7786,-5.8757,-5.9997,-6.0438,-6.0798,-6.1171,-6.147,-6.1801,-6.2169,-6.2274,-6.2235,-6.1969,-6.1336,-6.0843,-6.06,-6.0262,-6.0043,-5.9914,-5.9485,-5.9217,-5.9081,-5.8701,-5.8802,-5.9217,0.0,-5.9559,-6.0108,-6.0761,-6.1078,-6.1188,-6.1363,-6.1605,-6.1878,-6.2113,-6.1933,-6.1684,0.0,0.0,0.0,0.0,0.0,0.0,0.0,0.0,0.0,0.0,-1.3932,0.0,0.0,0.0,0.0,0.0,0.0,0.0,0.0,0.0,0.0,0.0,0.0,0.0,0.0,0.0,-2.1406,-2.1534,-2.3163,-2.4096,-2.449,-2.6177,-2.7152,-2.7483,-2.7625,-2.769,-2.7711,-2.8033,-2.8184,-2.7919,-2.5381,-2.4431,-2.4244,0.0,-2.0257,-2.0332,-2.0398,-2.37,-2.8552,-3.2006,-3.4153,-3.5298,-3.4822,-3.5147,-3.6105,-3.8399,-3.989,-4.1532,-4.4729,-4.6428,-4.7353,-4.7424,-4.7418,-4.6474,-4.3147,-4.1933,-4.0857,-3.869,-3.6659,-3.54,-3.5752,-3.6184,-3.7168,-3.9252,-4.1699,-4.5054,-4.9728,-5.0773,-5.2307,-5.5741,-5.7114,-5.8167,-5.9038,-6.0078,-6.0651,-6.0432,-6.0447,-6.0882,-6.177,-6.1787,-6.1508,-6.0903,-6.0903,-6.06,-6.0107,-6.0043,-5.9914,-5.9586,-5.9149,-5.8736,-5.849,-5.8419,-5.8829,-5.9583,0.0,0.0,-6.0667,-6.0875,-6.1224,-6.178,-6.2085,-6.2324,-6.2568,-6.2787,-6.2169,-6.1249,0.0,0.0,0.0,0.0,0.0,0.0,0.0,0.0,0.0,0.0,-1.5627,-1.5797,0.0,0.0,0.0,0.0,0.0,0.0,0.0,0.0,0.0,0.0,0.0,0.0,0.0,-2.0343,-2.1086,-2.1728,-2.1533,-2.1485,-2.1584,-2.1242,-2.113,-2.1176,-2.14,-2.1416,-2.139,-2.1632,-2.1726,-2.1657,-2.1206,-2.1065,-2.1089,-2.0502,0.0,0.0,-2.0469,-2.3345,-2.764,-3.0969,-3.5074,-3.9156,-4.0946,-4.1552,-4.179,-4.2811,-4.3079,-4.3628,-4.6329,-4.7049,-4.724,-4.7947,-4.8164,-4.7154,-4.3298,-4.2329,-4.0836,-3.5721,-3.4999,-3.4657,-3.266,-3.4559,-3.7441,-4.0529,-4.4098,-4.7713,-5.1327,-5.2969,-5.4383,-5.5931,-5.7289,-5.8544,-5.9562,-6.0285,-6.0651,-6.0432,-6.0078,-6.0387,-6.1364,-6.1243,-6.0903,-6.0262,-6.0262,-6.0199,-6.0107,-5.9849,-5.9652,-5.9586,-5.8875,-5.8561,-5.849,-5.8171,-5.8613,-5.9617,-5.9624,0.0,-6.0736,-6.1743,-6.1809,-6.1289,-6.1033,-6.1292,-6.162,-6.0917,-6.0727,-6.0921,0.0,0.0,0.0,0.0,0.0,0.0,0.0,-1.6598,-1.6938,-1.6984,-1.7232,-1.7276,-1.694,-1.7259,-1.7399,0.0,0.0,0.0,0.0,0.0,0.0,0.0,0.0,0.0,0.0,-1.8412,-1.8853,-1.9236,0.0,-1.9524,-1.9587,-1.9713,-1.975,-1.9774,-1.9947,-1.9734,-1.9343,-1.9457,-1.9279,-1.8874,-1.8917,-1.8981,-1.9114,0.0,0.0,0.0,-2.0498,-2.3244,-2.7225,-2.923,-3.4194,-3.9896,-4.2318,-4.3033,-4.3079,-4.3788,-4.3497,-4.3474,-4.595,-4.655,-4.6647,-4.7523,-4.7768,-4.6414,-4.1136,-3.9561,-3.7585,-3.1775,-3.0891,-3.0814,-2.9565,-3.2102,-3.5061,-3.7064,-4.1925,-4.6339,-4.8972,-5.1657,-5.3736,-5.4874,-5.6425,-5.7639,-5.8114,-5.9172,-5.9744,-5.9447,-5.9383,-5.9679,-6.0371,-6.0503,-6.0388,-6.0107,-5.9914,-5.9849,-5.9849,-5.9485,-5.9217,-5.9012,-5.8701,-5.8419,-5.8171,-5.7954,-5.8598,-5.9871,-5.9643,0.0,-6.0735,-6.1315,-6.1273,-6.0964,-6.1006,-6.1469,-6.2047,-6.1223,-6.083,-6.0891,0.0,0.0,0.0,0.0,0.0,0.0,0.0,-1.7561,-1.8044,-1.8044,-1.8225,-1.8198,-1.7754,-1.7808,-1.777,0.0,0.0,0.0,0.0,0.0,0.0,0.0,0.0,0.0,0.0,0.0,0.0,-1.6927,-1.7733,0.0,0.0,0.0,0.0,0.0,-1.9535,-1.9237,-1.865,-1.8681,-1.8332,0.0,0.0,-1.7831,0.0,0.0,0.0,0.0,0.0,-2.2364,-2.5489,-2.7229,-3.1805,-3.7346,-4.0361,-4.1728,-4.2335,-4.287,-4.2389,-4.2259,-4.51,-4.5848,-4.6008,-4.6759,-4.7106,-4.5521,-3.8841,-3.6863,-3.4774,-2.8751,-2.7452,-2.738,-2.7335,-2.9528,-3.1839,-3.3313,-3.8293,-4.301,-4.6187,-4.9355,-5.2035,-5.3806,-5.5544,-5.6636,-5.6702,-5.8116,-5.8875,-5.8561,-5.8736,0.0,-5.9586,-5.9914,-6.0107,-5.9978,-5.9718,-5.9586,-5.9485,-5.9081,-5.8736,-5.849,-5.8419,-5.8205,-5.7881,-5.7881,-5.8693,-6.008,-5.9803,0.0,0.0,-6.0768,-6.0808,-6.0705,-6.0943,-6.1554,-6.2149,-6.1537,-6.0978,-6.0487,0.0,0.0,0.0,0.0,0.0,0.0,0.0,-1.776,-1.7816,-1.7816,-1.7839,-1.7936,-1.8121,-1.8459,-1.811,0.0,0.0,0.0,0.0,0.0,0.0,0.0,0.0,0.0,0.0,0.0,0.0,-1.7065,-1.7332,0.0,0.0,0.0,0.0,0.0,0.0,-1.7891,-1.7799,-1.7806,0.0,0.0,0.0,0.0,0.0,0.0,0.0,0.0,0.0,-1.9473,-2.0481,-2.4965,-2.7555,-2.9678,-3.4268,-3.7852,-4.0347,-4.0257,-3.9934,-4.0476,-4.4654,-4.5669,-4.5656,-4.6016,-4.6728,-4.5344,-3.7998,-3.6843,-3.5401,-2.8621,-2.7343,-2.7335,-2.7144,-2.7324,-2.873,-3.2547,-3.4702,-3.8289,-4.5267,-4.7773,-5.0189,-5.3635,-5.5345,-5.6369,-5.6636,-5.8116,-5.8875,-5.8561,0.0,0.0,-5.9586,-5.9914,-5.9978,-5.9652,-5.9652,-5.9418,-5.9081,-5.8701,-5.8561,-5.849,-5.8099,-5.7954,-5.7881,-5.7881,-5.8693,-6.008,-6.0047,0.0,0.0,-6.1121,-6.0985,-6.0671,-6.0333,-6.0401,-6.0619,-6.0551,-5.9852,-5.908,0.0,0.0,0.0,0.0,0.0,0.0,-1.7569,-1.7816,-1.7905,-1.8035,-1.8078,-1.8205,-1.8428,-1.8697,-1.8198,-1.6606,0.0,0.0,0.0,0.0,0.0,0.0,0.0,0.0,0.0,0.0,-1.571,-1.579,-1.6438,0.0,0.0,0.0,0.0,0.0,0.0,-1.742,-1.6982,-1.7011,0.0,0.0,0.0,0.0,0.0,0.0,0.0,0.0,0.0,0.0,-2.0072,-2.199,-2.4881,-2.7752,-2.8103,-3.089,-3.4735,-3.8486,-3.9064,-3.9346,-4.3439,-4.4495,-4.4668,-4.5556,-4.4568,-4.2146,-3.7313,-3.4395,-3.1356,-2.6606,-2.5597,-2.5568,-2.5447,-2.5801,-2.6777,-2.8892,-3.1766,-3.5261,-3.9645,-4.294,-4.6395,-5.0292,-5.2111,-5.3802,-5.586,-5.7192,-5.7978,-5.8314,0.0,0.0,-5.8875,-5.9284,-5.9351,-5.9217,-5.9012,-5.8875,-5.8701,-5.8791,-5.8574,-5.8133,-5.8428,-5.8321,-5.7881,-5.7881,-5.8457,-5.9438,-5.9438,0.0,0.0,-6.0528,-6.0766,-6.1019,-6.0359,-6.0461,-6.0876,-6.0034,-5.9541,-5.9316,0.0,0.0,0.0,0.0,0.0,-1.6103,-1.7613,-1.7861,-1.7971,-1.8225,-1.8287,-1.8283,-1.8284,-1.8664,-1.8175,-1.636,-1.6566,0.0,0.0,0.0,0.0,0.0,0.0,0.0,0.0,0.0,-1.4971,-1.5266,-1.6017,-1.6498,0.0,0.0,-1.76,-1.7391,0.0,0.0,0.0,0.0,0.0,0.0,0.0,0.0,0.0,0.0,0.0,0.0,0.0,0.0,0.0,0.0,0.0,-2.5145,-2.4018,-2.5728,-2.9232,-3.4877,-3.6758,-3.7775,-4.1582,-4.3406,-4.4402,-4.5361,-4.3042,-3.9764,-3.6581,-3.2572,-2.8615,-2.5252,-2.4445,-2.4358,-2.4284,-2.4726,-2.5481,-2.6507,-2.9279,-3.2481,-3.5827,-3.9191,-4.2882,-4.6999,-4.902,-5.1305,-5.4261,-5.6265,-5.7556,0.0,0.0,0.0,-5.8655,-5.8663,-5.8736,-5.8875,-5.8631,-5.8419,-5.8348,-5.8773,-5.8626,-5.7915,-5.866,-5.8626,-5.7881,-5.7881,-5.8287,-5.9032,0.0,0.0,0.0,-5.9776,-6.025,-6.0858,-6.008,-6.025,-6.0825,-5.9967,-5.9434,-5.9242,0.0,0.0,0.0,0.0,0.0,0.0,-1.7645,-1.7905,-1.7992,-1.8252,-1.8307,-1.8093,-1.756,-1.8377,-1.8028,-1.5612,-1.6268,0.0,0.0,0.0,0.0,0.0,0.0,0.0,0.0,0.0,-1.529,-1.6101,-1.6227,-1.6743,-1.7605,-1.7721,-1.7355,-1.6619,0.0,0.0,0.0,0.0,0.0,0.0,0.0,0.0,0.0,0.0,0.0,0.0,0.0,0.0,0.0,0.0,0.0,0.0,0.0,-2.3599,-2.4575,-2.8682,-3.218,-3.5483,-3.9047,-4.2516,-4.5167,-4.5439,-4.2787,-3.9221,-3.5772,-3.2164,-2.8539,-2.5115,-2.4358,-2.4284,-2.4192,-2.4229,-2.4762,-2.6355,-2.731,-2.9842,-3.5502,-3.7684,-4.0192,-4.4448,-4.6946,-4.9304,-5.1787,-5.5587,-5.7954,0.0,0.0,0.0,-5.8964,-5.8287,-5.8099,-5.849,-5.849,-5.8348,-5.7881,-5.8626,-5.8626,-5.7915,-5.866,-5.8626,-5.7881,-5.7881,-5.8287,0.0,0.0,0.0,0.0,-5.9032,-5.9471,-6.0047,-5.9302,-5.9471,-6.0114,-6.034,-5.9609,-5.8593,0.0,0.0,0.0,0.0,0.0,0.0,0.0,-1.8205,-1.8368,-1.8734,-1.8771,-1.877,-1.8738,-1.851,-1.7848,-1.6534,-1.6707,0.0,0.0,0.0,0.0,0.0,0.0,0.0,0.0,0.0,-1.633,-1.7252,-1.7286,-1.7495,-1.783,-1.7853,-1.7727,-1.7446,-1.6895,-1.6532,0.0,0.0,0.0,0.0,0.0,0.0,0.0,0.0,0.0,0.0,0.0,0.0,0.0,0.0,0.0,0.0,0.0,0.0,0.0,-2.4949,-2.7874,-3.1469,-3.4751,-3.6395,-3.7244,-3.7544,-3.5135,-3.2413,-3.1467,-2.8474,-2.5653,-2.4543,-2.4284,-2.4229,-2.4191,-2.4209,-2.4723,-2.6355,-2.6753,-2.831,-3.2319,-3.6177,-4.0116,-4.427,-5.0414,-5.4559,-5.5179,0.0,0.0,0.0,0.0,0.0,-5.9708,-5.9539,-5.9241,-5.8841,-5.8371,-5.8027,-5.7881,-5.8626,-5.8626,-5.7915,-5.866,-5.8626,-5.7881,-5.7881,0.0,0.0,0.0,0.0,0.0,-5.9235,-5.9438,-6.0047,-5.9302,-5.9167,-5.9302,-5.9016,-5.8416,-5.7704,0.0,0.0,0.0,0.0,0.0,0.0,0.0,-1.8193,-1.8526,-1.8948,-1.8981,-1.8863,-1.8449,-1.8264,-1.7591,-1.619,-1.6386,0.0,0.0,0.0,0.0,0.0,0.0,0.0,0.0,-1.6199,-1.6683,-1.7308,-1.7324,-1.752,-1.7886,-1.7917,-1.7916,-1.7921,-1.7372,-1.6952,0.0,0.0,0.0,0.0,0.0,0.0,-1.5362,0.0,0.0,0.0,0.0,0.0,0.0,0.0,0.0,0.0,0.0,0.0,0.0,0.0,-2.4561,-2.7493,-3.1164,-3.3132,-3.4196,-3.4426,-3.1905,-2.9462,-2.9562,-2.6851,-2.4266,-2.4266,-2.4229,-2.4191,-2.419,-2.419,-2.474,-2.6298,-2.6768,-2.8372,-3.256,-3.6574,-4.0973,-4.5965,-5.1977,-5.5723,0.0,-5.7562,0.0,0.0,0.0,0.0,-6.052,-6.025,-5.9911,-5.9438,-5.8693,-5.8186,-5.7881,-5.8626,-5.8626,-5.7915,-5.866,-5.8761,-5.8321,-5.8321,0.0,0.0,0.0,0.0,0.0,-5.8896,-5.9032,-5.9607,-5.8863,-5.8761,-5.8964,-5.8637,-5.7967,-5.7327,0.0,0.0,0.0,0.0,0.0,0.0,0.0,-1.7797,-1.8407,-1.8783,-1.885,-1.8354,-1.7055,-1.7657,-1.7237,-1.4997,0.0,0.0,0.0,0.0,0.0,0.0,0.0,0.0,-1.5491,-1.6215,-1.6672,-1.6793,-1.6837,-1.731,-1.8066,-1.8077,-1.8096,-1.8079,-1.796,-1.7366,0.0,0.0,0.0,0.0,-1.5299,-1.5289,0.0,0.0,0.0,0.0,0.0,0.0,0.0,0.0,0.0,0.0,0.0,0.0,0.0,0.0,0.0,0.0,0.0,-3.1779,-3.4398,-3.4398,-3.1887,-2.9399,-2.9399,-2.668,0.0,-2.4173,-2.4172,-2.419,-2.419,-2.4226,-2.4757,-2.6234,-2.72,-2.9715,-3.54,-3.8821,-4.3058,-4.9539,-5.2358,-5.4067,-5.4821,-5.7534,0.0,0.0,0.0,0.0,-6.1332,-6.0689,-6.025,-6.0182,-5.9471,-5.8693,-5.7881,-5.8592,-5.8592,-5.7915,-5.8592,-5.893,-5.893,-5.893,0.0,0.0,0.0,0.0,0.0,-5.8186,-5.8287,-5.8863,-5.8152,-5.8287,-5.8863,-5.8863,-5.8061,-5.7119,0.0,0.0,0.0,0.0,0.0,0.0,0.0,0.0,0.0,0.0,-1.743,-1.7353,-1.7077,-1.6704,-1.6298,0.0,0.0,0.0,0.0,0.0,0.0,0.0,0.0,0.0,-1.8131,-1.7791,-1.8224,-1.9542,-1.957,-1.9684,-1.9882,-1.9883,-1.9529,-1.8888,-1.8211,-1.7031,0.0,0.0,0.0,0.0,-1.5108,-1.5108,0.0,0.0,0.0,0.0,-1.6063,-1.6496,0.0,0.0,0.0,0.0,0.0,0.0,0.0,0.0,-2.0873,-2.2117,-2.3361,0.0,-2.6795,-2.6795,-2.6169,-2.546,0.0,-2.473,-2.417,-2.4016,-2.4075,-2.417,-2.4132,-2.4644,-2.5356,-2.6264,-2.7583,-3.0234,-3.5403,-4.322,-5.0276,-5.5381,-5.6918,-5.7569,-5.7604,0.0,0.0,0.0,0.0,-6.1409,-6.2343,-6.2053,-6.1603,-6.1028,-6.025,-5.9235,-5.7915,-5.8051,-5.8051,-5.7881,-5.8084,-5.8152,-5.8152,-5.8152,0.0,0.0,0.0,0.0,-5.8964,-5.8186,-5.7983,-5.8118,-5.7949,-5.7645,-5.734,-5.734,-5.6605,-5.5621,0.0,0.0,0.0,0.0,0.0,0.0,0.0,0.0,0.0,0.0,0.0,0.0,0.0,0.0,0.0,0.0,0.0,0.0,0.0,0.0,0.0,0.0,0.0,0.0,-1.7912,-1.869,-1.9361,-1.9906,-1.9915,-1.9883,-1.9877,-1.9487,-1.9255,-1.9091,-1.8207,-1.7004,0.0,0.0,0.0,-1.5106,-1.5018,0.0,0.0,0.0,0.0,0.0,-1.5849,-1.636,0.0,-1.7326,-1.7715,-1.8016,0.0,0.0,0.0,0.0,-1.9955,-2.0879,-2.0971,-2.2301,-2.362,-2.3488,-2.376,-2.3955,-2.3732,-2.3837,-2.3996,-2.3858,-2.4016,-2.4151,-2.4112,-2.475,-2.5512,-2.6213,-2.9268,-3.3651,-3.9776,-4.554,-5.0745,-5.5144,-5.6061,-5.6881,0.0,0.0,0.0,0.0,0.0,-6.213,0.0,-6.2615,-6.2154,-6.1332,-6.052,-5.9539,-5.8423,-5.8051,-5.7881,-5.7881,-5.7881,-5.8327,-5.9044,-5.8632,-5.9072,0.0,0.0,0.0,-5.8964,-5.8186,-5.7881,-5.7881,-5.7881,-5.7442,-5.6799,-5.6799,-5.5992,-5.4907,0.0,0.0,0.0,0.0,0.0,0.0,0.0,0.0,0.0,0.0,0.0,0.0,0.0,0.0,0.0,0.0,0.0,0.0,0.0,0.0,0.0,0.0,0.0,-1.7625,-1.72,-1.9367,-2.0256,-1.9765,-1.9782,-1.9762,-1.9729,-1.8861,-1.8615,-1.8815,-1.801,-1.7063,0.0,0.0,-1.5103,-1.4965,-1.4979,0.0,0.0,0.0,0.0,0.0,0.0,0.0,0.0,-1.7497,-1.7778,-1.7932,-1.836,0.0,0.0,0.0,0.0,0.0,-1.9847,-2.1709,-2.3417,-2.272,-2.3154,-2.371,-2.341,-2.3522,-2.3732,-2.3732,-2.3915,-2.4052,-2.4198,-2.4835,-2.563,-2.6486,-3.1979,-3.8631,-4.5745,-4.7803,-4.9919,-5.3323,-5.4293,0.0,0.0,0.0,0.0,0.0,0.0,-6.3008,0.0,-6.2931,-6.2513,-6.1714,-6.0833,-6.0054,-5.937,-5.8389,-5.7881,-5.7881,-5.8017,-5.8801,-6.0136,-5.9377,-5.9783,0.0,0.0,0.0,-5.8795,-5.8152,-5.7881,-5.7881,-5.7881,-5.7374,-5.663,-5.663,-5.5683,-5.4499,0.0,0.0,0.0,0.0,0.0,0.0,0.0,0.0,0.0,0.0,0.0,0.0,0.0,0.0,0.0,0.0,0.0,0.0,0.0,0.0,0.0,0.0,0.0,-1.8481,-1.9798,-2.0273,-2.1128,-2.243,-2.2434,-2.2348,-2.2243,-2.139,-1.9871,-1.7729,-1.7589,-1.6616,-1.5156,-1.5714,-1.5508,-1.4811,-1.4766,0.0,0.0,0.0,0.0,0.0,0.0,0.0,0.0,-1.6432,-1.7071,-1.7593,-1.7666,0.0,0.0,0.0,0.0,0.0,-1.8622,-2.2443,-2.5565,-2.287,-2.2905,-2.3522,-2.314,-2.3177,-2.3341,-2.3422,-2.358,-2.3891,-2.4635,-2.552,-2.6535,-2.7846,-3.5776,-4.3746,-4.9378,-5.3832,-5.6678,-5.7077,0.0,0.0,0.0,0.0,0.0,0.0,0.0,0.0,0.0,-6.422,-6.3655,-6.3674,-6.2191,-6.1333,-6.1231,-5.897,-5.7881,-5.7881,-5.8524,-5.8964,-5.9167,-5.9066,-5.9133,0.0,0.0,-5.8051,-5.8051,-5.7949,-5.7881,-5.7881,-5.7881,-5.707,-5.5886,-5.5886,-5.5007,-5.3887,0.0,0.0,0.0,0.0,0.0,0.0,0.0,0.0,0.0,0.0,0.0,0.0,0.0,0.0,0.0,0.0,0.0,0.0,0.0,0.0,0.0,0.0,0.0,0.0,-1.9763,-2.1111,-2.2449,-2.3664,-2.3605,-2.3528,-2.3403,-2.2058,-2.027,-1.8118,-1.7672,-1.646,-1.4813,-1.5179,-1.5054,-1.4637,0.0,0.0,0.0,0.0,0.0,0.0,0.0,0.0,0.0,0.0,-1.6712,-1.7381,-1.7646,0.0,0.0,0.0,0.0,0.0,-1.8711,-2.1207,-2.3653,-2.3969,-2.6452,-2.8759,-2.8348,-2.8236,-2.7845,-2.6519,-2.6626,-2.6659,-2.5709,-2.8058,-3.1938,-3.7386,-4.125,-4.5333,-5.0393,-5.2358,-5.3973,0.0,0.0,0.0,0.0,0.0,0.0,0.0,0.0,0.0,0.0,0.0,-6.4537,-6.4093,-6.2881,-6.1979,-6.1571,-5.9885,-5.9099,-5.9066,-5.9439,-5.9643,-5.9756,-5.9238,-5.903,-5.9112,0.0,-5.7881,-5.7881,-5.7881,-5.7881,-5.7881,-5.7881,-5.7239,-5.6224,-5.5448,-5.4907,-5.4395,0.0,0.0,0.0,0.0,0.0,0.0,0.0,0.0,0.0,0.0,0.0,0.0,0.0,0.0,0.0,0.0,0.0,0.0,0.0,0.0,0.0,0.0,0.0,0.0,-1.9231,-2.1687,-2.3392,-2.4161,-2.4328,-2.4216,-2.3858,-2.2217,-2.0433,-1.8591,-1.7917,-1.648,-1.4627,-1.486,-1.4737,-1.4441,0.0,0.0,0.0,0.0,0.0,0.0,0.0,0.0,0.0,0.0,0.0,0.0,0.0,0.0,0.0,-1.7975,-1.8023,-1.8194,-1.8927,-2.0646,-2.285,-2.5403,-2.8425,-3.109,-3.2096,-3.1936,-3.1191,-2.9973,-3.0441,-3.035,-2.8116,-3.1235,-3.6748,-4.4667,-4.5623,-4.7124,-5.2126,-5.2021,-5.2364,-5.5168,0.0,0.0,0.0,0.0,0.0,0.0,0.0,0.0,0.0,0.0,-6.5421,-6.4556,-6.3649,-6.2745,-6.1919,-6.1155,-6.0528,-6.008,-6.0484,-6.0765,-6.091,-6.0082,-5.9702,-5.9682,-5.8617,-5.7925,-5.7645,-5.7645,-5.7645,-5.7645,-5.7645,-5.7205,-5.643,-5.5111,-5.4768,-5.4832,0.0,0.0,0.0,0.0,0.0,0.0,0.0,0.0,0.0,0.0,0.0,0.0,0.0,0.0,0.0,0.0,0.0,0.0,0.0,0.0,0.0,0.0,0.0,0.0,0.0,-2.1701,-2.3334,-2.4014,-2.4812,-2.464,-2.3496,-2.2458,-2.0648,-1.8339,-1.8241,-1.683,-1.4476,-1.5282,-1.5099,-1.4306,-1.417,0.0,0.0,0.0,0.0,0.0,0.0,0.0,0.0,0.0,0.0,0.0,0.0,0.0,-1.6923,-1.7569,-1.7772,-1.7986,-1.8731,-2.2675,-2.659,-2.6846,-2.5178,-2.4835,-3.0092,-2.9946,-2.9516,-3.2295,-3.3835,-3.4206,-3.2775,-3.4673,-3.8021,-4.2757,-4.6828,-5.1256,-5.6558,0.0,-5.8111,0.0,0.0,0.0,0.0,0.0,0.0,0.0,0.0,0.0,0.0,0.0,0.0,-6.5807,-6.482,-6.3802,-6.2931,-6.2863,-6.1885,-6.0114,-6.1547,-6.222,-6.2255,-6.2125,-6.1673,-6.0942,-5.9461,-5.8082,-5.6867,-5.6867,-5.6867,-5.6867,-5.6867,-5.6498,-5.5893,-5.4563,-5.4114,-5.4308,0.0,0.0,0.0,0.0,0.0,0.0,0.0,0.0,0.0,0.0,0.0,0.0,0.0,0.0,0.0,0.0,0.0,0.0,0.0,0.0,0.0,0.0,0.0,-1.9763,-1.8294,-2.1241,-2.3171,-2.3947,-2.4562,-2.4577,-2.4036,-2.2657,-2.096,-1.9003,-1.7953,-1.6594,-1.5085,-1.4891,-1.4787,-1.4695,-1.4097,-1.3789,0.0,0.0,0.0,0.0,0.0,0.0,0.0,0.0,-1.5024,-1.575,-1.6433,-1.6939,-1.7356,-1.7557,-1.7994,-1.8531,-1.9261,-2.2441,-2.5747,-2.6574,-2.6031,-2.7178,-3.4398,-3.5291,-3.5447,-3.846,-3.9501,-3.9783,-3.925,-4.1408,-4.4177,-4.6999,-5.116,-5.4828,-5.6838,-5.8217,0.0,0.0,0.0,0.0,0.0,0.0,0.0,0.0,0.0,0.0,0.0,0.0,0.0,-6.5757,-6.4581,-6.3597,-6.277,-6.2693,-6.2266,-6.1535,-6.2571,-6.2509,-6.1705,-6.2556,-6.1822,-5.9771,-5.9633,-5.8802,-5.7442,-5.7002,-5.6799,-5.6765,-5.6467,-5.6233,-5.6065,-5.514,-5.4895,-5.4892,0.0,0.0,0.0,0.0,0.0,0.0,0.0,0.0,0.0,0.0,0.0,0.0,0.0,0.0,0.0,0.0,0.0,0.0,0.0,-1.7004,0.0,0.0,0.0,-1.9533,-1.7746,-2.067,-2.2581,-2.3389,-2.4151,-2.4327,-2.3965,-2.253,-2.082,-1.8941,-1.7444,-1.6246,-1.5282,-1.4468,-1.446,-1.4822,-1.3979,-1.3592,0.0,0.0,0.0,0.0,0.0,0.0,0.0,0.0,-1.4525,-1.557,-1.5778,-1.6685,-1.7658,-1.7589,-1.8243,-1.9084,-1.961,-2.1755,-2.4269,-2.5901,-2.6718,-2.9297,-3.7374,-3.852,-3.9037,-4.2999,-4.4105,-4.4327,-4.432,-4.6389,-4.8639,-4.9978,-5.3828,-5.6779,-5.7011,0.0,0.0,0.0,0.0,0.0,0.0,0.0,0.0,0.0,0.0,0.0,0.0,0.0,0.0,0.0,-6.4459,-6.3441,-6.2649,-6.2459,-6.2279,-6.193,-6.2986,-6.2858,-6.1883,-6.2663,-6.1707,-5.9578,-5.9659,-5.8772,-5.7247,-5.6735,-5.6325,-5.6161,-5.5894,-5.5826,-5.5858,-5.5304,-5.5094,-5.509,0.0,0.0,0.0,0.0,0.0,0.0,0.0,0.0,0.0,0.0,0.0,0.0,0.0,0.0,0.0,0.0,0.0,0.0,-1.5414,-1.6987,-1.7141,-1.54,-1.8518,-1.9473,-1.7759,-1.992,-2.1482,-2.2297,-2.3628,-2.3896,-2.3047,-2.2009,-2.0209,-1.7851,-1.6868,-1.5892,-1.496,-1.4149,-1.4146,-1.4659,-1.3819,-1.3495,-1.3479,0.0,0.0,0.0,0.0,0.0,0.0,0.0,-1.3576,-1.5248,-1.4474,-1.5762,-1.7589,-1.7496,-1.851,-1.9584,-1.9584,-2.0844,-2.272,-2.5037,-2.675,-3.0011,-3.8033,-3.8381,-3.8756,-4.5098,-4.7078,-4.7619,-4.734,-4.8866,-5.0338,-5.0823,-5.4195,-5.6978,0.0,0.0,0.0,0.0,0.0,0.0,0.0,0.0,0.0,0.0,0.0,0.0,0.0,0.0,0.0,0.0,-6.4425,-6.3362,-6.2381,-6.2381,-6.1897,-6.092,-6.2597,-6.341,-6.3372,-6.247,-6.1736,-6.0915,-5.9408,-5.7717,-5.5996,-5.5788,-5.5312,-5.4873,-5.5241,-5.5407,-5.5304,-5.4741,-5.4494,-5.4557,0.0,0.0,0.0,0.0,0.0,0.0,0.0,0.0,0.0,0.0,0.0,0.0,0.0,0.0,0.0,0.0,0.0,0.0,-1.5332,-1.6943,-1.7341,-1.6137,-1.8143,-1.8978,-1.8279,-1.995,-2.1488,-2.2864,-2.3768,-2.3711,-2.2718,-2.1897,-2.012,-1.7591,-1.672,-1.6111,-1.561,-1.4235,-1.433,-1.5306,-1.3939,-1.3447,-1.3447,0.0,0.0,0.0,0.0,0.0,0.0,0.0,0.0,0.0,-1.4094,-1.5242,-1.6739,-1.7044,-1.8299,-1.9557,-1.9476,-2.3269,-2.7087,-2.6399,-2.9776,-3.4304,-3.8216,-3.9534,-4.1693,-4.807,-5.0862,-5.143,-4.9349,-5.173,-5.3703,-5.2876,-5.5917,-5.8374,0.0,0.0,0.0,0.0,0.0,0.0,0.0,0.0,0.0,0.0,0.0,0.0,0.0,0.0,0.0,0.0,-6.3518,-6.2643,-6.1743,-6.1446,-6.1122,-6.0684,-6.0969,-6.1063,-6.112,-6.2351,-6.1645,-5.9408,-5.8913,-5.7751,-5.6234,-5.5315,-5.4737,-5.4353,-5.4518,-5.4647,-5.4775,-5.4724,-5.4717,-5.478,0.0,0.0,0.0,0.0,0.0,0.0,0.0,0.0,0.0,0.0,-1.5332,-1.5341,0.0,0.0,0.0,0.0,0.0,0.0,-1.525,-1.6557,-1.7023,-1.6405,-1.792,-1.8668,-1.8391,-1.9782,-2.0763,-2.1333,-2.2502,-2.2589,-2.1581,-2.09,-1.9404,-1.7237,-1.6546,-1.6169,-1.5979,-1.47,-1.451,-1.4925,-1.3996,-1.3309,-1.2807,0.0,0.0,0.0,0.0,0.0,0.0,0.0,0.0,0.0,-1.3811,-1.4537,-1.5583,-1.667,-1.7896,-1.926,-2.0799,-2.4441,-2.8041,-2.9192,-3.2886,-3.7308,-4.141,-4.3263,-4.5483,-4.992,-5.2515,-5.3446,-5.1619,-5.421,0.0,-5.5463,0.0,0.0,0.0,0.0,0.0,0.0,0.0,0.0,0.0,0.0,0.0,0.0,0.0,0.0,0.0,0.0,0.0,0.0,-6.2872,-6.2096,-6.1383,-6.0973,-6.0595,-6.0169,-6.0165,-5.9886,-5.9253,-6.0832,-6.0503,-5.8658,-5.7814,-5.6729,-5.5655,-5.4804,-5.433,-5.4239,-5.4303,-5.4431,-5.4655,-5.478,-5.4842,-5.4869,0.0,0.0,0.0,0.0,0.0,0.0,0.0,0.0,0.0,-1.5312,-1.5377,-1.5385,0.0,0.0,0.0,-1.5366,-1.5318,-1.525,-1.521,-1.5946,-1.638,-1.6276,-1.7699,-1.8328,-1.8066,-1.9223,-1.9453,-1.8555,-2.0441,-2.0874,-1.997,-1.9451,-1.8319,-1.6789,-1.6398,-1.6197,-1.6131,-1.5321,-1.4668,-1.4173,-1.3989,-1.3118,-1.2054,-1.2595,0.0,0.0,0.0,0.0,0.0,0.0,0.0,0.0,-1.3581,-1.3796,-1.4193,-1.633,-1.7626,-1.9184,-2.2928,-2.5068,-2.7552,-3.276,-3.5971,-3.9511,-4.5971,-4.8026,-4.9084,-5.0822,-5.2595,-5.3924,-5.3989,-5.6272,-5.8119,0.0,0.0,0.0,0.0,0.0,0.0,0.0,0.0,0.0,0.0,0.0,0.0,0.0,0.0,0.0,0.0,0.0,0.0,0.0,-6.2354,-6.1662,-6.1365,-6.0725,-6.0114,0.0,-5.9919,-5.9313,-5.7801,-5.8456,-5.8623,-5.8267,-5.6388,-5.5197,-5.4533,-5.4293,-5.4161,-5.4239,-5.4367,-5.4557,-5.4655,-5.4717,-5.4842,-5.4869,0.0,0.0,0.0,0.0,0.0,0.0,0.0,0.0,-1.5383,-1.5364,-1.5397,-1.5392,-1.5392,-1.5353,0.0,-1.5245,-1.5245,-1.5189,-1.512,-1.5885,-1.6262,-1.6157,-1.6922,-1.7196,-1.6863,-1.7095,-1.7577,-1.8283,-1.9991,-2.0236,-1.9075,-1.9019,0.0,-1.6276,-1.6242,-1.6174,-1.6085,-1.5321,-1.5212,-1.544,-1.3798,-1.3238,-1.3278,-1.2378,-1.1967,0.0,0.0,0.0,0.0,0.0,0.0,0.0,-1.3218,-1.3291,-1.3436,-1.5932,-1.9218,-2.2293,-2.362,-2.8419,-3.3398,-3.5119,-3.8767,-4.2711,-4.5647,-4.7247,-4.8802,-5.1247,-5.2731,-5.3857,-5.4645,-5.6447,0.0,0.0,0.0,0.0,0.0,0.0,0.0,0.0,0.0,0.0,0.0,0.0,0.0,0.0,0.0,0.0,0.0,0.0,0.0,-6.2346,-6.2345,-6.1847,-6.0851,-5.9655,-5.8841,0.0,-5.8178,-5.7465,-5.6644,-5.831,-5.8142,-5.6517,-5.5578,-5.4876,-5.4411,-5.3988,-5.3919,-5.4045,-5.4205,-5.4011,-5.3749,-5.4367,-5.4431,-5.4303,0.0,0.0,0.0,0.0,0.0,0.0,0.0,0.0,-1.5348,-1.5345,-1.5349,-1.5352,-1.5327,-1.5284,0.0,0.0,-1.5171,-1.5165,-1.5099,-1.546,-1.5738,-1.5913,-1.6571,-1.6607,-1.5854,-1.6375,-1.6688,-1.6686,-1.8144,-1.8663,-1.8165,-1.7913,0.0,-1.6499,-1.6403,-1.6305,-1.6173,-1.5895,-1.5503,-1.5027,-1.4419,-1.3526,-1.251,-1.2167,-1.178,-1.1422,-1.153,0.0,0.0,0.0,0.0,0.0,0.0,0.0,-1.2244,-1.5611,-1.7997,-2.0501,-2.5016,-2.9312,-3.3521,-3.7837,-4.086,-4.3367,-4.5776,-4.7154,-4.8667,-5.1579,-5.2637,-5.3549,-5.5063,0.0,0.0,0.0,0.0,0.0,0.0,0.0,0.0,0.0,0.0,0.0,0.0,0.0,0.0,0.0,0.0,0.0,0.0,-6.3362,-6.2741,-6.2157,-6.2266,-6.168,-6.0231,-5.9711,-5.8934,-5.7771,-5.7945,-5.7612,-5.6974,-5.7666,-5.72,-5.5794,-5.5724,-5.5379,-5.4878,-5.4606,-5.4454,-5.4454,-5.4397,-5.4141,-5.4011,-5.4397,-5.4557,-5.4494,0.0,0.0,0.0,0.0,0.0,0.0,0.0,0.0,0.0,-1.5265,-1.526,-1.524,-1.5183,-1.5177,-1.5153,0.0,0.0,0.0,-1.5064,-1.4957,-1.5095,-1.5502,-1.6062,-1.5958,-1.5046,-1.5973,-1.6049,-1.5169,-1.6128,-1.6775,-1.715,-1.6786,-1.6606,-1.6658,-1.6612,-1.6427,-1.62,-1.6454,-1.578,-1.4529,-1.5068,-1.3945,-1.1942,-1.2293,-1.2013,-1.1404,-1.1624,-1.1687,-1.1635,-1.1422,0.0,0.0,0.0,0.0,-1.1233,-1.5366,-1.6517,-1.8161,-2.5864,-2.9373,-3.2605,-4.0155,-4.2225,-4.3175,-4.5997,-4.7294,-4.8713,-5.1614,-5.2458,-5.3245,0.0,0.0,0.0,0.0,0.0,0.0,0.0,0.0,0.0,0.0,0.0,0.0,0.0,0.0,0.0,0.0,0.0,0.0,-6.4401,-6.3755,-6.3039,-6.2358,-6.2324,-6.153,-5.9735,-6.0116,-5.9217,-5.7157,-5.7811,-5.7952,-5.76,-5.6914,-5.6374,-5.5887,-5.6095,-5.5948,-5.5472,-5.5119,-5.4939,-5.4722,-5.446,-5.4303,-5.4239,-5.446,-5.4586,-5.4648,0.0,0.0,0.0,0.0,0.0,0.0,0.0,0.0,0.0,0.0,-1.5127,-1.512,-1.5106,-1.5106,-1.5106,-1.5092,-1.5071,-1.4973,-1.4837,0.0,0.0,-1.4646,-1.4445,-1.4465,-1.4825,-1.4543,-1.4829,-1.5789,-1.5543,-1.553,-1.5781,-1.6364,-1.6307,-1.5788,-1.6286,-1.6171,-1.5649,-1.6186,-1.6262,-1.5929,-1.4894,-1.4534,-1.456,-1.3474,-1.2663,-1.2128,-1.2716,-1.2676,-1.2183,-1.1518,-1.126,0.0,0.0,0.0,-1.1233,-1.5366,-1.8192,-2.064,-2.3914,-2.9971,-3.6418,-4.0855,-4.2573,-4.3708,-4.6048,-4.7243,-4.8586,0.0,-5.2603,-5.4017,0.0,0.0,0.0,0.0,0.0,0.0,0.0,0.0,0.0,0.0,0.0,0.0,0.0,0.0,0.0,0.0,0.0,0.0,-6.4628,-6.4092,-6.3297,-6.2358,-6.2502,-6.171,-5.9884,-5.9687,-5.8671,-5.6912,-5.5942,-5.6199,-5.7453,-5.672,-5.6582,-5.6897,-5.5907,-5.5449,-5.5308,-5.4362,-5.3815,-5.3583,-5.3749,-5.3517,-5.3179,-5.3651,-5.3749,-5.3617,0.0,0.0,0.0,0.0,0.0,0.0,0.0,0.0,0.0,0.0,0.0,-1.5085,-1.5057,-1.5019,-1.4987,-1.4925,-1.4883,-1.4784,-1.47,-1.4504,-1.432,-1.4157,-1.3899,-1.374,-1.3735,-1.3486,-1.3759,-1.4501,-1.4304,-1.442,-1.4891,-1.518,-1.5173,-1.4971,-1.5637,-1.5692,-1.5314,-1.6075,-1.6301,-1.6074,-1.5571,-1.6237,-1.7237,-1.4288,-1.394,-1.4839,-1.2823,-1.194,-1.18,-1.1894,-1.17,-1.1724,-1.3526,0.0,0.0,0.0,-1.6545,-1.8672,-2.5371,-3.1416,-3.6785,-4.0774,-4.2393,-4.3448,-4.4967,-4.6242,-4.7778,-5.0026,-5.1836,0.0,0.0,0.0,0.0,0.0,0.0,0.0,0.0,0.0,0.0,0.0,0.0,0.0,0.0,0.0,0.0,0.0,0.0,-6.5221,-6.5331,-6.4742,-6.3972,-6.2813,-6.2845,-6.1741,-5.9107,-5.9531,-5.8789,-5.7127,-5.5584,-5.5672,-5.7137,-5.649,-5.6582,-5.7289,-5.6861,-5.6421,-5.6039,-5.5355,-5.4695,-5.4038,-5.3881,-5.3651,-5.3382,-5.3815,-5.3946,-5.3881,0.0,0.0,0.0,0.0,0.0,0.0,0.0,0.0,0.0,0.0,0.0,-1.5057,-1.495,0.0,0.0,0.0,-1.4719,-1.4661,-1.459,-1.4343,-1.4108,-1.3913,-1.3582,-1.3261,-1.2899,-1.2987,-1.307,-1.3157,-1.3259,-1.3464,-1.3828,-1.3706,-1.3706,-1.3837,-1.478,-1.5055,-1.4939,-1.5748,-1.6065,-1.6116,-1.7121,-1.8467,-1.9553,-1.6487,-1.6548,-1.7759,-1.3934,-1.252,-1.2455,-1.2603,-1.2309,-1.223,-1.3788,-1.3325,0.0,0.0,0.0,-1.7065,-2.5823,-3.0631,-3.4322,-3.941,-4.1126,-4.2056,-4.4295,-4.5586,-4.7012,0.0,0.0,0.0,0.0,0.0,0.0,0.0,0.0,0.0,0.0,0.0,0.0,0.0,0.0,0.0,0.0,0.0,0.0,0.0,0.0,-6.5444,-6.5618,-6.5052,-6.4195,-6.3235,-6.2959,-6.1564,-5.885,-5.9086,-5.853,-5.7242,-5.5739,-5.5671,-5.7036,-5.6528,-5.6793,-5.7679,-5.7534,-5.7116,-5.6527,-5.6039,-5.5355,-5.451,-5.4141,-5.3915,-5.3849,-5.4076,-5.4205,-5.4205,0.0,0.0,0.0,0.0,0.0,0.0,0.0,0.0,0.0,0.0,0.0,-1.495,-1.4831,-1.4813,-1.4804,-1.4804,-1.4738,-1.4648,-1.4493,-1.4131,-1.392,-1.3906,-1.3294,0.0,-1.2881,-1.3215,-1.3052,-1.2446,-1.2845,-1.2748,-1.2199,-1.2094,-1.2073,-1.2301,-1.3729,-1.4372,-1.4386,-1.5016,-1.5637,-1.6475,-1.9809,-2.1198,-2.1287,-2.1285,-2.0971,-2.0267,-1.729,-1.5921,-1.5336,-1.3794,-1.3324,-1.3399,-1.3471,-1.2549,-1.199,0.0,0.0,0.0,-2.3111,-2.535,-2.8148,-3.6277,-3.8001,-3.9253,-4.4766,-4.5809,-4.6299,-4.8481,0.0,0.0,0.0,0.0,0.0,0.0,0.0,0.0,0.0,0.0,0.0,0.0,0.0,0.0,0.0,0.0,0.0,0.0,0.0,-6.4913,-6.5353,-6.4442,-6.3695,-6.3235,-6.2364,-6.1219,-5.988,-5.8094,-5.7233,-5.7069,-5.5977,-5.607,-5.7065,-5.6912,-5.7462,-5.8363,-5.7116,-5.6546,-5.6384,-5.5284,-5.4772,-5.4648,-5.4175,-5.398,-5.398,-5.398,-5.411,-5.4175,0.0,0.0,0.0,0.0,0.0,0.0,0.0,0.0,0.0,0.0,0.0,0.0,0.0,-1.4688,-1.4705,-1.4726,-1.4611,-1.4499,-1.4429,-1.4101,-1.3862,-1.3789,-1.3244,-1.2893,-1.2764,-1.2339,-1.2175,-1.2293,-1.1882,-1.1607,-1.1383,-1.1323,-1.1374,-1.1514,-1.2994,-1.386,-1.4276,-1.4878,-1.5496,-1.6418,-1.9901,-2.2644,-2.4403,-2.1992,-2.3778,-2.6843,-2.1057,-1.8812,-1.8532,-1.8408,-1.6763,-1.4782,-1.4758,-1.4122,-1.3587,-1.457,-1.513,-1.6617,-2.1947,-2.4348,-2.6611,-3.193,-3.5592,-3.8513,-4.0811,-4.3427,-4.5898,-4.7637,0.0,0.0,0.0,0.0,0.0,0.0,0.0,0.0,0.0,0.0,0.0,0.0,0.0,0.0,0.0,0.0,0.0,0.0,0.0,0.0,-6.4955,-6.3854,-6.3137,-6.288,-6.27,-6.1918,-6.03,-5.8253,-5.7375,-5.767,-5.6681,-5.678,-5.7876,-5.7009,-5.7315,-5.8449,-5.7737,-5.7216,-5.6789,-5.624,-5.5543,-5.4799,-5.4614,-5.4333,-5.398,-5.411,-5.4175,-5.4175,0.0,0.0,0.0,0.0,0.0,0.0,0.0,0.0,0.0,-1.4785,0.0,0.0,0.0,0.0,-1.4214,-1.4193,-1.4304,-1.4393,-1.438,-1.4019,-1.3803,-1.3713,-1.321,-1.2867,-1.2703,-1.2028,-1.1761,-1.1871,-1.1222,-1.092,-1.0989,-1.0651,-1.084,-1.1484,-1.2179,-1.3121,-1.4221,-1.4582,-1.5259,-1.6512,-2.1197,-2.4422,-2.6126,-2.4044,-2.6149,-2.9537,-2.3845,-2.1828,-2.2077,-2.3496,-2.2344,-2.0064,-1.8372,-1.6459,-1.4821,-1.4821,-1.4916,-1.5946,-2.0316,-2.2425,-2.4367,-2.835,-3.1917,-3.5228,-3.8296,-4.1097,-4.3823,-4.6591,0.0,0.0,0.0,0.0,0.0,0.0,0.0,0.0,0.0,0.0,0.0,0.0,0.0,0.0,0.0,0.0,0.0,0.0,0.0,0.0,-6.4711,-6.3621,-6.2797,-6.2526,-6.2767,-6.2204,-6.0594,-5.9056,-5.8245,-5.8094,-5.7384,-5.7597,-5.8709,-5.7854,-5.8019,-5.8937,-5.8674,-5.8134,-5.7328,-5.6927,-5.6221,-5.5284,-5.5164,-5.471,-5.4175,-5.4239,-5.4303,-5.4303,0.0,0.0,0.0,0.0,0.0,0.0,0.0,0.0,-1.4933,-1.4971,0.0,0.0,0.0,0.0,0.0,-1.3245,-1.3942,-1.4356,-1.4356,-1.3913,-1.3678,-1.3713,-1.314,-1.2792,-1.2703,-1.2431,-1.1971,0.0,0.0,0.0,0.0,-0.9994,-1.0436,-1.2045,-1.1263,-1.2143,-1.419,-1.3995,-1.4754,-1.6726,-2.3906,-2.6513,-2.6306,-2.7705,-2.8351,-2.8112,-2.5753,-2.5201,-2.603,-2.8793,0.0,0.0,-2.388,-1.9217,-1.5512,-1.5512,-1.5751,-1.6376,0.0,0.0,0.0,-2.5605,-2.6955,-2.9321,-3.7437,-3.8862,-4.0022,-4.5238,0.0,0.0,0.0,0.0,0.0,0.0,0.0,0.0,0.0,0.0,0.0,0.0,0.0,0.0,0.0,0.0,0.0,0.0,0.0,-6.3199,-6.4549,-6.362,-6.2785,-6.2251,-6.2508,-6.204,-6.0791,-6.0394,-5.9588,-5.8379,-5.8104,-5.8472,-5.9506,-5.9559,-5.9615,-5.9826,-5.9789,-5.9169,-5.8033,-5.7351,-5.6704,-5.607,-5.5578,-5.5018,-5.4494,-5.4494,-5.4494,-5.4494,0.0,0.0,0.0,0.0,0.0,-1.501,-1.5593,-1.5604,-1.5741,0.0,0.0,0.0,-1.6299,-1.5576,-1.4828,-1.4183,-1.3783,-1.3541,-1.3543,-1.3216,-1.3292,-1.3891,-1.3428,-1.3052,-1.2852,-1.2556,-1.2258,0.0,0.0,0.0,0.0,0.0,-1.0929,-1.1342,-1.108,-1.2155,-1.419,-1.3995,-1.5027,-1.7334,-2.331,-2.6265,0.0,0.0,0.0,0.0,0.0,-3.2235,-3.3043,0.0,-3.0365,-2.4967,-1.9842,-1.7065,-1.5727,-1.5823,-1.6059,-1.653,-1.7669,0.0,0.0,0.0,0.0,0.0,0.0,0.0,-3.6466,-4.127,0.0,0.0,0.0,0.0,0.0,0.0,0.0,0.0,0.0,0.0,0.0,0.0,0.0,0.0,0.0,0.0,0.0,0.0,-5.9474,-6.029,-6.2567,-6.2933,-6.2915,-6.2558,-6.1704,-6.1543,-6.2164,-6.1115,-6.0611,-6.0612,-6.0303,-6.0196,-6.0303,-6.0071,-6.0054,-6.012,-5.9878,-5.9634,-5.9206,-5.7813,-5.6861,-5.6166,-5.5601,-5.5018,-5.4494,-5.4494,-5.4494,-5.4494,0.0,0.0,-1.4822,-1.4822,-1.5066,-1.5401,-1.5839,-1.6149,-1.651,0.0,0.0,0.0,-1.6445,0.0,-1.5894,-1.5086,-1.4538,-1.4112,-1.3712,-1.3496,-1.344,-1.3543,-1.3417,-1.3244,-1.2998,-1.2671,-1.2392,-1.2148,0.0,0.0,0.0,0.0,0.0,-1.1534,-1.1141,-1.2186,-1.4197,-1.4293,-1.5418,-1.7638,-2.3868,0.0,0.0,-3.138,-3.4919,0.0,0.0,0.0,-3.7425,-3.8736,-3.3907,0.0,-2.4144,-2.0318,-1.6914,-1.6987,-1.6971,-1.7043,-1.7625,-1.8335,-1.9083,-1.9621,0.0,0.0,-2.9377,-3.2112,-3.5545,0.0,0.0,0.0,0.0,0.0,0.0,0.0,0.0,0.0,0.0,0.0,0.0,0.0,0.0,0.0,0.0,0.0,0.0,0.0,-5.8009,-5.8799,-6.109,-6.2095,-6.2697,-6.2835,-6.1886,-6.1741,-6.2509,-6.1325,-6.0923,-6.1281,-6.0793,-6.0917,-6.1454,-6.1069,-6.0957,-6.1061,-6.0929,-6.0418,-5.962,-5.8443,-5.7536,-5.683,-5.6505,-5.602,-5.549,-5.5081,-5.5041,-5.5006,0.0,0.0,-1.4701,-1.4691,-1.5358,-1.5915,-1.5929,-1.6658,-1.7237,0.0,-1.7269,0.0,-1.62,-1.6678,0.0,0.0,-1.5772,-1.5429,-1.4623,-1.4355,-1.3928,-1.3193,-1.3335,-1.3328,-1.3142,-1.2764,-1.2471,-1.2272,0.0,0.0,0.0,0.0,0.0,-1.2241,-1.1536,-1.2372,-1.4324,-1.5027,-1.6264,-1.8275,-2.5099,-2.8396,0.0,0.0,-3.5992,-3.7143,-3.8122,-3.8947,-4.0044,-4.2646,-3.8591,0.0,0.0,-2.6412,-1.9783,-1.8732,-1.8476,-1.8387,-1.7884,-1.8336,-1.8973,-1.9005,-2.0074,0.0,-2.987,-3.2089,-3.471,0.0,0.0,0.0,0.0,0.0,0.0,0.0,0.0,0.0,0.0,0.0,0.0,0.0,0.0,0.0,0.0,-5.6426,-5.6709,-5.7494,-5.7585,-5.821,-5.9675,-6.1003,-6.2056,-6.2803,-6.247,-6.2257,-6.2213,-6.1389,-6.0987,-6.1098,-6.0431,-6.1027,-6.2695,-6.2182,-6.2113,-6.2262,-6.2361,-6.1389,-5.9723,-5.9245,-5.8464,-5.76,-5.7599,-5.7339,-5.6863,-5.6077,-5.5766,-5.5756,-1.4654,-1.4654,-1.468,-1.4545,-1.5268,-1.6041,-1.6682,-1.7393,-1.8176,-1.8933,-1.8926,-1.8772,-1.8625,-1.8246,-1.7696,-1.6879,-1.6335,-1.5887,-1.5561,-1.4804,-1.4514,-1.4809,-1.4064,-1.3542,-1.3345,-1.3121,-1.2885,-1.2678,-1.2678,-1.2678,0.0,0.0,0.0,-1.2678,-1.3127,-1.3865,-1.486,-1.6715,-1.903,-2.1824,-2.6406,-2.9092,-3.0955,-3.6329,-3.9475,-4.1085,-4.1555,-4.2647,-4.3457,-4.1269,-3.8934,-3.5861,0.0,-2.8586,-2.8287,-2.0874,-2.1044,-2.2781,-1.9039,-1.8085,-1.828,-1.8846,-1.9219,0.0,-2.2036,-2.3109,-2.5012,0.0,-3.1667,0.0,0.0,0.0,0.0,0.0,0.0,0.0,0.0,0.0,0.0,0.0,0.0,0.0,0.0,0.0,-5.4108,-5.4321,-5.5939,-5.687,-5.6905,-5.9278,-6.0724,-6.0996,-6.1855,-6.2077,-6.1666,-6.1892,-6.1892,-6.1713,-6.1496,-6.1887,-6.2695,-6.2595,-6.2572,-6.2585,-6.2456,-6.1812,-6.0796,-6.01,-5.8921,-5.7529,-5.7081,-5.685,-5.6836,-5.6633,-5.615,-5.5662,-1.4556,-1.4567,-1.4703,-1.505,-1.5466,-1.6005,-1.6815,-1.7582,-1.8309,-1.8828,-1.9639,-1.9964,-1.9541,-1.9585,-1.9301,-1.8466,-1.769,-1.7019,-1.6459,-1.5919,-1.5379,-1.4819,-1.4175,-1.3728,-1.3491,-1.2857,-1.2618,-1.2797,-1.2811,-1.2811,-1.2811,0.0,0.0,-1.3413,-1.3368,-1.4182,-1.568,-1.7369,-2.0036,-2.3376,-2.7386,0.0,-3.4412,-3.8485,-4.146,-4.3488,-4.314,-4.3828,-4.4874,-4.3913,-4.0551,0.0,-3.4399,-3.2112,-2.9243,-2.4448,-2.4116,-2.4347,-1.9806,-1.8506,-1.8381,-1.8415,-1.8663,0.0,0.0,-2.2984,-2.4646,-2.8608,-3.0293,-3.1602,0.0,0.0,0.0,0.0,0.0,0.0,0.0,0.0,0.0,0.0,0.0,0.0,0.0,0.0,-5.1596,-5.1974,-5.3777,-5.5014,-5.5355,-5.7586,-5.9183,-5.998,-6.0772,-6.1357,-6.1619,-6.1582,-6.1678,-6.1818,-6.1163,-6.1281,-6.2108,-6.226,-6.2412,-6.2567,-6.2835,-6.2301,-6.1181,-6.0761,-5.9699,-5.8212,-5.7954,-5.7926,-5.8008,-5.7495,-5.7182,-5.6833,-1.4524,-1.4488,-1.4696,-1.5331,-1.5563,-1.5942,-1.6758,-1.7563,-1.8243,-1.8684,-2.0159,-2.0926,-2.0252,-2.1582,-2.2313,-2.1783,-2.1744,-2.1091,-1.9638,-1.8988,-1.7694,-1.5374,-1.4787,-1.4253,-1.3678,-1.2935,-1.2607,-1.2714,-1.286,-1.2875,-1.2693,-1.22,-1.2646,-1.3913,-1.4316,-1.5255,-1.665,-1.8772,-2.1728,-2.53,0.0,-3.3272,-3.7734,-4.0636,-4.312,-4.4978,-4.4395,-4.4813,-4.5694,-4.6693,-4.242,-3.699,-3.8701,-3.5214,-2.988,-2.7171,-2.6689,-2.5942,-2.0745,-1.9209,-1.8978,-1.8369,-1.8572,-1.9723,0.0,0.0,0.0,0.0,0.0,0.0,0.0,0.0,0.0,0.0,0.0,0.0,0.0,0.0,0.0,0.0,0.0,0.0,0.0,0.0,-4.9197,-5.0025,-5.1234,-5.2537,-5.3993,-5.5766,-5.7424,-5.9014,-5.9688,-6.0461,-6.1326,-6.0974,-6.12,-6.1781,-6.0646,-6.0682,-6.1702,-6.1922,-6.2118,-6.2227,-6.3193,-6.2599,-6.0958,-6.1128,-6.028,-5.8876,-5.8981,-5.908,-5.9147,-5.8425,-5.8114,-5.804,-1.4563,-1.4464,-1.4489,-1.4453,-1.5096,-1.5877,-1.668,-1.749,-1.8587,-2.0241,-2.1158,-2.177,-2.1997,-2.5602,-2.831,-2.9021,-3.1939,0.0,-2.8823,-2.6505,-2.3297,-1.8941,-1.7191,-1.5555,-1.4005,-1.4371,-1.3883,-1.2462,-1.3107,-1.3057,-1.2366,-1.294,-1.3278,-1.37,-1.8568,-1.9617,-1.7962,-2.3148,-2.7106,0.0,-3.2604,-3.5272,0.0,-4.3407,-4.5278,-4.5384,-4.7007,-4.7637,-4.7395,0.0,-4.3105,-3.9624,0.0,-3.5844,-3.7343,-2.6283,-2.7325,-3.0303,-2.2276,-1.9991,-1.9833,-1.9765,-1.9316,-1.9012,-1.9445,0.0,-1.9824,-2.0277,0.0,0.0,0.0,0.0,0.0,0.0,0.0,0.0,0.0,0.0,0.0,0.0,0.0,0.0,0.0,0.0,0.0,-4.8124,-4.8012,-4.91,-5.1871,-5.3719,-5.5497,-5.7438,-5.8999,-5.9894,-6.0029,-6.0674,-6.1239,-6.1781,-6.1047,-6.1336,-6.2457,-6.256,-6.2166,-6.141,-6.2933,-6.2264,-6.0141,-6.0908,-6.028,-5.8876,-5.8981,-5.898,-5.9012,-5.8909,-5.8461,-5.7909,-1.4501,-1.4732,-1.5047,-1.4994,-1.5674,-1.6355,-1.6682,-1.7884,-1.9396,-2.1167,-2.2234,-2.2731,-2.245,-2.4545,-2.6968,-2.9385,0.0,-3.163,0.0,0.0,-2.5632,-1.9686,-1.7944,-1.6606,-1.5467,-1.4578,-1.4021,-1.3733,-1.3563,-1.3342,-1.2985,-1.2899,-1.3513,-1.5014,-1.9814,-2.2152,-2.2649,0.0,-2.8968,0.0,0.0,0.0,0.0,-4.4533,-4.6593,-4.6948,-4.8282,-4.8839,-4.901,0.0,-4.5082,0.0,0.0,0.0,-3.5342,-3.2101,-3.0874,-2.9303,-2.3152,-2.3102,-2.4052,-2.0797,-2.1888,-2.2993,-2.0154,-1.9529,-1.9393,-1.893,0.0,0.0,0.0,0.0,0.0,0.0,-2.3522,0.0,0.0,0.0,-3.2976,0.0,0.0,0.0,0.0,0.0,0.0,0.0,0.0,-4.659,-5.1418,-5.2572,-5.4093,-5.6312,-5.7783,-5.8963,-5.9692,-6.0141,-6.0793,-6.1478,-6.0611,-6.0394,-6.0774,-6.1105,-6.0987,-6.0469,-6.1619,-6.1248,-5.9863,-6.0213,-5.9828,-5.8876,-5.8981,-5.908,-5.9149,-5.9149,-5.8976,-5.8699,-1.5067,-1.5429,-1.5755,-1.5524,-1.6153,-1.6856,-1.7291,-1.8817,-2.0478,-2.2067,-2.3154,-2.3719,-2.3598,-2.6079,-2.8967,-3.2034,-3.4803,-3.5079,0.0,0.0,-2.9186,-2.2991,-1.9928,-1.853,-1.8919,-1.6144,-1.4726,-1.471,-1.4127,-1.3836,-1.3819,-1.3288,-1.4024,-1.5993,-2.0677,-2.3988,-2.6148,0.0,-3.1593,-3.5328,-3.6633,-3.894,-4.201,-4.5793,-4.789,-4.8881,-4.9576,-4.9992,-5.0294,-5.0429,-4.6546,0.0,-4.7216,0.0,-3.5843,-3.7513,-3.5532,-3.1659,-2.6353,-2.6852,-2.7569,-2.222,-2.3215,-2.4564,-2.1049,-2.0085,-1.9723,-1.8925,0.0,0.0,0.0,0.0,-1.9546,-1.9157,0.0,-2.2928,0.0,-2.3981,0.0,0.0,0.0,0.0,0.0,0.0,0.0,0.0,0.0,0.0,-5.0305,-5.139,-5.2949,-5.5349,-5.6695,-5.7889,-5.8967,-5.9465,-6.0117,-6.0863,-6.0367,-5.9973,-5.9729,-6.0335,-6.025,-5.9536,-6.053,-6.053,-5.9826,-5.9798,-5.9595,-5.9255,-5.9111,-5.9144,-5.9319,-5.9251,-5.9251,-5.9183,-1.6639,-1.6639,-1.6421,-1.5632,-1.6153,-1.7219,-1.8797,-2.0391,-2.1862,0.0,0.0,0.0,0.0,0.0,0.0,0.0,0.0,-4.8263,-3.97,0.0,-3.5667,-3.1029,-2.4276,-2.2025,-2.506,-2.0082,-1.6588,-1.4796,-1.4779,-1.4727,-1.4659,-1.4624,-1.5052,-1.6043,-2.1827,-2.5203,-2.6858,-3.17,-3.6572,-4.1073,-4.1658,-4.3568,-4.6224,0.0,-4.9418,-5.0933,-5.1177,0.0,0.0,-4.8861,-4.6887,0.0,0.0,0.0,0.0,0.0,0.0,0.0,0.0,0.0,0.0,-2.4394,0.0,0.0,0.0,0.0,-1.9595,-1.886,-1.8726,-1.855,-1.7872,-1.8343,-1.84,-1.7016,-1.8684,0.0,0.0,0.0,0.0,0.0,0.0,0.0,0.0,0.0,0.0,0.0,0.0,0.0,-4.7691,-4.9907,-5.2008,-5.4367,-5.5729,-5.6775,-5.7453,-5.8542,-5.9345,-6.006,-6.0652,-6.081,-6.0488,-6.1165,-6.0434,-5.8846,-6.0351,-6.0574,-5.9875,-5.9846,-5.9921,-5.9973,-5.9408,-5.9236,-5.9319,-5.9081,-5.9012,-5.9012,-1.8089,-1.7871,-1.7059,-1.5741,-1.6624,-1.8234,-2.0355,-2.168,0.0,0.0,-2.865,0.0,0.0,-3.7406,-4.0551,0.0,0.0,-4.6857,-3.9585,-3.9831,0.0,-3.0776,-2.5558,-2.3953,0.0,-2.1098,-1.7719,-1.6465,-1.5834,-1.5502,-1.5502,-1.5484,-1.5879,-1.6781,-2.2643,-2.7062,-3.0302,0.0,0.0,0.0,0.0,-4.2758,-4.7038,0.0,0.0,-4.9725,-5.1951,-5.3147,0.0,-5.2905,-5.0322,-4.7799,-4.9964,-4.6714,-4.2503,-4.4316,-4.2894,0.0,0.0,0.0,-3.7614,-2.9776,0.0,0.0,0.0,0.0,0.0,0.0,-2.0084,-1.9744,-1.8583,-1.8574,-1.8382,-1.7332,-1.7776,-1.7937,0.0,0.0,0.0,0.0,0.0,0.0,0.0,0.0,0.0,0.0,0.0,0.0,0.0,-4.8976,-5.04,-5.2641,-5.4112,-5.5459,-5.674,-5.771,-5.8299,-5.8567,-5.9704,-6.0065,-5.9866,-6.0457,-6.025,-5.9461,-5.9974,-6.0092,-5.9795,-5.9198,-5.9419,-6.0029,-5.9302,-5.9117,-5.9319,-5.9251,-5.9183,-5.9149,-1.8052,-1.7788,-1.7194,-1.6465,-1.7457,-1.9031,0.0,0.0,0.0,0.0,-3.1424,0.0,-3.9532,0.0,-4.332,0.0,-4.932,-4.754,-4.023,-4.2501,0.0,-3.4735,-3.1308,0.0,0.0,0.0,-2.162,-2.08,-1.7851,-1.6509,-1.6708,-1.6433,-1.6654,-1.7563,-2.1918,-2.6962,-3.2317,-3.433,-3.8617,0.0,0.0,-4.217,0.0,0.0,-4.6997,-4.9544,0.0,-5.417,-5.4749,-5.5041,-5.3205,-5.133,-5.433,-5.0832,-4.6133,-4.9325,-4.7307,-4.3659,-4.1767,-4.2909,0.0,-3.4732,-3.4675,0.0,-2.7262,0.0,-2.4074,0.0,0.0,0.0,-1.9559,-1.9031,-1.8525,-1.8,-1.7605,-1.7206,0.0,-1.6346,0.0,0.0,0.0,0.0,0.0,0.0,0.0,0.0,0.0,0.0,0.0,0.0,-4.9658,-5.1493,-5.3167,-5.451,-5.5523,-5.672,-5.7509,-5.7825,-5.8991,-5.9616,-5.9905,-6.0267,-6.0357,-6.0277,-6.0233,-6.0277,-6.0203,-5.9307,-5.9395,-5.9993,-5.9202,-5.9051,-5.9319,-5.9251,-5.9149,-5.9149,-1.6805,-1.6736,-1.6924,-1.7772,-1.86,0.0,0.0,0.0,-2.539,0.0,-3.2408,-3.4984,-4.1489,-4.4878,-4.7155,-4.8354,-5.2146,-5.0855,-4.2241,-4.6321,0.0,0.0,-4.0804,-4.1655,-4.5547,0.0,0.0,0.0,-2.0657,-1.7705,-1.8176,-1.7432,-1.7501,-1.8314,-1.9943,-2.5077,-3.2607,-3.4376,-4.0167,-4.7704,-4.3247,-4.1971,-4.2826,-4.3889,0.0,-5.045,-5.3485,-5.4593,-5.47,-5.5068,-5.518,-5.5147,-5.5505,-5.4633,-5.3687,-5.4702,-5.3753,-5.1623,-4.815,-4.6456,-4.4414,-3.9142,0.0,0.0,0.0,0.0,-2.8586,0.0,0.0,0.0,0.0,0.0,-1.9027,-1.8848,-1.8019,-1.6954,0.0,0.0,0.0,0.0,0.0,0.0,0.0,0.0,0.0,0.0,0.0,0.0,0.0,0.0,-4.9539,-5.0917,-5.2726,-5.3739,-5.3878,-5.5609,-5.6886,-5.7719,-5.8597,-5.9515,-6.0467,-6.0612,-6.087,-6.1224,-6.1093,-6.1137,-6.1187,-6.024,-5.9944,-6.012,-5.9219,-5.9087,-5.9319,-5.9081,-5.9012,-5.9012,-1.8179,-1.8572,-1.8686,0.0,-1.8995,-2.0178,0.0,0.0,0.0,0.0,-3.7547,-4.1648,-5.0891,-5.2636,-5.3683,-5.5082,-5.6412,0.0,0.0,0.0,0.0,-4.6291,-4.2536,-4.2222,-4.5817,-3.5277,-2.9045,-2.7655,0.0,-1.8793,-1.8423,-1.8066,-1.8293,-1.9073,-2.005,-2.3391,-2.8486,-3.0628,-3.569,-4.2085,-4.1036,-4.2057,0.0,0.0,-4.9506,-5.1899,-5.4416,-5.5686,-5.6117,-5.6269,-5.5937,-5.5547,-5.5917,-5.5174,-5.4195,-5.4357,-5.3744,-5.2624,-5.0693,-4.9792,-4.8299,-4.3497,-4.1443,-3.9618,0.0,0.0,0.0,0.0,0.0,0.0,0.0,0.0,0.0,-1.952,-1.7936,0.0,0.0,0.0,0.0,-1.5933,0.0,0.0,0.0,0.0,0.0,0.0,0.0,0.0,0.0,0.0,0.0,-4.9058,-5.012,-5.1572,-5.3541,-5.4537,-5.5375,-5.6139,-5.7751,-5.8638,-5.8963,-6.0738,-6.1419,-6.1224,-6.1775,-6.2034,-6.1997,-6.0665,-6.0587,-6.1096,-5.9679,-5.9186,-5.9319,-5.9251,-5.9351,-5.9516,-1.8603,-1.9059,-1.9482,-1.959,0.0,0.0,-2.5556,0.0,0.0,-3.8719,-4.0615,0.0,-5.2717,-5.5161,-5.6611,-5.763,-5.7786,0.0,-5.0354,0.0,0.0,-4.9012,-4.8758,-4.8966,-4.9642,-4.1804,0.0,-3.2181,0.0,-2.2275,-1.9465,-1.9338,-1.9428,-1.9716,-2.047,-2.3346,-2.7973,-3.4186,-3.8149,-4.0504,-4.324,0.0,0.0,-4.9308,-5.1799,-5.4305,-5.5638,-5.6349,-5.668,-5.668,-5.6415,-5.6084,-5.6312,-5.5629,-5.4783,-5.4722,-5.4063,-5.3123,-5.2152,-5.1638,-5.0634,-4.7237,-4.5911,-4.4345,-3.9941,-3.8207,-3.6909,0.0,0.0,0.0,0.0,0.0,0.0,0.0,0.0,0.0,0.0,0.0,0.0,0.0,0.0,0.0,0.0,0.0,0.0,0.0,0.0,0.0,0.0,0.0,0.0,-4.5974,-4.7455,-4.9354,-5.1778,-5.2528,-5.3903,-5.5819,-5.7402,-5.852,-5.9361,-6.11,-6.1821,-6.1781,-6.2599,-6.2747,-6.2331,-6.1187,-6.0799,-6.0804,-5.9805,-5.9459,-5.9485,-5.9453,-5.952,-5.9551,-1.8725,-1.9117,-1.9921,0.0,0.0,0.0,0.0,-2.923,0.0,-4.1466,0.0,-4.5647,-5.1586,-5.5345,-5.7586,-5.7911,0.0,-5.6257,-5.2785,-5.6215,-5.622,-5.1345,-5.5756,-5.7149,-5.4528,-4.9725,-4.4158,0.0,0.0,-2.6195,-2.0793,-2.0683,-2.0547,-2.0455,-2.1114,-2.4222,-2.9694,-3.962,-4.2613,-4.1131,-4.6911,-4.9318,-4.9715,-5.0994,-5.3628,-5.668,-5.668,-5.668,-5.668,-5.6757,-5.668,-5.668,-5.6757,-5.6018,-5.5226,-5.5358,-5.4481,-5.3363,-5.2878,-5.2486,-5.1912,-5.0228,-5.0144,-4.9062,-4.4058,-4.2742,-4.1565,-3.7904,-3.6507,-3.5675,0.0,0.0,0.0,0.0,0.0,0.0,0.0,0.0,0.0,0.0,0.0,0.0,0.0,0.0,0.0,0.0,0.0,0.0,0.0,0.0,0.0,-4.32,-4.5363,0.0,-4.9169,0.0,-5.252,-5.561,-5.7044,-5.8603,-6.0322,-6.1317,-6.1894,-6.2301,-6.3037,-6.3074,-6.2517,-6.1581,-6.0738,-5.9974,-5.9727,-5.9718,-5.9748,-5.9652,-5.9453,-5.9319,-2.0085,-2.0489,-2.1155,-2.2031,0.0,-3.3154,-3.839,-3.9111,-4.1029,-4.6488,-4.8596,-5.1575,-5.6671,-5.85,-5.9265,-5.9122,-5.9731,0.0,0.0,0.0,0.0,-5.4128,-5.5321,-5.5656,-5.4912,-5.0104,-4.4377,0.0,0.0,-2.6412,-2.1187,-2.0547,-2.0715,-2.1541,-2.1455,-2.532,-3.2037,-3.4484,0.0,-4.141,-4.5824,-4.7888,-4.8825,-5.2937,-5.5412,-5.668,-5.668,-5.668,-5.6757,-5.6911,-5.6834,-5.6757,-5.6911,-5.6192,-5.528,-5.4933,-5.4196,-5.3291,-5.2829,-5.2637,-5.2333,-5.1293,-5.0803,-5.0073,-4.8067,-4.7215,-4.6314,-4.4576,-4.451,-4.3574,-3.9503,0.0,0.0,0.0,0.0,0.0,0.0,0.0,0.0,0.0,0.0,0.0,0.0,0.0,0.0,0.0,0.0,0.0,0.0,0.0,0.0,0.0,-4.5992,0.0,0.0,0.0,0.0,-5.2682,-5.5598,-5.7585,-5.8782,-6.0141,-6.1017,-6.1447,-6.2175,-6.2806,-6.3288,-6.1911,-6.0677,-5.9669,-5.9744,-5.9683,-5.9652,-5.9748,-5.9551,-5.9319,-2.1994,-2.2507,-2.3642,-2.6012,0.0,0.0,0.0,-4.6231,0.0,-5.0161,-5.1479,-5.318,-5.5333,-5.8377,-5.9962,-5.9253,-5.959,-5.9137,-5.755,-5.7595,-5.7262,-5.629,-5.6482,0.0,-5.5921,-5.3087,-4.7627,-3.9557,0.0,-3.0234,-2.3042,-2.2,-2.1763,-2.2392,-2.5125,-2.88,0.0,0.0,0.0,-4.4959,-4.9658,-5.1719,-5.2316,-5.4982,-5.5886,-5.5653,-5.5653,-5.5542,-5.5418,-5.647,-5.6338,-5.5653,-5.5809,-5.5147,-5.4388,-5.4196,-5.4031,-5.3681,-5.2794,-5.2426,-5.214,-5.1168,-5.0245,-4.9408,-4.8612,-4.7798,-4.7006,-4.6214,-4.6376,-4.5363,-4.1049,-3.545,0.0,0.0,0.0,0.0,0.0,0.0,0.0,0.0,0.0,0.0,0.0,0.0,0.0,0.0,0.0,0.0,0.0,0.0,0.0,0.0,0.0,0.0,0.0,0.0,0.0,-5.2995,-5.561,-5.7223,-5.8067,-5.9677,-6.0456,-6.0593,-6.1196,-6.2048,-6.2917,-6.1894,-6.101,-6.0164,-5.9908,-5.9683,-5.9586,-5.9748,-5.9617,-5.9319,-2.4989,-2.5019,-2.6415,0.0,-3.647,0.0,-4.4755,-5.1136,-5.5025,-5.3527,-5.3898,-5.4359,-5.4565,-5.8164,-6.0154,-5.898,-5.9014,-5.8777,-5.8153,-5.8201,-5.7914,-5.6982,-5.7063,-5.6883,-5.6327,-5.5616,-5.1046,0.0,0.0,0.0,0.0,-2.397,-2.3734,0.0,0.0,0.0,0.0,0.0,-4.7684,-4.9248,-5.334,-5.4929,-5.4919,-5.5611,-5.5234,-5.4273,-5.4514,-5.4308,-5.4213,-5.587,-5.5562,-5.4547,-5.4626,-5.3971,-5.3223,-5.3355,-5.3688,-5.3712,-5.2631,-5.215,-5.1865,-5.0866,-4.9859,-4.8921,-4.8353,-4.7489,-4.6698,-4.64,-4.6315,-4.5221,-4.1586,-3.8216,0.0,0.0,0.0,0.0,0.0,0.0,0.0,0.0,0.0,0.0,0.0,0.0,0.0,0.0,0.0,0.0,0.0,0.0,0.0,0.0,0.0,-4.4788,-4.6506,0.0,-5.1213,0.0,-5.5654,-5.7007,-5.7676,-5.9283,-5.9909,-5.9875,-6.0285,-6.096,-6.1739,-6.157,-6.1091,-6.0379,-5.9908,-5.9617,-5.9485,-5.9748,-5.9551,-5.9183,0.0,0.0,0.0,0.0,0.0,0.0,0.0,-5.3157,-5.7186,-5.7341,-5.7267,-5.7903,-5.9776,-6.0153,-5.9763,-5.8651,-5.8991,-5.8456,-5.6562,-5.6249,-5.569,-5.4747,-5.5119,-5.5222,-5.4989,-5.5294,-5.2412,0.0,0.0,0.0,0.0,-2.6047,-2.7083,0.0,0.0,0.0,0.0,-4.6178,-4.8924,-5.2401,-5.2702,-5.2628,-5.2385,-5.286,-5.3005,-5.3038,-5.3809,-5.4035,-5.4132,-5.515,-5.4891,-5.4116,-5.4244,-5.3455,-5.2554,-5.2554,-5.2586,-5.2504,-5.2182,-5.215,-5.2036,-5.0816,-5.0499,-5.0156,-4.8715,-4.8149,-4.7733,-4.692,-4.6791,-4.565,-4.1781,-4.1176,-4.0408,0.0,0.0,0.0,0.0,0.0,-4.6562,-4.3546,0.0,0.0,0.0,0.0,0.0,0.0,0.0,0.0,0.0,0.0,0.0,-4.1982,0.0,-4.2909,-4.1952,-4.864,0.0,-5.115,-5.4591,-5.661,-5.7473,-5.8435,-5.9113,-5.962,-5.9559,-5.9648,-5.9866,-6.087,-6.058,-5.9418,-5.9586,-5.9386,-5.9149,-5.9617,-5.9418,-5.8909,0.0,0.0,0.0,0.0,0.0,0.0,0.0,-5.3897,-5.6478,-5.7767,-5.8887,-5.9938,-6.0729,-6.0555,-5.9915,-5.8814,-5.8275,-5.7619,-5.6602,-5.6617,-5.6523,-5.6161,-5.5837,-5.568,-5.5832,-5.5487,-5.2967,0.0,0.0,0.0,0.0,0.0,0.0,0.0,0.0,-4.1211,-4.5341,-4.7473,-4.9681,-5.1739,-5.1932,-5.2119,-5.2459,-5.2669,-5.2188,-5.1611,-5.2522,-5.2613,-5.2606,-5.347,-5.3751,-5.3597,-5.3262,-5.2617,-5.1922,-5.1674,-5.1946,-5.225,-5.1755,-5.1548,-5.1466,-5.1077,-5.0516,-4.9894,-4.9223,-4.8537,-4.7852,-4.7131,-4.6993,-4.6549,-4.4925,-4.302,-4.2341,0.0,0.0,0.0,0.0,0.0,0.0,-4.4647,0.0,-3.7189,0.0,0.0,0.0,0.0,0.0,0.0,0.0,0.0,0.0,-3.8986,0.0,-4.6718,-4.391,-4.9932,-5.3041,-5.3267,-5.5104,-5.6467,-5.7346,-5.8154,-5.852,-5.8557,-5.914,-5.9325,-5.9245,-6.0285,-6.0458,-5.9937,-5.9683,-5.9351,-5.9012,-5.9284,-5.9081,-5.8806,-4.1423,0.0,-4.2689,0.0,-4.8571,-4.9986,-5.2894,-5.4583,-5.6078,-5.7567,-5.9479,-6.0609,-6.0387,-6.0083,-5.9615,-5.881,-5.8246,-5.7702,-5.7277,-5.7293,-5.7289,-5.7051,-5.6227,0.0,-5.6491,-5.5498,-5.3469,-5.0335,-4.4755,0.0,0.0,0.0,0.0,0.0,-4.2078,-4.4161,-4.6323,-4.8666,-5.0284,-5.1154,-5.1055,-5.1518,-5.2205,-5.1741,-5.0988,-5.0379,-5.1505,-5.1737,-5.1643,-5.2386,-5.2944,-5.3069,-5.2321,-5.136,-5.0403,-5.0178,-5.0403,-5.069,-5.0184,-4.9899,-4.977,-4.9878,-4.9291,-4.8635,-4.8447,-4.7821,-4.7195,-4.669,-4.7017,-4.7317,-4.741,-4.5227,-4.4361,-4.711,0.0,0.0,0.0,-4.861,0.0,-4.4852,-4.0315,-3.8728,-4.1929,0.0,0.0,0.0,0.0,0.0,0.0,0.0,0.0,0.0,0.0,0.0,0.0,-5.1429,-5.4158,-5.4974,-5.5589,-5.6339,-5.7199,-5.7959,-5.8281,-5.8307,-5.9078,-5.9309,-5.9158,-5.9858,-6.0097,-5.9931,-5.9516,-5.9149,-5.8944,-5.9012,-5.8806,-5.8597,-4.5572,-4.4524,-4.5103,-5.1864,-5.1735,-5.1459,-5.3719,-5.539,-5.667,-5.7306,-5.8774,-5.9672,-5.915,-5.8799,-5.8623,-5.8587,-5.916,-5.92,-5.8248,-5.7945,-5.7369,0.0,0.0,-5.5616,-5.6564,-5.5179,-5.4025,-5.3223,0.0,0.0,-3.9749,-3.582,-3.7186,-4.3098,-4.3522,-4.5864,-4.948,-4.9886,-5.0801,-5.1797,-5.0264,-5.0182,-5.0879,-4.9571,-4.9027,-4.9264,-5.1017,-5.1685,-5.178,-5.247,-5.269,-5.2596,-5.1684,-4.9698,-4.7731,-4.8004,-4.7588,-4.706,-4.695,-4.695,-4.6868,-4.6615,-4.6515,-4.642,-4.5987,-4.5659,-4.5493,-4.5657,-4.6904,-4.8065,-4.8254,-4.8187,-4.7036,-4.3739,0.0,0.0,0.0,-4.7224,0.0,-4.5341,-4.0165,-3.9901,-4.7439,0.0,0.0,0.0,0.0,0.0,0.0,0.0,0.0,-4.8913,-4.8161,0.0,-4.9269,-5.2865,-5.4839,-5.5074,-5.5599,-5.6184,-5.695,-5.7678,-5.8529,-5.9357,-5.9394,-5.9423,-5.9503,-5.9479,-5.9362,-5.9012,-5.8771,-5.8702,-5.8702,-5.8944,-5.8667,-5.8243,-5.1722,-5.1036,-5.0701,-5.2809,-5.3275,-5.3471,-5.3923,-5.5379,-5.6611,-5.7324,-5.8261,-5.8923,-5.9269,-5.9792,-6.0119,0.0,-5.96,-5.9186,0.0,-5.8287,-5.7783,-5.7369,-5.6582,-5.5937,-5.5489,-5.5308,-5.4712,-5.3809,0.0,0.0,0.0,-4.1478,-4.3313,-4.8086,-4.7497,-4.8038,-4.9317,-4.8966,-4.9063,-4.9426,-4.9407,-4.9577,-4.9815,-4.9353,-4.921,-4.9334,-5.0599,-5.0516,-5.0039,-5.0975,-5.0266,-4.8956,-4.8858,-4.8789,-4.86,-4.7808,-4.7256,-4.6895,-4.6814,-4.6675,-4.6531,-4.6397,-4.6456,-4.6344,-4.6074,-4.5723,-4.5593,-4.6175,-4.6778,-4.7387,-4.8263,-4.82,-4.8031,-4.7596,-4.8092,0.0,-4.727,0.0,-4.4841,-4.1443,-3.7911,-3.8018,0.0,-3.7777,0.0,0.0,0.0,0.0,0.0,0.0,0.0,0.0,-4.9664,0.0,-4.9714,-5.3648,-5.5917,-5.6552,-5.6745,-5.7529,-5.87,-5.87,-5.8857,-5.9113,-5.8514,-5.8322,-5.8401,-5.9207,-5.9137,-5.8736,-5.9383,-5.9182,-5.8526,-5.8631,-5.8456,-5.8243,-5.382,-5.3752,-5.3481,-5.2901,-5.3881,-5.4589,-5.4305,-5.5441,-5.6406,-5.6633,-5.7666,-5.836,-5.8238,-5.9107,0.0,-5.9637,-5.9312,-5.8987,-5.8645,-5.8484,-5.8268,-5.7763,-5.6921,-5.6059,-5.5115,0.0,0.0,-5.3333,-4.9835,-4.7517,-4.629,-4.5929,-4.7087,-4.9383,-4.8859,-4.8713,-4.8889,-4.853,-4.8528,-4.8778,-4.9184,-4.9372,-4.9421,-4.9421,-4.9421,-4.9484,-5.0115,-4.9828,-4.9291,-4.9559,-4.8613,-4.7242,-4.6561,-4.6749,-4.7015,-4.6659,-4.601,-4.5585,-4.5763,-4.565,-4.5405,-4.5405,-4.5405,-4.5346,-4.5046,-4.5049,-4.5316,-4.5836,-4.6421,-4.7103,-4.8377,-4.8373,-4.8509,-4.9746,-4.9333,-4.8688,-4.8261,0.0,-4.4136,0.0,0.0,0.0,0.0,-4.0656,0.0,0.0,0.0,0.0,0.0,0.0,0.0,-4.8201,-5.3008,0.0,-5.2856,-5.5766,-5.7297,-5.7318,-5.7965,-5.8645,-5.9379,-5.9189,-5.9113,-5.9077,-5.8123,-5.7981,-5.8388,-5.8637,-5.8624,-5.8564,-5.8998,-5.8872,-5.849,-5.8348,-5.8205,-5.8099,-5.2445,-5.319,0.0,0.0,-5.3784,0.0,-5.4928,-5.5669,-5.6163,-5.5714,-5.7187,-5.7808,-5.6615,-5.7052,-5.7363,-5.7285,0.0,0.0,0.0,-5.8446,-5.8518,-5.7453,-5.6537,0.0,-5.5094,-5.4276,-5.3191,-5.2034,-5.0413,-4.9453,-4.9094,-4.9022,-4.8657,-4.7909,-4.8124,-4.8275,-4.8434,-4.8592,-4.9048,-4.9613,-4.9421,-4.9533,-4.9661,-4.955,-4.9519,-4.9519,-4.9487,-4.9425,-4.9108,-4.8084,-4.7507,-4.6826,-4.4781,-4.3747,-4.3546,-4.4655,-4.4118,-4.3315,-4.3832,-4.3679,-4.3488,-4.3545,-4.3545,-4.3543,-4.3245,-4.3843,-4.447,-4.4882,-4.5869,-4.716,-4.8635,-4.8545,-4.8733,-5.018,-4.9993,-4.8961,-4.6891,-4.7192,-4.6055,0.0,0.0,0.0,0.0,-4.5994,-4.8216,0.0,0.0,0.0,0.0,0.0,-4.7086,-5.8042,-5.7366,-5.7119,-5.7836,-5.8827,-5.8835,-5.7744,-5.9171,-5.9709,-5.9417,-5.9307,-5.9328,-5.9384,-5.8176,-5.8274,-5.9184,-5.8016,-5.7848,-5.8421,-5.7971,-5.805,-5.8388,-5.8027,-5.7881,-5.7881,0.0,0.0,-5.2881,-5.3247,-5.3723,-5.4467,-5.5676,-5.6701,-5.7291,-5.7382,-5.7844,-5.7872,-5.7248,-5.5346,-5.4115,-5.4042,-5.5718,-5.6595,-5.6385,-5.6837,-5.6561,-5.539,-5.464,-5.4185,-5.3931,-5.2493,-5.1864,-5.2075,-5.0707,-4.9985,-5.0058,-4.947,-4.9018,-4.8898,-4.9282,-4.9521,-4.9521,-4.9789,-4.9962,-5.0089,-5.0089,-5.0089,-5.0026,-4.9174,-4.8828,-4.8734,-4.8075,-4.731,-4.6422,-4.5464,-4.4353,-4.3257,-4.2047,-4.1439,-4.1288,-4.2278,-4.1962,-4.1435,-4.1531,-4.1446,-4.1322,-4.1972,-4.2082,-4.2137,-4.1991,-4.2168,-4.2794,-4.4618,-4.5298,-4.6194,-4.842,-4.8805,-4.9241,-5.0736,-4.894,-4.7209,-4.7053,-4.5206,0.0,0.0,-4.2433,-4.3855,-4.7261,-4.7477,-4.8094,0.0,0.0,0.0,0.0,-4.8901,-5.0822,-5.7995,-5.7313,-5.7513,-5.897,-5.9609,-5.9941,-5.9937,-6.0805,-6.1262,-6.124,-6.0481,-6.0126,-6.01,-5.8574,-5.7996,-5.816,-5.8368,-5.8192,-5.7876,-5.8659,-5.8467,-5.7878,-5.8109,-5.7954,-5.7662,-5.4123,-5.3889,-5.3756,-5.43,-5.4334,-5.4734,-5.5762,-5.6371,-5.6471,-5.5846,-5.6191,-5.6217,-5.5407,-5.3551,-5.2501,-5.2943,-5.3942,-5.465,-5.4634,-5.5226,-5.5249,-5.4543,-5.3742,-5.3202,-5.278,-5.1497,-5.0982,-5.1197,-4.9969,-4.9628,-4.9992,-4.9544,-4.9273,-4.9043,-4.9346,-4.9457,-4.9457,-4.9614,-4.9377,-4.8969,-5.0023,-4.9787,-4.8906,-4.892,-4.8544,-4.7887,-4.7122,-4.6361,-4.5603,-4.4613,-4.3389,-4.2196,-4.1299,-4.0504,-3.9854,-4.0096,-4.0386,-4.0641,-4.079,-4.0567,-4.0508,-4.0924,-4.1099,-4.1099,-4.1099,-4.145,-4.2186,-4.3589,-4.4327,-4.5263,-4.7232,-4.8043,-4.8789,-4.9917,-4.8437,-4.721,-4.7209,-4.5219,0.0,-4.4956,-4.4993,-4.6181,-4.9251,-4.9759,-5.0107,-5.0745,0.0,0.0,-5.2927,-5.2507,-5.3929,-5.7639,-5.7729,-5.8232,-5.9366,-5.9941,-6.0705,-6.1664,-6.1631,-6.1587,-6.1567,-6.1039,-6.0604,-6.0249,-5.9225,-5.8883,-5.8906,-5.9081,-5.8988,-5.8733,-5.9277,-5.9018,-5.8289,-5.8391,-5.8065,-5.7588,-5.5113,-5.494,-5.494,-5.5214,-5.5007,-5.4955,-5.5662,-5.5653,-5.4974,-5.3452,-5.4013,-5.4174,-5.281,-5.2004,-5.1858,-5.2594,-5.2538,-5.258,-5.2563,-5.3554,-5.4033,-5.3754,-5.2997,-5.231,-5.1765,-5.1027,-5.0479,-5.0066,-4.9084,-4.8829,-4.9234,-4.9158,-4.9038,-4.8653,-4.8653,-4.8653,-4.8653,-4.8731,-4.8261,-4.7543,-4.9483,-4.9075,-4.748,-4.8383,-4.8072,-4.7013,-4.622,-4.5818,-4.5495,-4.4187,-4.3227,-4.2308,-4.1247,-4.0033,-3.9018,-3.8392,-3.9092,-4.0161,-4.0423,-4.0383,-4.0307,-4.0121,-4.0147,-4.0201,-4.0201,-4.092,-4.1848,-4.2338,-4.3299,-4.4449,-4.5912,-4.7132,-4.7985,-4.8206,-4.7679,-4.7144,-4.6791,0.0,-4.5486,-4.7568,-4.7865,-4.8885,-5.1186,-5.2034,-5.2804,-5.3756,-5.473,0.0,0.0,-5.6118,-5.6141,-5.7149,-5.8103,-5.8979,-5.9727,-6.0267,-6.1276,-6.2743,-6.1924,-6.1498,-6.1375,-6.1266,-6.0879,-6.0322,-5.9961,-5.9976,-6.009,-5.9771,-5.9763,-5.9952,-5.9715,-5.9417,-5.9007,-5.8565,-5.814,-5.7628,-5.5113,-5.4216,-5.4037,-5.5962,-5.4361,-5.3748,-5.6412,-5.5842,-5.4874,-5.4258,-5.4317,-5.3694,-5.1756,-5.1426,-5.1424,-5.1559,-5.0821,-5.0377,-5.0439,-5.1514,-5.1645,-5.072,-5.0649,-5.066,-5.0758,-5.0961,-5.0668,-4.9812,-4.9341,-4.8751,-4.8155,-4.7806,-4.7574,-4.7574,-4.7574,-4.7574,-4.7574,-4.7959,-4.794,-4.7877,-4.8402,-4.8263,-4.7738,-4.6931,-4.6452,-4.5959,-4.4972,-4.4573,-4.4234,-4.2111,-4.1811,-4.1843,-3.9311,-3.8772,-3.9016,-3.7886,-3.821,-3.9002,-3.8991,-3.9506,-3.9744,-3.8582,-3.878,-3.9283,-3.9283,-3.9468,-4.0102,-4.2027,-4.2567,-4.3441,-4.5788,-4.7138,-4.7383,-4.5921,-4.4723,-4.4014,-4.4202,0.0,-4.4311,-4.7406,-4.9337,-5.0732,-5.1388,-5.2622,-5.3552,-5.399,-5.4941,-5.5552,-5.5756,-5.6152,-5.655,-5.6716,-5.7789,-5.9345,-6.1351,-6.1404,-6.1842,-6.2474,-6.195,-6.1897,-6.2214,-6.1521,-6.112,-6.0974,-6.0267,-5.9925,-5.9874,-5.9823,-5.974,-5.9619,-5.9147,-5.9223,-5.9522,-5.8219,-5.7959,-5.8106,-5.5536,-5.446,-5.3865,-5.4933,-5.4096,-5.3618,-5.4865,-5.4502,-5.3961,-5.3519,-5.3032,-5.2566,-5.2077,-5.1597,-5.1275,-5.1282,-5.0898,-5.0478,-4.9993,-5.0458,-5.0491,-4.9992,-5.0059,-4.9912,-4.9523,-4.9641,-4.9636,-4.9317,-4.8586,-4.8275,-4.8415,-4.8261,-4.7995,-4.7649,-4.7649,-4.7428,-4.7082,-4.7202,-4.7012,-4.6504,-4.7712,-4.7403,-4.6291,-4.6322,-4.5801,-4.5003,-4.4619,-4.4343,-4.3957,-4.279,-4.207,-4.1319,-3.9628,-3.8639,-3.8007,-3.7468,-3.7893,-3.8522,-3.871,-3.9013,-3.9107,-3.8109,-3.8175,-3.8451,-3.8451,-3.9285,-4.0382,-4.1362,-4.2557,-4.3817,-4.5072,-4.633,-4.6453,-4.4372,-4.4145,0.0,0.0,-4.468,-4.5681,-4.8753,-5.0173,-5.0968,-5.108,-5.2256,-5.3356,-5.4117,-5.51,-5.5962,-5.667,-5.7067,-5.7438,-5.7895,-5.8602,-5.9844,-6.1712,-6.1712,-6.1823,-6.2024,-6.1975,-6.1939,-6.1914,-6.1784,-6.1678,-6.1709,-6.1277,-6.1042,-6.1095,-6.0989,-6.0972,-6.0865,-6.0633,-6.0509,-6.0309,-5.9175,-5.8599,-5.8319,-5.5472,-5.4349,-5.3509,-5.3825,-5.3411,-5.2941,-5.2981,-5.2889,-5.2667,-5.2109,-5.1837,-5.1694,-5.1965,-5.1604,-5.1329,-5.1329,-5.1092,-5.0756,-5.0353,-5.0124,-4.9998,-4.9974,-4.9998,-4.9668,-4.8936,-4.8903,-4.8891,-4.8811,-4.7997,-4.7934,-4.8513,-4.8513,-4.8198,-4.777,-4.7612,-4.7233,-4.6622,-4.6539,-4.6045,-4.5372,-4.6961,-4.6516,-4.5011,-4.5765,-4.5339,-4.4297,-4.4343,-4.422,-4.3832,-4.3438,-4.2495,-4.1389,-4.0236,-3.8972,-3.7758,-3.714,-3.7612,-3.8213,-3.846,-3.8512,-3.8392,-3.8031,-3.7808,-3.7808,-3.79,-3.9129,-4.035,-4.0605,-4.2283,-4.3836,-4.4195,-4.5572,-4.5716,-4.3254,0.0,0.0,0.0,-4.5509,-4.6611,-4.954,-5.0184,-5.0416,-5.0483,-5.1806,-5.3117,-5.4326,-5.5396,-5.6439,-5.7636,-5.7974,-5.8457,-5.9229,-5.9653,-6.0438,-6.16,-6.16,-6.1656,-6.1768,-6.1652,-6.1497,-6.1372,-6.1593,-6.1794,-6.1878,-6.2005,-6.206,-6.2168,-6.206,-6.2005,-6.195,-6.184,-6.1544,-6.1104,-6.0121,-5.9478,-5.8908,-5.4,-5.2986,-5.2462,-5.3651,-5.183,-5.0596,-5.1862,-5.1677,-5.1137,-5.0232,-5.1566,-5.1933,-5.0295,-5.0803,-5.1312,-5.1312,-5.0517,-5.0311,-5.1168,-5.0358,-4.9923,-4.9895,-4.9936,-4.9821,-4.9852,-4.9805,-4.9442,-4.8655,-4.8514,-4.8122,-4.7434,-4.7434,-4.7403,-4.7309,-4.6653,-4.6309,-4.6247,-4.5771,-4.5562,-4.5531,-4.5625,-4.5446,-4.5161,-4.4861,-4.4557,-4.4266,-4.391,-4.3754,-4.3596,-4.2496,-4.2548,-4.268,-3.9913,-3.9448,-3.9541,-3.7402,-3.714,-3.7661,-3.7924,-3.7971,-3.8041,-3.7964,-3.7716,-3.7598,-3.7808,-3.8238,-3.8742,-3.9788,-4.1098,-4.2419,-4.3455,-4.5403,-4.5739,-4.2585,0.0,0.0,-4.4688,-4.4282,-4.5166,-4.848,-4.9021,-4.9249,-4.9727,-5.1559,-5.3235,-5.4698,-5.5655,-5.6667,-5.7636,-5.8497,-5.9264,-6.0001,-6.0468,-6.0927,-6.135,-6.135,-6.1636,-6.2132,-6.0711,-6.0406,-6.1045,-6.0651,-6.0711,-6.1104,-6.1748,-6.2005,-6.2005,-6.2005,-6.2005,-6.195,-6.1315,-6.143,-6.1748,-6.0468,-6.0184,-6.0335,-5.2637,-5.1545,-5.0849,-5.1339,-5.1025,-5.0898,-5.147,-5.1375,-5.1359,-5.1598,-5.0311,-4.9474,-4.9741,-5.0232,-5.047,-5.0342,-5.112,-5.1806,-5.2173,-5.0723,-4.9884,-4.991,-4.9931,-4.9931,-4.9931,-4.9931,-4.9726,-4.9363,-4.9363,-4.9237,-4.8907,-4.8907,-4.8466,-4.7649,-4.7366,-4.6366,-4.5028,-4.5184,-4.4954,-4.439,-4.4644,-4.4754,-4.4603,-4.4343,-4.4143,-4.391,-4.3754,-4.3596,-4.3438,-4.293,-4.2317,-4.1439,-4.0009,-3.9054,-3.8255,-3.7127,-3.6769,-3.6919,-3.7278,-3.7826,-3.8136,-3.7753,-3.7716,-3.7795,-3.8123,-3.8619,-3.9313,-3.9986,-4.1115,-4.2258,-4.338,-4.4343,-4.4403,-4.2697,0.0,-4.5178,-4.4236,-4.5163,-4.6545,-4.8273,-4.8974,-4.9486,-5.0008,-5.1302,-5.2707,-5.4237,-5.5347,-5.664,-5.8095,-5.9143,-5.9826,-6.0072,-6.0262,-6.0574,-6.0998,-6.1158,-6.137,-6.1675,-6.152,-6.1083,-6.0574,-6.0764,-6.0844,-6.0831,-6.1221,-6.1636,-6.2005,-6.2005,-6.2005,-6.195,-6.1692,-6.1748,-6.1895,-6.0986,-6.0711,-6.0711,-5.1229,-5.0532,-4.9931,-4.9931,-5.039,-5.0898,-5.0898,-5.1359,-5.1869,-5.2205,-4.9884,-4.8451,-4.9284,-4.9048,-4.8954,-4.9315,-5.093,-5.2109,-5.2637,-5.1232,-5.0232,-4.9931,-4.9931,-4.9931,-4.9931,-4.9931,-4.9931,-4.9931,-4.9931,-4.9931,-4.9931,-4.971,-4.8906,-4.7725,-4.7284,-4.5927,-4.4102,-4.4351,-4.4173,-4.3692,-4.4004,-4.4159,-4.4266,-4.3822,-4.3607,-4.3421,-4.321,-4.3042,-4.2857,-4.2809,-4.2055,-4.0949,-3.9873,-3.8583,-3.7202,-3.6902,-3.6573,-3.6453,-3.657,-3.7062,-3.7557,-3.7505,-3.7624,-3.7899,-3.8243,-3.8948,-3.9637,-4.0042,-4.1025,-4.2119,-4.3012,-4.359,-4.3771,-4.3389,-4.4923,-4.5759,-4.4586,-4.6262,-4.7788,-4.8237,-4.9224,-5.0004,-5.0449,-5.1414,-5.2622,-5.4151,-5.544,-5.6972,-5.8903,-5.9698,-6.0107,-6.0107,-6.0124,-6.0258,-6.0642,-6.0668,-6.0884,-6.1225,-6.1258,-6.0868,-6.0151,-6.0387,-6.0289,-5.996,-6.0653,-6.12,-6.1636,-6.1888,-6.2057,-6.2005,-6.2005,-6.2005,-6.195,-6.1487,-6.1163,-6.0831,-4.9931,-4.9931,-4.9931,-4.9931,-4.9931,-4.9931,-4.9931,-5.1503,-5.2301,-5.1359,-5.0549,-4.9694,-4.8796,-4.709,-4.6687,-4.8529,-4.9474,-5.0771,-5.2541,-5.1837,-5.0898,-4.9931,-4.9931,-4.9931,-4.9931,-4.9931,-4.9931,-4.9931,-4.9931,-4.9931,-4.99,-4.9205,-4.8355,-4.7215,-4.5841,-4.4725,-4.3862,-4.3211,-4.3304,-4.3851,-4.363,-4.3881,-4.4205,-4.3305,-4.2986,-4.2895,-4.2196,-4.1923,-4.1879,-4.1761,-4.1716,-4.1398,-3.9506,-3.8087,-3.7042,-3.6724,-3.6651,-3.6392,-3.5594,-3.562,-3.6082,-3.7221,-3.7505,-3.7691,-3.8363,-3.895,-3.9384,-3.9601,-4.0674,-4.1781,-4.2395,-4.3364,-4.4218,-4.4705,-4.5577,-4.6159,-4.584,-4.7229,-4.8297,-4.8297,-4.9434,-5.0425,-5.097,-5.1999,-5.3303,-5.47,-5.6163,-5.7875,-5.9837,-6.0,-6.0107,-6.0107,-6.0045,-6.0082,-6.0289,-5.9931,-6.0028,-6.0761,-5.9627,-5.9336,-5.9764,-5.9302,-5.8787,-5.8424,-6.0078,-6.0762,-6.0747,-6.1686,-6.2032,-6.2041,-6.2005,-6.2005,-6.2005,-6.2005,-6.1579,-6.0927,-4.9931,-4.9931,-4.9931,-4.9931,-5.0422,-5.066,-5.0074,-5.0438,-5.0279,-4.8655,-4.667,-4.5649,-4.6501,-4.5711,-4.5973,-4.8232,-4.9363,-4.9979,-4.9805,-5.085,-5.0834,-4.9236,-4.9679,-4.9931,-4.9931,-4.9931,-4.9931,-4.9931,-4.9931,-4.9679,-4.9205,-4.8983,-4.782,-4.5841,-4.5509,-4.4195,-4.2099,-4.252,-4.2417,-4.1912,-4.2297,-4.2498,-4.2605,-4.2318,-4.2213,-4.2063,-4.1851,-4.1686,-4.1505,-4.1535,-4.1055,-4.0382,-3.9179,-3.8299,-3.7609,-3.7642,-3.7165,-3.6471,-3.6173,-3.575,-3.5608,-3.6148,-3.6973,-3.7741,-3.8116,-3.8882,-3.9648,-4.0016,-4.0395,-4.0953,-4.1884,-4.2663,-4.3404,-4.4039,-4.5327,-4.6159,-4.584,-4.7229,-4.8446,-4.8925,-4.9733,-5.0605,-5.1516,-5.1911,-5.267,-5.3746,-5.5789,-5.7565,-5.8977,-5.904,-5.9282,-6.0046,-5.9344,-5.9133,-5.9448,-5.9621,-5.9916,-6.0267,-6.014,-5.991,-5.9591,-5.9439,-5.9302,-5.9139,-5.9045,-5.9698,-6.0768,-6.0551,-6.1061,-6.2009,-6.1472,-6.1636,-6.2114,-6.2005,-6.1636,-6.1104,-4.9931,-4.9931,-4.9931,-4.9931,-5.066,-5.0898,-4.9679,-4.9742,-4.9521,-4.812,-4.5646,-4.4507,-4.5773,-4.5277,-4.5632,-4.7715,-4.9837,-5.0375,-4.8796,-5.0246,-5.0324,-4.8573,-4.9219,-4.9726,-5.0089,-5.0089,-5.001,-4.9931,-4.9647,-4.9299,-4.8857,-4.7959,-4.6536,-4.4662,-4.4206,-4.2829,-4.0974,-4.1444,-4.1464,-4.1085,-4.145,-4.168,-4.1893,-4.165,-4.1516,-4.1368,-4.1096,-4.0932,-4.0828,-4.0755,-4.0189,-3.9471,-3.9151,-3.8688,-3.8137,-3.7671,-3.7181,-3.6572,-3.6061,-3.545,-3.5089,-3.5496,-3.6373,-3.7284,-3.8042,-3.8765,-3.9429,-4.0243,-4.0401,-4.0607,-4.1526,-4.2271,-4.2977,-4.3583,-4.5,-4.6003,-4.5781,-4.7377,-4.8683,-4.9284,-5.0062,-5.0873,-5.1542,-5.1757,-5.2489,-5.3871,-5.5481,-5.7008,-5.8444,-5.8538,-5.8788,-5.9409,-5.9136,-5.8919,-5.88,-5.9179,-5.9585,-5.998,-5.991,-5.9777,-5.9421,-5.9042,-5.8705,-5.8417,-5.8287,-5.8795,-5.9667,-5.9665,-6.0233,-6.114,-6.0645,-6.0986,-6.1712,-6.16,-6.143,-6.1068,-4.9931,-4.9931,-4.9931,-4.9931,-5.066,-5.066,-4.8781,-4.9426,-4.9709,-4.8604,-4.6416,-4.5316,-4.6153,-4.5428,-4.5583,-4.7247,-5.0406,-5.1327,-4.8871,-4.966,-4.9469,-4.7846,-4.8675,-4.9528,-5.0229,-5.0324,-5.0136,-4.9837,-4.9205,-4.8794,-4.8573,-4.6496,-4.4883,-4.3634,-4.2252,-4.1115,-4.0261,-4.0261,-4.0598,-4.1117,-4.1117,-4.137,-4.1711,-4.1134,-4.0921,-4.083,-4.0223,-3.994,-3.994,-3.9768,-3.9299,-3.8822,-3.9297,-3.9031,-3.8437,-3.7275,-3.6922,-3.6563,-3.5526,-3.4868,-3.4528,-3.5077,-3.5574,-3.63,-3.7742,-3.8417,-3.904,-4.0112,-4.047,-4.0699,-4.1308,-4.2138,-4.2809,-4.3255,-4.465,-4.5687,-4.5725,-4.7554,-4.892,-4.9194,-5.0421,-5.1229,-5.1229,-5.1665,-5.2642,-5.446,-5.5153,-5.6336,-5.81,-5.8274,-5.8437,-5.8513,-5.9226,-5.9251,-5.856,-5.8769,-5.918,-5.9811,-5.915,-5.8946,-5.9085,-5.8419,-5.7642,-5.689,-5.7642,-5.7968,-5.8099,-5.8923,-5.9426,-5.9714,-5.9644,-6.0121,-6.0891,-6.0927,-6.0927,-6.0831,-4.9931,-4.9931,-4.9931,-4.9931,-5.066,-5.0501,-4.8183,-4.9063,-4.8811,-4.5391,-4.4812,-4.5122,-4.6184,-4.5277,-4.5649,-4.8091,-4.9048,-4.8811,-4.7114,-4.8568,-4.8739,-4.7087,-4.8095,-4.8946,-4.9693,-5.0115,-4.9992,-4.9342,-4.9029,-4.7959,-4.6202,-4.5761,-4.4309,-4.2129,-4.1891,-4.1225,-4.0261,-4.0261,-4.0423,-4.0616,-4.0335,-4.0426,-4.0619,-4.0355,-4.0152,-3.9949,-3.9828,-3.9625,-3.9481,-3.9481,-3.9354,-3.9297,-3.9397,-3.8915,-3.8236,-3.7777,-3.6813,-3.5872,-3.5468,-3.4868,-3.4424,-3.4554,-3.4685,-3.5046,-3.6276,-3.7758,-3.9032,-3.9247,-3.992,-4.0532,-4.0699,-4.1423,-4.223,-4.2857,-4.3968,-4.4945,-4.552,-4.7288,-4.8593,-4.865,-5.0206,-5.1229,-5.1229,-5.1849,-5.2458,-5.3152,-5.4466,-5.5589,-5.6173,-5.7036,-5.7838,-5.8727,-5.805,-5.845,-5.9971,-5.8632,-5.8144,-5.856,-5.8642,-5.8521,-5.8352,-5.803,-5.7864,-5.7742,-5.7266,-5.7376,-5.8017,-5.7691,-5.8321,-5.9528,-5.9047,-5.9377,-6.0149,-6.0219,-6.0344,-6.0432,-4.9931,-4.9931,-4.9931,-4.9931,-5.1025,-5.12,-4.9063,-4.9457,-4.9141,-4.6586,-4.5752,-4.5801,-4.6792,-4.6747,-4.7153,-4.8483,-4.8733,-4.8135,-4.6598,-4.7498,-4.7585,-4.636,-4.7289,-4.7978,-4.8328,-4.8955,-4.926,-4.9197,-4.8301,-4.7076,-4.5437,-4.4736,-4.3457,-4.1666,-4.1326,-4.0847,-4.0261,-4.0261,-4.0261,-4.0261,-4.0081,-4.0081,-4.0121,-3.991,-3.9768,-3.9696,-3.9625,-3.9481,-3.9409,-3.9409,-3.9409,-3.9409,-3.9409,-3.8826,-3.811,-3.7522,-3.6623,-3.5656,-3.5384,-3.4868,-3.4476,-3.4763,-3.4607,-3.4729,-3.5736,-3.7204,-3.8413,-3.8928,-3.9778,-4.0539,-4.0539,-4.1202,-4.2007,-4.2599,-4.3596,-4.4548,-4.523,-4.6726,-4.7849,-4.8407,-4.9846,-5.0963,-5.1572,-5.2033,-5.2397,-5.2698,-5.384,-5.4781,-5.5365,-5.6018,-5.6937,-5.7985,-5.7923,-5.8507,-5.9716,-5.888,-5.8409,-5.8413,-5.8133,-5.8012,-5.793,-5.7885,-5.7686,-5.7399,-5.7321,-5.7321,-5.7399,-5.7,-5.7415,-5.8281,-5.7949,-5.846,-5.9311,-5.9346,-5.9478,-5.9574,-4.9931,-5.001,-5.001,-5.001,-5.1455,-5.1997,-5.02,-5.02,-4.9977,-4.8948,-4.7554,-4.7025,-4.7774,-4.859,-4.8937,-4.8655,-4.8906,-4.8478,-4.6906,-4.6992,-4.675,-4.6086,-4.6539,-4.6824,-4.6845,-4.7299,-4.7882,-4.858,-4.7257,-4.5992,-4.483,-4.3591,-4.2474,-4.155,-4.0786,-4.0339,-4.0109,-4.0039,-3.9878,-3.9646,-3.9576,-3.9576,-3.9576,-3.9335,-3.9425,-3.9444,-3.9301,-3.932,-3.9409,-3.9409,-3.9409,-3.9409,-3.9409,-3.8826,-3.8052,-3.7127,-3.6346,-3.5629,-3.5252,-3.4763,-3.4528,-3.5025,-3.4763,-3.4673,-3.571,-3.6744,-3.7738,-3.8561,-3.9677,-4.0539,-4.0539,-4.111,-4.1801,-4.2426,-4.3289,-4.4137,-4.4957,-4.6016,-4.714,-4.8348,-4.9729,-5.0908,-5.1849,-5.2124,-5.2397,-5.2698,-5.3352,-5.404,-5.4956,-5.5257,-5.5921,-5.6895,-5.7947,-5.8507,-5.8795,-5.8834,-5.8641,-5.8216,-5.7573,-5.7371,-5.7608,-5.7608,-5.7276,-5.6713,-5.7342,-5.7243,-5.668,-5.668,-5.6757,-5.6987,-5.6987,-5.752,-5.8319,-5.8599,-5.8668,-5.8772,-5.0168,-5.0278,-5.0324,-5.0512,-5.1307,-5.1417,-4.9821,-5.073,-5.0858,-4.8604,-4.8428,-4.8559,-4.8731,-4.9363,-4.9552,-4.8952,-4.9614,-4.9515,-4.804,-4.802,-4.7702,-4.6929,-4.6348,-4.5876,-4.5742,-4.5258,-4.5435,-4.6275,-4.5835,-4.4507,-4.2279,-4.2124,-4.1519,-4.0662,-4.0431,-4.0025,-3.9405,-3.9031,-3.8629,-3.825,-3.788,-3.7841,-3.7978,-3.7743,-3.8102,-3.8582,-3.8542,-3.8901,-3.9409,-3.9409,-3.9409,-3.9409,-3.9409,-3.8826,-3.8052,-3.7127,-3.6346,-3.5521,-3.4726,-3.445,-3.4424,-3.4502,-3.445,-3.4612,-3.542,-3.6573,-3.751,-3.7663,-3.9175,-4.0539,-4.0539,-4.0601,-4.1097,-4.2515,-4.2783,-4.3284,-4.488,-4.5772,-4.6755,-4.8437,-5.0453,-5.1697,-5.1665,-5.2033,-5.2397,-5.2698,-5.2997,-5.3383,-5.3915,-5.4971,-5.5665,-5.5986,-5.7119,-5.7761,-5.7761,-5.7177,-5.682,-5.6806,-5.6417,-5.6455,-5.6846,-5.6846,-5.6779,-5.668,-5.6812,-5.6779,-5.668,-5.668,-5.668,-5.6757,-5.6911,-5.7063,-5.7331,-5.8355,-5.846,-5.8137,-5.0434,-5.0512,-5.0512,-5.0589,-5.1321,-5.1623,-5.098,-5.1353,-5.1339,-5.0256,-4.9755,-4.9457,-4.9457,-4.9742,-4.9805,-4.9645,-4.9705,-4.9228,-4.8318,-4.7797,-4.7183,-4.6443,-4.6054,-4.551,-4.4943,-4.4632,-4.4172,-4.3599,-4.4006,-4.3395,-4.1806,-4.1736,-4.1256,-4.037,-3.9795,-3.9321,-3.8948,-3.8379,-3.7978,-3.7609,-3.7473,-3.7473,-3.7503,-3.7404,-3.7584,-3.7883,-3.8272,-3.8571,-3.8829,-3.8752,-3.9046,-3.9337,-3.887,-3.8173,-3.7386,-3.7049,-3.5949,-3.4868,-3.4481,-3.4397,-3.4397,-3.4397,-3.4397,-3.445,-3.4879,-3.6171,-3.7507,-3.8025,-3.9343,-4.0375,-4.0462,-4.0539,-4.0802,-4.1722,-4.2296,-4.3006,-4.4059,-4.5149,-4.6558,-4.8743,-5.0605,-5.188,-5.2155,-5.2306,-5.2397,-5.2698,-5.2997,-5.3175,-5.344,-5.4159,-5.4908,-5.5602,-5.6263,-5.7236,-5.8554,-5.7477,-5.7119,-5.7477,-5.653,-5.6165,-5.6402,-5.7033,-5.7077,-5.6713,-5.7144,-5.7077,-5.668,-5.668,-5.668,-5.668,-5.6757,-5.6911,-5.7063,-5.7887,-5.7959,-5.7808]}]]